<?xml version="1.0" encoding="UTF-8" standalone="no" ?>
<gpx xmlns="http://www.topografix.com/GPX/1/1" xmlns:xsi="http://www.w3.org/2001/XMLSchema-instance" xsi:schemaLocation="http://www.topografix.com/GPX/1/1 http://www.topografix.com/GPX/1/1/gpx.xsd" version="1.1" creator="VisuGPX - https://www.visugpx.com">
  <metadata>
    <name>Tour du Lac de Roselend - Cormet de Roselend</name>
    <desc><![CDATA[Tour du Lac de Roselend - Cormet de Roselend]]></desc>
  </metadata>
  <trk>
    <name><![CDATA[Tour du Lac de Roseland - Cormet de R.]]></name>
    <trkseg>
      <trkpt lat="45.69316" lon="6.66896">
        <ele>1677</ele>
        <time>2014-10-20T10:52:51Z</time>
      </trkpt>
      <trkpt lat="45.69318" lon="6.66895">
        <ele>1677</ele>
        <time>2014-10-20T10:52:53Z</time>
      </trkpt>
      <trkpt lat="45.69321" lon="6.66888">
        <ele>1677</ele>
        <time>2014-10-20T10:52:56Z</time>
      </trkpt>
      <trkpt lat="45.69321" lon="6.66881">
        <ele>1677</ele>
        <time>2014-10-20T10:52:58Z</time>
      </trkpt>
      <trkpt lat="45.69318" lon="6.66874">
        <ele>1677</ele>
        <time>2014-10-20T10:53:00Z</time>
      </trkpt>
      <trkpt lat="45.69315" lon="6.66868">
        <ele>1677</ele>
        <time>2014-10-20T10:53:02Z</time>
      </trkpt>
      <trkpt lat="45.69312" lon="6.6686">
        <ele>1677</ele>
        <time>2014-10-20T10:53:04Z</time>
      </trkpt>
      <trkpt lat="45.69308" lon="6.66851">
        <ele>1677</ele>
        <time>2014-10-20T10:53:07Z</time>
      </trkpt>
      <trkpt lat="45.69303" lon="6.66837">
        <ele>1677</ele>
        <time>2014-10-20T10:53:09Z</time>
      </trkpt>
      <trkpt lat="45.69299" lon="6.66829">
        <ele>1678</ele>
        <time>2014-10-20T10:53:11Z</time>
      </trkpt>
      <trkpt lat="45.69294" lon="6.66816">
        <ele>1678</ele>
        <time>2014-10-20T10:53:14Z</time>
      </trkpt>
      <trkpt lat="45.69291" lon="6.66809">
        <ele>1679</ele>
        <time>2014-10-20T10:53:16Z</time>
      </trkpt>
      <trkpt lat="45.69282" lon="6.668">
        <ele>1679</ele>
        <time>2014-10-20T10:53:19Z</time>
      </trkpt>
      <trkpt lat="45.69276" lon="6.66793">
        <ele>1680</ele>
        <time>2014-10-20T10:53:21Z</time>
      </trkpt>
      <trkpt lat="45.69268" lon="6.66783">
        <ele>1681</ele>
        <time>2014-10-20T10:53:24Z</time>
      </trkpt>
      <trkpt lat="45.69262" lon="6.66773">
        <ele>1682</ele>
        <time>2014-10-20T10:53:27Z</time>
      </trkpt>
      <trkpt lat="45.69255" lon="6.66763">
        <ele>1682</ele>
        <time>2014-10-20T10:53:30Z</time>
      </trkpt>
      <trkpt lat="45.6925" lon="6.66756">
        <ele>1683</ele>
        <time>2014-10-20T10:53:32Z</time>
      </trkpt>
      <trkpt lat="45.69244" lon="6.66751">
        <ele>1683</ele>
        <time>2014-10-20T10:53:35Z</time>
      </trkpt>
      <trkpt lat="45.69239" lon="6.66747">
        <ele>1684</ele>
        <time>2014-10-20T10:53:37Z</time>
      </trkpt>
      <trkpt lat="45.69233" lon="6.66737">
        <ele>1685</ele>
        <time>2014-10-20T10:53:40Z</time>
      </trkpt>
      <trkpt lat="45.69232" lon="6.66727">
        <ele>1685</ele>
        <time>2014-10-20T10:53:42Z</time>
      </trkpt>
      <trkpt lat="45.69232" lon="6.66717">
        <ele>1686</ele>
        <time>2014-10-20T10:53:44Z</time>
      </trkpt>
      <trkpt lat="45.69234" lon="6.66704">
        <ele>1686</ele>
        <time>2014-10-20T10:53:47Z</time>
      </trkpt>
      <trkpt lat="45.69237" lon="6.66694">
        <ele>1687</ele>
        <time>2014-10-20T10:53:50Z</time>
      </trkpt>
      <trkpt lat="45.69239" lon="6.66689">
        <ele>1687</ele>
        <time>2014-10-20T10:53:53Z</time>
      </trkpt>
      <trkpt lat="45.69243" lon="6.6668">
        <ele>1687</ele>
        <time>2014-10-20T10:53:55Z</time>
      </trkpt>
      <trkpt lat="45.69245" lon="6.66674">
        <ele>1688</ele>
        <time>2014-10-20T10:53:57Z</time>
      </trkpt>
      <trkpt lat="45.69246" lon="6.66665">
        <ele>1688</ele>
        <time>2014-10-20T10:54:00Z</time>
      </trkpt>
      <trkpt lat="45.69247" lon="6.66655">
        <ele>1690</ele>
        <time>2014-10-20T10:54:03Z</time>
      </trkpt>
      <trkpt lat="45.69249" lon="6.66647">
        <ele>1690</ele>
        <time>2014-10-20T10:54:06Z</time>
      </trkpt>
      <trkpt lat="45.69252" lon="6.66638">
        <ele>1691</ele>
        <time>2014-10-20T10:54:09Z</time>
      </trkpt>
      <trkpt lat="45.69255" lon="6.6663">
        <ele>1692</ele>
        <time>2014-10-20T10:54:12Z</time>
      </trkpt>
      <trkpt lat="45.69257" lon="6.66625">
        <ele>1693</ele>
        <time>2014-10-20T10:54:14Z</time>
      </trkpt>
      <trkpt lat="45.6926" lon="6.66617">
        <ele>1694</ele>
        <time>2014-10-20T10:54:17Z</time>
      </trkpt>
      <trkpt lat="45.69263" lon="6.66613">
        <ele>1694</ele>
        <time>2014-10-20T10:54:19Z</time>
      </trkpt>
      <trkpt lat="45.69265" lon="6.66609">
        <ele>1694</ele>
        <time>2014-10-20T10:54:21Z</time>
      </trkpt>
      <trkpt lat="45.69268" lon="6.66601">
        <ele>1695</ele>
        <time>2014-10-20T10:54:24Z</time>
      </trkpt>
      <trkpt lat="45.69268" lon="6.66592">
        <ele>1695</ele>
        <time>2014-10-20T10:54:27Z</time>
      </trkpt>
      <trkpt lat="45.69265" lon="6.66584">
        <ele>1696</ele>
        <time>2014-10-20T10:54:30Z</time>
      </trkpt>
      <trkpt lat="45.69263" lon="6.6658">
        <ele>1697</ele>
        <time>2014-10-20T10:54:32Z</time>
      </trkpt>
      <trkpt lat="45.6926" lon="6.66575">
        <ele>1697</ele>
        <time>2014-10-20T10:54:34Z</time>
      </trkpt>
      <trkpt lat="45.69258" lon="6.66571">
        <ele>1698</ele>
        <time>2014-10-20T10:54:36Z</time>
      </trkpt>
      <trkpt lat="45.69253" lon="6.66567">
        <ele>1698</ele>
        <time>2014-10-20T10:54:39Z</time>
      </trkpt>
      <trkpt lat="45.6925" lon="6.66562">
        <ele>1699</ele>
        <time>2014-10-20T10:54:41Z</time>
      </trkpt>
      <trkpt lat="45.69244" lon="6.66557">
        <ele>1700</ele>
        <time>2014-10-20T10:54:44Z</time>
      </trkpt>
      <trkpt lat="45.69239" lon="6.66557">
        <ele>1699</ele>
        <time>2014-10-20T10:54:46Z</time>
      </trkpt>
      <trkpt lat="45.69232" lon="6.66562">
        <ele>1699</ele>
        <time>2014-10-20T10:54:49Z</time>
      </trkpt>
      <trkpt lat="45.69226" lon="6.66569">
        <ele>1700</ele>
        <time>2014-10-20T10:54:52Z</time>
      </trkpt>
      <trkpt lat="45.69221" lon="6.66577">
        <ele>1701</ele>
        <time>2014-10-20T10:54:55Z</time>
      </trkpt>
      <trkpt lat="45.69219" lon="6.66582">
        <ele>1702</ele>
        <time>2014-10-20T10:54:57Z</time>
      </trkpt>
      <trkpt lat="45.69215" lon="6.66589">
        <ele>1702</ele>
        <time>2014-10-20T10:55:00Z</time>
      </trkpt>
      <trkpt lat="45.69208" lon="6.66593">
        <ele>1703</ele>
        <time>2014-10-20T10:55:03Z</time>
      </trkpt>
      <trkpt lat="45.692" lon="6.66593">
        <ele>1704</ele>
        <time>2014-10-20T10:55:06Z</time>
      </trkpt>
      <trkpt lat="45.69195" lon="6.66594">
        <ele>1704</ele>
        <time>2014-10-20T10:55:08Z</time>
      </trkpt>
      <trkpt lat="45.69189" lon="6.66596">
        <ele>1704</ele>
        <time>2014-10-20T10:55:11Z</time>
      </trkpt>
      <trkpt lat="45.69183" lon="6.66598">
        <ele>1705</ele>
        <time>2014-10-20T10:55:14Z</time>
      </trkpt>
      <trkpt lat="45.6918" lon="6.666">
        <ele>1705</ele>
        <time>2014-10-20T10:55:16Z</time>
      </trkpt>
      <trkpt lat="45.69176" lon="6.66601">
        <ele>1705</ele>
        <time>2014-10-20T10:55:19Z</time>
      </trkpt>
      <trkpt lat="45.69169" lon="6.66599">
        <ele>1706</ele>
        <time>2014-10-20T10:55:21Z</time>
      </trkpt>
      <trkpt lat="45.69164" lon="6.66596">
        <ele>1706</ele>
        <time>2014-10-20T10:55:23Z</time>
      </trkpt>
      <trkpt lat="45.69158" lon="6.66592">
        <ele>1707</ele>
        <time>2014-10-20T10:55:26Z</time>
      </trkpt>
      <trkpt lat="45.69156" lon="6.66585">
        <ele>1708</ele>
        <time>2014-10-20T10:55:29Z</time>
      </trkpt>
      <trkpt lat="45.69156" lon="6.6658">
        <ele>1709</ele>
        <time>2014-10-20T10:55:31Z</time>
      </trkpt>
      <trkpt lat="45.69157" lon="6.66572">
        <ele>1709</ele>
        <time>2014-10-20T10:55:34Z</time>
      </trkpt>
      <trkpt lat="45.69159" lon="6.66566">
        <ele>1709</ele>
        <time>2014-10-20T10:55:36Z</time>
      </trkpt>
      <trkpt lat="45.69161" lon="6.66555">
        <ele>1710</ele>
        <time>2014-10-20T10:55:39Z</time>
      </trkpt>
      <trkpt lat="45.69164" lon="6.66545">
        <ele>1711</ele>
        <time>2014-10-20T10:55:42Z</time>
      </trkpt>
      <trkpt lat="45.69167" lon="6.66535">
        <ele>1711</ele>
        <time>2014-10-20T10:55:45Z</time>
      </trkpt>
      <trkpt lat="45.69169" lon="6.66525">
        <ele>1712</ele>
        <time>2014-10-20T10:55:48Z</time>
      </trkpt>
      <trkpt lat="45.69171" lon="6.66515">
        <ele>1713</ele>
        <time>2014-10-20T10:55:51Z</time>
      </trkpt>
      <trkpt lat="45.69171" lon="6.66508">
        <ele>1713</ele>
        <time>2014-10-20T10:55:53Z</time>
      </trkpt>
      <trkpt lat="45.69172" lon="6.66501">
        <ele>1714</ele>
        <time>2014-10-20T10:55:55Z</time>
      </trkpt>
      <trkpt lat="45.69172" lon="6.6649">
        <ele>1714</ele>
        <time>2014-10-20T10:55:58Z</time>
      </trkpt>
      <trkpt lat="45.69172" lon="6.66483">
        <ele>1715</ele>
        <time>2014-10-20T10:56:01Z</time>
      </trkpt>
      <trkpt lat="45.69171" lon="6.66474">
        <ele>1715</ele>
        <time>2014-10-20T10:56:03Z</time>
      </trkpt>
      <trkpt lat="45.6917" lon="6.66467">
        <ele>1716</ele>
        <time>2014-10-20T10:56:06Z</time>
      </trkpt>
      <trkpt lat="45.69169" lon="6.66461">
        <ele>1717</ele>
        <time>2014-10-20T10:56:08Z</time>
      </trkpt>
      <trkpt lat="45.69168" lon="6.66455">
        <ele>1718</ele>
        <time>2014-10-20T10:56:10Z</time>
      </trkpt>
      <trkpt lat="45.69164" lon="6.66447">
        <ele>1718</ele>
        <time>2014-10-20T10:56:13Z</time>
      </trkpt>
      <trkpt lat="45.69159" lon="6.66438">
        <ele>1719</ele>
        <time>2014-10-20T10:56:16Z</time>
      </trkpt>
      <trkpt lat="45.69156" lon="6.66432">
        <ele>1720</ele>
        <time>2014-10-20T10:56:18Z</time>
      </trkpt>
      <trkpt lat="45.69152" lon="6.66426">
        <ele>1721</ele>
        <time>2014-10-20T10:56:21Z</time>
      </trkpt>
      <trkpt lat="45.69148" lon="6.66421">
        <ele>1722</ele>
        <time>2014-10-20T10:56:23Z</time>
      </trkpt>
      <trkpt lat="45.69145" lon="6.66416">
        <ele>1722</ele>
        <time>2014-10-20T10:56:25Z</time>
      </trkpt>
      <trkpt lat="45.69141" lon="6.66408">
        <ele>1723</ele>
        <time>2014-10-20T10:56:28Z</time>
      </trkpt>
      <trkpt lat="45.69138" lon="6.66399">
        <ele>1724</ele>
        <time>2014-10-20T10:56:31Z</time>
      </trkpt>
      <trkpt lat="45.69136" lon="6.66395">
        <ele>1724</ele>
        <time>2014-10-20T10:56:33Z</time>
      </trkpt>
      <trkpt lat="45.69133" lon="6.66387">
        <ele>1725</ele>
        <time>2014-10-20T10:56:36Z</time>
      </trkpt>
      <trkpt lat="45.69129" lon="6.66381">
        <ele>1726</ele>
        <time>2014-10-20T10:56:39Z</time>
      </trkpt>
      <trkpt lat="45.69127" lon="6.66373">
        <ele>1726</ele>
        <time>2014-10-20T10:56:41Z</time>
      </trkpt>
      <trkpt lat="45.69126" lon="6.66365">
        <ele>1726</ele>
        <time>2014-10-20T10:56:43Z</time>
      </trkpt>
      <trkpt lat="45.69127" lon="6.66354">
        <ele>1727</ele>
        <time>2014-10-20T10:56:46Z</time>
      </trkpt>
      <trkpt lat="45.69128" lon="6.66343">
        <ele>1728</ele>
        <time>2014-10-20T10:56:49Z</time>
      </trkpt>
      <trkpt lat="45.69129" lon="6.66333">
        <ele>1729</ele>
        <time>2014-10-20T10:56:52Z</time>
      </trkpt>
      <trkpt lat="45.69129" lon="6.66327">
        <ele>1730</ele>
        <time>2014-10-20T10:56:54Z</time>
      </trkpt>
      <trkpt lat="45.69128" lon="6.66315">
        <ele>1731</ele>
        <time>2014-10-20T10:56:57Z</time>
      </trkpt>
      <trkpt lat="45.69127" lon="6.66308">
        <ele>1731</ele>
        <time>2014-10-20T10:56:59Z</time>
      </trkpt>
      <trkpt lat="45.69125" lon="6.663">
        <ele>1731</ele>
        <time>2014-10-20T10:57:01Z</time>
      </trkpt>
      <trkpt lat="45.69123" lon="6.66286">
        <ele>1731</ele>
        <time>2014-10-20T10:57:04Z</time>
      </trkpt>
      <trkpt lat="45.69121" lon="6.66276">
        <ele>1732</ele>
        <time>2014-10-20T10:57:06Z</time>
      </trkpt>
      <trkpt lat="45.69119" lon="6.66265">
        <ele>1732</ele>
        <time>2014-10-20T10:57:08Z</time>
      </trkpt>
      <trkpt lat="45.69115" lon="6.66249">
        <ele>1732</ele>
        <time>2014-10-20T10:57:11Z</time>
      </trkpt>
      <trkpt lat="45.69113" lon="6.66239">
        <ele>1732</ele>
        <time>2014-10-20T10:57:13Z</time>
      </trkpt>
      <trkpt lat="45.69109" lon="6.66224">
        <ele>1732</ele>
        <time>2014-10-20T10:57:16Z</time>
      </trkpt>
      <trkpt lat="45.69107" lon="6.66213">
        <ele>1733</ele>
        <time>2014-10-20T10:57:18Z</time>
      </trkpt>
      <trkpt lat="45.69103" lon="6.66197">
        <ele>1733</ele>
        <time>2014-10-20T10:57:21Z</time>
      </trkpt>
      <trkpt lat="45.69099" lon="6.6618">
        <ele>1733</ele>
        <time>2014-10-20T10:57:24Z</time>
      </trkpt>
      <trkpt lat="45.69096" lon="6.66162">
        <ele>1733</ele>
        <time>2014-10-20T10:57:27Z</time>
      </trkpt>
      <trkpt lat="45.69094" lon="6.66149">
        <ele>1733</ele>
        <time>2014-10-20T10:57:29Z</time>
      </trkpt>
      <trkpt lat="45.69091" lon="6.66126">
        <ele>1734</ele>
        <time>2014-10-20T10:57:32Z</time>
      </trkpt>
      <trkpt lat="45.69086" lon="6.66102">
        <ele>1734</ele>
        <time>2014-10-20T10:57:35Z</time>
      </trkpt>
      <trkpt lat="45.69078" lon="6.6608">
        <ele>1734</ele>
        <time>2014-10-20T10:57:38Z</time>
      </trkpt>
      <trkpt lat="45.69067" lon="6.6606">
        <ele>1734</ele>
        <time>2014-10-20T10:57:41Z</time>
      </trkpt>
      <trkpt lat="45.69054" lon="6.66037">
        <ele>1734</ele>
        <time>2014-10-20T10:57:44Z</time>
      </trkpt>
      <trkpt lat="45.69037" lon="6.66022">
        <ele>1733</ele>
        <time>2014-10-20T10:57:47Z</time>
      </trkpt>
      <trkpt lat="45.6902" lon="6.6601">
        <ele>1733</ele>
        <time>2014-10-20T10:57:50Z</time>
      </trkpt>
      <trkpt lat="45.69011" lon="6.65999">
        <ele>1733</ele>
        <time>2014-10-20T10:57:52Z</time>
      </trkpt>
      <trkpt lat="45.68998" lon="6.65981">
        <ele>1733</ele>
        <time>2014-10-20T10:57:55Z</time>
      </trkpt>
      <trkpt lat="45.6899" lon="6.65969">
        <ele>1734</ele>
        <time>2014-10-20T10:57:57Z</time>
      </trkpt>
      <trkpt lat="45.68984" lon="6.65954">
        <ele>1734</ele>
        <time>2014-10-20T10:57:59Z</time>
      </trkpt>
      <trkpt lat="45.68975" lon="6.65934">
        <ele>1735</ele>
        <time>2014-10-20T10:58:02Z</time>
      </trkpt>
      <trkpt lat="45.68966" lon="6.65915">
        <ele>1735</ele>
        <time>2014-10-20T10:58:05Z</time>
      </trkpt>
      <trkpt lat="45.68961" lon="6.65904">
        <ele>1735</ele>
        <time>2014-10-20T10:58:07Z</time>
      </trkpt>
      <trkpt lat="45.68953" lon="6.65895">
        <ele>1735</ele>
        <time>2014-10-20T10:58:09Z</time>
      </trkpt>
      <trkpt lat="45.68947" lon="6.65879">
        <ele>1735</ele>
        <time>2014-10-20T10:58:12Z</time>
      </trkpt>
      <trkpt lat="45.68946" lon="6.6587">
        <ele>1736</ele>
        <time>2014-10-20T10:58:14Z</time>
      </trkpt>
      <trkpt lat="45.68945" lon="6.65859">
        <ele>1737</ele>
        <time>2014-10-20T10:58:17Z</time>
      </trkpt>
      <trkpt lat="45.68941" lon="6.65848">
        <ele>1738</ele>
        <time>2014-10-20T10:58:20Z</time>
      </trkpt>
      <trkpt lat="45.6894" lon="6.65841">
        <ele>1738</ele>
        <time>2014-10-20T10:58:22Z</time>
      </trkpt>
      <trkpt lat="45.68939" lon="6.65835">
        <ele>1739</ele>
        <time>2014-10-20T10:58:24Z</time>
      </trkpt>
      <trkpt lat="45.68936" lon="6.6582">
        <ele>1740</ele>
        <time>2014-10-20T10:58:27Z</time>
      </trkpt>
      <trkpt lat="45.68932" lon="6.65807">
        <ele>1740</ele>
        <time>2014-10-20T10:58:29Z</time>
      </trkpt>
      <trkpt lat="45.68921" lon="6.65786">
        <ele>1740</ele>
        <time>2014-10-20T10:58:32Z</time>
      </trkpt>
      <trkpt lat="45.68911" lon="6.65768">
        <ele>1739</ele>
        <time>2014-10-20T10:58:35Z</time>
      </trkpt>
      <trkpt lat="45.68904" lon="6.65758">
        <ele>1739</ele>
        <time>2014-10-20T10:58:37Z</time>
      </trkpt>
      <trkpt lat="45.68896" lon="6.65745">
        <ele>1739</ele>
        <time>2014-10-20T10:58:40Z</time>
      </trkpt>
      <trkpt lat="45.68885" lon="6.65739">
        <ele>1739</ele>
        <time>2014-10-20T10:58:43Z</time>
      </trkpt>
      <trkpt lat="45.68879" lon="6.6574">
        <ele>1739</ele>
        <time>2014-10-20T10:58:45Z</time>
      </trkpt>
      <trkpt lat="45.68873" lon="6.65743">
        <ele>1738</ele>
        <time>2014-10-20T10:58:47Z</time>
      </trkpt>
      <trkpt lat="45.68866" lon="6.65748">
        <ele>1739</ele>
        <time>2014-10-20T10:58:50Z</time>
      </trkpt>
      <trkpt lat="45.68862" lon="6.6575">
        <ele>1739</ele>
        <time>2014-10-20T10:58:52Z</time>
      </trkpt>
      <trkpt lat="45.68855" lon="6.65754">
        <ele>1740</ele>
        <time>2014-10-20T10:58:55Z</time>
      </trkpt>
      <trkpt lat="45.6885" lon="6.65756">
        <ele>1740</ele>
        <time>2014-10-20T10:58:57Z</time>
      </trkpt>
      <trkpt lat="45.68845" lon="6.65757">
        <ele>1741</ele>
        <time>2014-10-20T10:58:59Z</time>
      </trkpt>
      <trkpt lat="45.68839" lon="6.65757">
        <ele>1742</ele>
        <time>2014-10-20T10:59:01Z</time>
      </trkpt>
      <trkpt lat="45.68832" lon="6.65757">
        <ele>1742</ele>
        <time>2014-10-20T10:59:03Z</time>
      </trkpt>
      <trkpt lat="45.68823" lon="6.65758">
        <ele>1742</ele>
        <time>2014-10-20T10:59:06Z</time>
      </trkpt>
      <trkpt lat="45.68815" lon="6.65756">
        <ele>1743</ele>
        <time>2014-10-20T10:59:09Z</time>
      </trkpt>
      <trkpt lat="45.68809" lon="6.65755">
        <ele>1744</ele>
        <time>2014-10-20T10:59:11Z</time>
      </trkpt>
      <trkpt lat="45.68801" lon="6.65755">
        <ele>1745</ele>
        <time>2014-10-20T10:59:14Z</time>
      </trkpt>
      <trkpt lat="45.68795" lon="6.65755">
        <ele>1745</ele>
        <time>2014-10-20T10:59:16Z</time>
      </trkpt>
      <trkpt lat="45.68787" lon="6.65754">
        <ele>1747</ele>
        <time>2014-10-20T10:59:19Z</time>
      </trkpt>
      <trkpt lat="45.68779" lon="6.65754">
        <ele>1747</ele>
        <time>2014-10-20T10:59:22Z</time>
      </trkpt>
      <trkpt lat="45.68771" lon="6.65753">
        <ele>1749</ele>
        <time>2014-10-20T10:59:25Z</time>
      </trkpt>
      <trkpt lat="45.68765" lon="6.65753">
        <ele>1749</ele>
        <time>2014-10-20T10:59:27Z</time>
      </trkpt>
      <trkpt lat="45.68761" lon="6.65752">
        <ele>1750</ele>
        <time>2014-10-20T10:59:29Z</time>
      </trkpt>
      <trkpt lat="45.68759" lon="6.65752">
        <ele>1751</ele>
        <time>2014-10-20T10:59:31Z</time>
      </trkpt>
      <trkpt lat="45.68755" lon="6.65751">
        <ele>1752</ele>
        <time>2014-10-20T10:59:34Z</time>
      </trkpt>
      <trkpt lat="45.68751" lon="6.65751">
        <ele>1753</ele>
        <time>2014-10-20T10:59:36Z</time>
      </trkpt>
      <trkpt lat="45.68746" lon="6.65751">
        <ele>1753</ele>
        <time>2014-10-20T10:59:39Z</time>
      </trkpt>
      <trkpt lat="45.6874" lon="6.6575">
        <ele>1754</ele>
        <time>2014-10-20T10:59:42Z</time>
      </trkpt>
      <trkpt lat="45.68737" lon="6.65751">
        <ele>1754</ele>
        <time>2014-10-20T10:59:44Z</time>
      </trkpt>
      <trkpt lat="45.68732" lon="6.65755">
        <ele>1755</ele>
        <time>2014-10-20T10:59:47Z</time>
      </trkpt>
      <trkpt lat="45.68728" lon="6.65762">
        <ele>1756</ele>
        <time>2014-10-20T10:59:50Z</time>
      </trkpt>
      <trkpt lat="45.68726" lon="6.65772">
        <ele>1757</ele>
        <time>2014-10-20T10:59:53Z</time>
      </trkpt>
      <trkpt lat="45.68724" lon="6.65777">
        <ele>1758</ele>
        <time>2014-10-20T10:59:55Z</time>
      </trkpt>
      <trkpt lat="45.68721" lon="6.65786">
        <ele>1758</ele>
        <time>2014-10-20T10:59:58Z</time>
      </trkpt>
      <trkpt lat="45.68719" lon="6.65791">
        <ele>1759</ele>
        <time>2014-10-20T11:00:00Z</time>
      </trkpt>
      <trkpt lat="45.68716" lon="6.65795">
        <ele>1760</ele>
        <time>2014-10-20T11:00:02Z</time>
      </trkpt>
      <trkpt lat="45.68713" lon="6.658">
        <ele>1761</ele>
        <time>2014-10-20T11:00:04Z</time>
      </trkpt>
      <trkpt lat="45.6871" lon="6.65804">
        <ele>1762</ele>
        <time>2014-10-20T11:00:06Z</time>
      </trkpt>
      <trkpt lat="45.68707" lon="6.6581">
        <ele>1763</ele>
        <time>2014-10-20T11:00:09Z</time>
      </trkpt>
      <trkpt lat="45.68705" lon="6.65814">
        <ele>1763</ele>
        <time>2014-10-20T11:00:11Z</time>
      </trkpt>
      <trkpt lat="45.68702" lon="6.6582">
        <ele>1764</ele>
        <time>2014-10-20T11:00:14Z</time>
      </trkpt>
      <trkpt lat="45.687" lon="6.65825">
        <ele>1764</ele>
        <time>2014-10-20T11:00:16Z</time>
      </trkpt>
      <trkpt lat="45.68697" lon="6.65832">
        <ele>1765</ele>
        <time>2014-10-20T11:00:19Z</time>
      </trkpt>
      <trkpt lat="45.68695" lon="6.65836">
        <ele>1766</ele>
        <time>2014-10-20T11:00:21Z</time>
      </trkpt>
      <trkpt lat="45.68692" lon="6.6584">
        <ele>1767</ele>
        <time>2014-10-20T11:00:23Z</time>
      </trkpt>
      <trkpt lat="45.68687" lon="6.65847">
        <ele>1768</ele>
        <time>2014-10-20T11:00:26Z</time>
      </trkpt>
      <trkpt lat="45.68685" lon="6.65852">
        <ele>1768</ele>
        <time>2014-10-20T11:00:28Z</time>
      </trkpt>
      <trkpt lat="45.68684" lon="6.65858">
        <ele>1768</ele>
        <time>2014-10-20T11:00:30Z</time>
      </trkpt>
      <trkpt lat="45.6868" lon="6.65865">
        <ele>1769</ele>
        <time>2014-10-20T11:00:33Z</time>
      </trkpt>
      <trkpt lat="45.68678" lon="6.6587">
        <ele>1770</ele>
        <time>2014-10-20T11:00:35Z</time>
      </trkpt>
      <trkpt lat="45.68676" lon="6.65875">
        <ele>1770</ele>
        <time>2014-10-20T11:00:37Z</time>
      </trkpt>
      <trkpt lat="45.68673" lon="6.65882">
        <ele>1771</ele>
        <time>2014-10-20T11:00:40Z</time>
      </trkpt>
      <trkpt lat="45.68671" lon="6.65887">
        <ele>1772</ele>
        <time>2014-10-20T11:00:42Z</time>
      </trkpt>
      <trkpt lat="45.68668" lon="6.65895">
        <ele>1773</ele>
        <time>2014-10-20T11:00:45Z</time>
      </trkpt>
      <trkpt lat="45.68666" lon="6.659">
        <ele>1774</ele>
        <time>2014-10-20T11:00:47Z</time>
      </trkpt>
      <trkpt lat="45.68663" lon="6.65907">
        <ele>1774</ele>
        <time>2014-10-20T11:00:50Z</time>
      </trkpt>
      <trkpt lat="45.68662" lon="6.65913">
        <ele>1775</ele>
        <time>2014-10-20T11:00:52Z</time>
      </trkpt>
      <trkpt lat="45.6866" lon="6.65921">
        <ele>1776</ele>
        <time>2014-10-20T11:00:55Z</time>
      </trkpt>
      <trkpt lat="45.68656" lon="6.65927">
        <ele>1777</ele>
        <time>2014-10-20T11:00:58Z</time>
      </trkpt>
      <trkpt lat="45.68652" lon="6.65933">
        <ele>1778</ele>
        <time>2014-10-20T11:01:01Z</time>
      </trkpt>
      <trkpt lat="45.6865" lon="6.65937">
        <ele>1779</ele>
        <time>2014-10-20T11:01:03Z</time>
      </trkpt>
      <trkpt lat="45.68647" lon="6.65941">
        <ele>1780</ele>
        <time>2014-10-20T11:01:05Z</time>
      </trkpt>
      <trkpt lat="45.68642" lon="6.65946">
        <ele>1780</ele>
        <time>2014-10-20T11:01:08Z</time>
      </trkpt>
      <trkpt lat="45.68639" lon="6.65949">
        <ele>1781</ele>
        <time>2014-10-20T11:01:10Z</time>
      </trkpt>
      <trkpt lat="45.68636" lon="6.65952">
        <ele>1782</ele>
        <time>2014-10-20T11:01:12Z</time>
      </trkpt>
      <trkpt lat="45.68633" lon="6.65955">
        <ele>1782</ele>
        <time>2014-10-20T11:01:14Z</time>
      </trkpt>
      <trkpt lat="45.68631" lon="6.65959">
        <ele>1783</ele>
        <time>2014-10-20T11:01:16Z</time>
      </trkpt>
      <trkpt lat="45.68627" lon="6.65965">
        <ele>1784</ele>
        <time>2014-10-20T11:01:19Z</time>
      </trkpt>
      <trkpt lat="45.68624" lon="6.65969">
        <ele>1785</ele>
        <time>2014-10-20T11:01:21Z</time>
      </trkpt>
      <trkpt lat="45.68622" lon="6.65974">
        <ele>1785</ele>
        <time>2014-10-20T11:01:24Z</time>
      </trkpt>
      <trkpt lat="45.6862" lon="6.65978">
        <ele>1786</ele>
        <time>2014-10-20T11:01:26Z</time>
      </trkpt>
      <trkpt lat="45.68617" lon="6.65985">
        <ele>1786</ele>
        <time>2014-10-20T11:01:29Z</time>
      </trkpt>
      <trkpt lat="45.68615" lon="6.65989">
        <ele>1787</ele>
        <time>2014-10-20T11:01:31Z</time>
      </trkpt>
      <trkpt lat="45.68611" lon="6.65996">
        <ele>1788</ele>
        <time>2014-10-20T11:01:34Z</time>
      </trkpt>
      <trkpt lat="45.68608" lon="6.66">
        <ele>1788</ele>
        <time>2014-10-20T11:01:36Z</time>
      </trkpt>
      <trkpt lat="45.68605" lon="6.66006">
        <ele>1789</ele>
        <time>2014-10-20T11:01:39Z</time>
      </trkpt>
      <trkpt lat="45.68602" lon="6.66011">
        <ele>1789</ele>
        <time>2014-10-20T11:01:41Z</time>
      </trkpt>
      <trkpt lat="45.68599" lon="6.66017">
        <ele>1791</ele>
        <time>2014-10-20T11:01:44Z</time>
      </trkpt>
      <trkpt lat="45.68597" lon="6.6602">
        <ele>1791</ele>
        <time>2014-10-20T11:01:46Z</time>
      </trkpt>
      <trkpt lat="45.68594" lon="6.66025">
        <ele>1792</ele>
        <time>2014-10-20T11:01:49Z</time>
      </trkpt>
      <trkpt lat="45.68592" lon="6.66028">
        <ele>1792</ele>
        <time>2014-10-20T11:01:51Z</time>
      </trkpt>
      <trkpt lat="45.6859" lon="6.66031">
        <ele>1793</ele>
        <time>2014-10-20T11:01:53Z</time>
      </trkpt>
      <trkpt lat="45.68587" lon="6.66037">
        <ele>1793</ele>
        <time>2014-10-20T11:01:56Z</time>
      </trkpt>
      <trkpt lat="45.68584" lon="6.66041">
        <ele>1794</ele>
        <time>2014-10-20T11:01:58Z</time>
      </trkpt>
      <trkpt lat="45.68582" lon="6.66045">
        <ele>1795</ele>
        <time>2014-10-20T11:02:00Z</time>
      </trkpt>
      <trkpt lat="45.6858" lon="6.66049">
        <ele>1796</ele>
        <time>2014-10-20T11:02:02Z</time>
      </trkpt>
      <trkpt lat="45.68579" lon="6.66054">
        <ele>1796</ele>
        <time>2014-10-20T11:02:04Z</time>
      </trkpt>
      <trkpt lat="45.68576" lon="6.66061">
        <ele>1797</ele>
        <time>2014-10-20T11:02:07Z</time>
      </trkpt>
      <trkpt lat="45.68574" lon="6.66065">
        <ele>1798</ele>
        <time>2014-10-20T11:02:09Z</time>
      </trkpt>
      <trkpt lat="45.6857" lon="6.66069">
        <ele>1799</ele>
        <time>2014-10-20T11:02:12Z</time>
      </trkpt>
      <trkpt lat="45.68567" lon="6.66069">
        <ele>1799</ele>
        <time>2014-10-20T11:02:14Z</time>
      </trkpt>
      <trkpt lat="45.68562" lon="6.66066">
        <ele>1800</ele>
        <time>2014-10-20T11:02:17Z</time>
      </trkpt>
      <trkpt lat="45.68559" lon="6.66061">
        <ele>1801</ele>
        <time>2014-10-20T11:02:19Z</time>
      </trkpt>
      <trkpt lat="45.68556" lon="6.66055">
        <ele>1801</ele>
        <time>2014-10-20T11:02:22Z</time>
      </trkpt>
      <trkpt lat="45.68554" lon="6.6605">
        <ele>1801</ele>
        <time>2014-10-20T11:02:24Z</time>
      </trkpt>
      <trkpt lat="45.68549" lon="6.66044">
        <ele>1802</ele>
        <time>2014-10-20T11:02:27Z</time>
      </trkpt>
      <trkpt lat="45.68546" lon="6.66038">
        <ele>1803</ele>
        <time>2014-10-20T11:02:30Z</time>
      </trkpt>
      <trkpt lat="45.68542" lon="6.66032">
        <ele>1804</ele>
        <time>2014-10-20T11:02:33Z</time>
      </trkpt>
      <trkpt lat="45.68538" lon="6.66026">
        <ele>1805</ele>
        <time>2014-10-20T11:02:36Z</time>
      </trkpt>
      <trkpt lat="45.68535" lon="6.66022">
        <ele>1806</ele>
        <time>2014-10-20T11:02:38Z</time>
      </trkpt>
      <trkpt lat="45.68531" lon="6.66016">
        <ele>1806</ele>
        <time>2014-10-20T11:02:41Z</time>
      </trkpt>
      <trkpt lat="45.68526" lon="6.66011">
        <ele>1807</ele>
        <time>2014-10-20T11:02:44Z</time>
      </trkpt>
      <trkpt lat="45.68522" lon="6.66004">
        <ele>1808</ele>
        <time>2014-10-20T11:02:47Z</time>
      </trkpt>
      <trkpt lat="45.68518" lon="6.66">
        <ele>1809</ele>
        <time>2014-10-20T11:02:50Z</time>
      </trkpt>
      <trkpt lat="45.68515" lon="6.65996">
        <ele>1810</ele>
        <time>2014-10-20T11:02:52Z</time>
      </trkpt>
      <trkpt lat="45.68512" lon="6.65993">
        <ele>1810</ele>
        <time>2014-10-20T11:02:54Z</time>
      </trkpt>
      <trkpt lat="45.68509" lon="6.65988">
        <ele>1811</ele>
        <time>2014-10-20T11:02:57Z</time>
      </trkpt>
      <trkpt lat="45.68505" lon="6.65985">
        <ele>1811</ele>
        <time>2014-10-20T11:02:59Z</time>
      </trkpt>
      <trkpt lat="45.68502" lon="6.65982">
        <ele>1812</ele>
        <time>2014-10-20T11:03:01Z</time>
      </trkpt>
      <trkpt lat="45.68497" lon="6.65978">
        <ele>1813</ele>
        <time>2014-10-20T11:03:04Z</time>
      </trkpt>
      <trkpt lat="45.68492" lon="6.65974">
        <ele>1814</ele>
        <time>2014-10-20T11:03:07Z</time>
      </trkpt>
      <trkpt lat="45.68488" lon="6.65971">
        <ele>1815</ele>
        <time>2014-10-20T11:03:09Z</time>
      </trkpt>
      <trkpt lat="45.68482" lon="6.65968">
        <ele>1815</ele>
        <time>2014-10-20T11:03:12Z</time>
      </trkpt>
      <trkpt lat="45.68478" lon="6.65962">
        <ele>1817</ele>
        <time>2014-10-20T11:03:15Z</time>
      </trkpt>
      <trkpt lat="45.68473" lon="6.65956">
        <ele>1818</ele>
        <time>2014-10-20T11:03:18Z</time>
      </trkpt>
      <trkpt lat="45.6847" lon="6.6595">
        <ele>1818</ele>
        <time>2014-10-20T11:03:21Z</time>
      </trkpt>
      <trkpt lat="45.68467" lon="6.65942">
        <ele>1819</ele>
        <time>2014-10-20T11:03:24Z</time>
      </trkpt>
      <trkpt lat="45.68466" lon="6.65933">
        <ele>1819</ele>
        <time>2014-10-20T11:03:27Z</time>
      </trkpt>
      <trkpt lat="45.68467" lon="6.65925">
        <ele>1820</ele>
        <time>2014-10-20T11:03:30Z</time>
      </trkpt>
      <trkpt lat="45.68469" lon="6.65918">
        <ele>1820</ele>
        <time>2014-10-20T11:03:33Z</time>
      </trkpt>
      <trkpt lat="45.68471" lon="6.6591">
        <ele>1822</ele>
        <time>2014-10-20T11:03:36Z</time>
      </trkpt>
      <trkpt lat="45.68473" lon="6.65905">
        <ele>1823</ele>
        <time>2014-10-20T11:03:38Z</time>
      </trkpt>
      <trkpt lat="45.68475" lon="6.65896">
        <ele>1823</ele>
        <time>2014-10-20T11:03:41Z</time>
      </trkpt>
      <trkpt lat="45.68474" lon="6.65888">
        <ele>1824</ele>
        <time>2014-10-20T11:03:43Z</time>
      </trkpt>
      <trkpt lat="45.68473" lon="6.6588">
        <ele>1824</ele>
        <time>2014-10-20T11:03:45Z</time>
      </trkpt>
      <trkpt lat="45.68472" lon="6.65874">
        <ele>1825</ele>
        <time>2014-10-20T11:03:47Z</time>
      </trkpt>
      <trkpt lat="45.6847" lon="6.65866">
        <ele>1826</ele>
        <time>2014-10-20T11:03:50Z</time>
      </trkpt>
      <trkpt lat="45.68465" lon="6.65859">
        <ele>1827</ele>
        <time>2014-10-20T11:03:53Z</time>
      </trkpt>
      <trkpt lat="45.68461" lon="6.65851">
        <ele>1828</ele>
        <time>2014-10-20T11:03:56Z</time>
      </trkpt>
      <trkpt lat="45.68457" lon="6.65845">
        <ele>1828</ele>
        <time>2014-10-20T11:03:59Z</time>
      </trkpt>
      <trkpt lat="45.68453" lon="6.6584">
        <ele>1829</ele>
        <time>2014-10-20T11:04:02Z</time>
      </trkpt>
      <trkpt lat="45.68449" lon="6.65835">
        <ele>1830</ele>
        <time>2014-10-20T11:04:05Z</time>
      </trkpt>
      <trkpt lat="45.68444" lon="6.65831">
        <ele>1831</ele>
        <time>2014-10-20T11:04:08Z</time>
      </trkpt>
      <trkpt lat="45.68439" lon="6.65828">
        <ele>1831</ele>
        <time>2014-10-20T11:04:11Z</time>
      </trkpt>
      <trkpt lat="45.68436" lon="6.65827">
        <ele>1832</ele>
        <time>2014-10-20T11:04:13Z</time>
      </trkpt>
      <trkpt lat="45.68432" lon="6.65827">
        <ele>1833</ele>
        <time>2014-10-20T11:04:15Z</time>
      </trkpt>
      <trkpt lat="45.68427" lon="6.65827">
        <ele>1835</ele>
        <time>2014-10-20T11:04:18Z</time>
      </trkpt>
      <trkpt lat="45.68421" lon="6.65829">
        <ele>1836</ele>
        <time>2014-10-20T11:04:21Z</time>
      </trkpt>
      <trkpt lat="45.68416" lon="6.65831">
        <ele>1836</ele>
        <time>2014-10-20T11:04:24Z</time>
      </trkpt>
      <trkpt lat="45.6841" lon="6.65832">
        <ele>1837</ele>
        <time>2014-10-20T11:04:27Z</time>
      </trkpt>
      <trkpt lat="45.68406" lon="6.65832">
        <ele>1838</ele>
        <time>2014-10-20T11:04:29Z</time>
      </trkpt>
      <trkpt lat="45.684" lon="6.65833">
        <ele>1839</ele>
        <time>2014-10-20T11:04:32Z</time>
      </trkpt>
      <trkpt lat="45.68394" lon="6.65833">
        <ele>1840</ele>
        <time>2014-10-20T11:04:35Z</time>
      </trkpt>
      <trkpt lat="45.68389" lon="6.6583">
        <ele>1841</ele>
        <time>2014-10-20T11:04:38Z</time>
      </trkpt>
      <trkpt lat="45.68385" lon="6.65827">
        <ele>1841</ele>
        <time>2014-10-20T11:04:40Z</time>
      </trkpt>
      <trkpt lat="45.68381" lon="6.65826">
        <ele>1841</ele>
        <time>2014-10-20T11:04:42Z</time>
      </trkpt>
      <trkpt lat="45.68375" lon="6.65824">
        <ele>1842</ele>
        <time>2014-10-20T11:04:45Z</time>
      </trkpt>
      <trkpt lat="45.68369" lon="6.65821">
        <ele>1843</ele>
        <time>2014-10-20T11:04:48Z</time>
      </trkpt>
      <trkpt lat="45.68367" lon="6.65816">
        <ele>1843</ele>
        <time>2014-10-20T11:04:51Z</time>
      </trkpt>
      <trkpt lat="45.68367" lon="6.6581">
        <ele>1844</ele>
        <time>2014-10-20T11:04:53Z</time>
      </trkpt>
      <trkpt lat="45.68368" lon="6.65801">
        <ele>1844</ele>
        <time>2014-10-20T11:04:56Z</time>
      </trkpt>
      <trkpt lat="45.6837" lon="6.65792">
        <ele>1845</ele>
        <time>2014-10-20T11:04:59Z</time>
      </trkpt>
      <trkpt lat="45.6837" lon="6.65785">
        <ele>1846</ele>
        <time>2014-10-20T11:05:01Z</time>
      </trkpt>
      <trkpt lat="45.68368" lon="6.65776">
        <ele>1846</ele>
        <time>2014-10-20T11:05:04Z</time>
      </trkpt>
      <trkpt lat="45.68365" lon="6.65768">
        <ele>1846</ele>
        <time>2014-10-20T11:05:07Z</time>
      </trkpt>
      <trkpt lat="45.68362" lon="6.65763">
        <ele>1848</ele>
        <time>2014-10-20T11:05:10Z</time>
      </trkpt>
      <trkpt lat="45.6836" lon="6.65758">
        <ele>1848</ele>
        <time>2014-10-20T11:05:12Z</time>
      </trkpt>
      <trkpt lat="45.68359" lon="6.65754">
        <ele>1849</ele>
        <time>2014-10-20T11:05:14Z</time>
      </trkpt>
      <trkpt lat="45.68359" lon="6.65747">
        <ele>1850</ele>
        <time>2014-10-20T11:05:17Z</time>
      </trkpt>
      <trkpt lat="45.68359" lon="6.65742">
        <ele>1850</ele>
        <time>2014-10-20T11:05:19Z</time>
      </trkpt>
      <trkpt lat="45.6836" lon="6.65737">
        <ele>1851</ele>
        <time>2014-10-20T11:05:21Z</time>
      </trkpt>
      <trkpt lat="45.68363" lon="6.6573">
        <ele>1852</ele>
        <time>2014-10-20T11:05:24Z</time>
      </trkpt>
      <trkpt lat="45.68365" lon="6.65724">
        <ele>1852</ele>
        <time>2014-10-20T11:05:26Z</time>
      </trkpt>
      <trkpt lat="45.68365" lon="6.65717">
        <ele>1853</ele>
        <time>2014-10-20T11:05:29Z</time>
      </trkpt>
      <trkpt lat="45.68364" lon="6.65712">
        <ele>1853</ele>
        <time>2014-10-20T11:05:31Z</time>
      </trkpt>
      <trkpt lat="45.68362" lon="6.65703">
        <ele>1853</ele>
        <time>2014-10-20T11:05:34Z</time>
      </trkpt>
      <trkpt lat="45.6836" lon="6.65695">
        <ele>1854</ele>
        <time>2014-10-20T11:05:37Z</time>
      </trkpt>
      <trkpt lat="45.68359" lon="6.65689">
        <ele>1855</ele>
        <time>2014-10-20T11:05:39Z</time>
      </trkpt>
      <trkpt lat="45.68358" lon="6.65683">
        <ele>1856</ele>
        <time>2014-10-20T11:05:42Z</time>
      </trkpt>
      <trkpt lat="45.68357" lon="6.65678">
        <ele>1856</ele>
        <time>2014-10-20T11:05:44Z</time>
      </trkpt>
      <trkpt lat="45.68357" lon="6.65671">
        <ele>1857</ele>
        <time>2014-10-20T11:05:47Z</time>
      </trkpt>
      <trkpt lat="45.68358" lon="6.65664">
        <ele>1858</ele>
        <time>2014-10-20T11:05:50Z</time>
      </trkpt>
      <trkpt lat="45.6836" lon="6.65657">
        <ele>1859</ele>
        <time>2014-10-20T11:05:53Z</time>
      </trkpt>
      <trkpt lat="45.68362" lon="6.65648">
        <ele>1860</ele>
        <time>2014-10-20T11:05:56Z</time>
      </trkpt>
      <trkpt lat="45.68363" lon="6.65643">
        <ele>1860</ele>
        <time>2014-10-20T11:05:58Z</time>
      </trkpt>
      <trkpt lat="45.68364" lon="6.65634">
        <ele>1861</ele>
        <time>2014-10-20T11:06:01Z</time>
      </trkpt>
      <trkpt lat="45.68366" lon="6.65626">
        <ele>1862</ele>
        <time>2014-10-20T11:06:04Z</time>
      </trkpt>
      <trkpt lat="45.68368" lon="6.65621">
        <ele>1863</ele>
        <time>2014-10-20T11:06:06Z</time>
      </trkpt>
      <trkpt lat="45.6837" lon="6.65616">
        <ele>1864</ele>
        <time>2014-10-20T11:06:08Z</time>
      </trkpt>
      <trkpt lat="45.68372" lon="6.65607">
        <ele>1864</ele>
        <time>2014-10-20T11:06:11Z</time>
      </trkpt>
      <trkpt lat="45.68375" lon="6.656">
        <ele>1865</ele>
        <time>2014-10-20T11:06:14Z</time>
      </trkpt>
      <trkpt lat="45.68377" lon="6.65595">
        <ele>1866</ele>
        <time>2014-10-20T11:06:16Z</time>
      </trkpt>
      <trkpt lat="45.6838" lon="6.6559">
        <ele>1866</ele>
        <time>2014-10-20T11:06:18Z</time>
      </trkpt>
      <trkpt lat="45.68384" lon="6.65585">
        <ele>1867</ele>
        <time>2014-10-20T11:06:21Z</time>
      </trkpt>
      <trkpt lat="45.68389" lon="6.6558">
        <ele>1868</ele>
        <time>2014-10-20T11:06:24Z</time>
      </trkpt>
      <trkpt lat="45.68392" lon="6.65577">
        <ele>1869</ele>
        <time>2014-10-20T11:06:26Z</time>
      </trkpt>
      <trkpt lat="45.68395" lon="6.6557">
        <ele>1870</ele>
        <time>2014-10-20T11:06:29Z</time>
      </trkpt>
      <trkpt lat="45.68396" lon="6.65564">
        <ele>1870</ele>
        <time>2014-10-20T11:06:31Z</time>
      </trkpt>
      <trkpt lat="45.68395" lon="6.65554">
        <ele>1871</ele>
        <time>2014-10-20T11:06:34Z</time>
      </trkpt>
      <trkpt lat="45.68396" lon="6.65545">
        <ele>1871</ele>
        <time>2014-10-20T11:06:37Z</time>
      </trkpt>
      <trkpt lat="45.68396" lon="6.65539">
        <ele>1871</ele>
        <time>2014-10-20T11:06:39Z</time>
      </trkpt>
      <trkpt lat="45.68398" lon="6.65532">
        <ele>1872</ele>
        <time>2014-10-20T11:06:42Z</time>
      </trkpt>
      <trkpt lat="45.684" lon="6.65528">
        <ele>1873</ele>
        <time>2014-10-20T11:06:44Z</time>
      </trkpt>
      <trkpt lat="45.68402" lon="6.6552">
        <ele>1874</ele>
        <time>2014-10-20T11:06:47Z</time>
      </trkpt>
      <trkpt lat="45.68404" lon="6.65511">
        <ele>1874</ele>
        <time>2014-10-20T11:06:50Z</time>
      </trkpt>
      <trkpt lat="45.68405" lon="6.65506">
        <ele>1875</ele>
        <time>2014-10-20T11:06:52Z</time>
      </trkpt>
      <trkpt lat="45.68406" lon="6.655">
        <ele>1875</ele>
        <time>2014-10-20T11:06:54Z</time>
      </trkpt>
      <trkpt lat="45.68407" lon="6.65495">
        <ele>1876</ele>
        <time>2014-10-20T11:06:56Z</time>
      </trkpt>
      <trkpt lat="45.6841" lon="6.65487">
        <ele>1877</ele>
        <time>2014-10-20T11:06:59Z</time>
      </trkpt>
      <trkpt lat="45.68412" lon="6.65481">
        <ele>1878</ele>
        <time>2014-10-20T11:07:02Z</time>
      </trkpt>
      <trkpt lat="45.68413" lon="6.65476">
        <ele>1878</ele>
        <time>2014-10-20T11:07:04Z</time>
      </trkpt>
      <trkpt lat="45.68415" lon="6.65467">
        <ele>1878</ele>
        <time>2014-10-20T11:07:07Z</time>
      </trkpt>
      <trkpt lat="45.68418" lon="6.65457">
        <ele>1878</ele>
        <time>2014-10-20T11:07:10Z</time>
      </trkpt>
      <trkpt lat="45.68422" lon="6.65452">
        <ele>1878</ele>
        <time>2014-10-20T11:07:12Z</time>
      </trkpt>
      <trkpt lat="45.68427" lon="6.65449">
        <ele>1878</ele>
        <time>2014-10-20T11:07:14Z</time>
      </trkpt>
      <trkpt lat="45.68432" lon="6.65447">
        <ele>1879</ele>
        <time>2014-10-20T11:07:17Z</time>
      </trkpt>
      <trkpt lat="45.68438" lon="6.65446">
        <ele>1879</ele>
        <time>2014-10-20T11:07:20Z</time>
      </trkpt>
      <trkpt lat="45.68443" lon="6.65446">
        <ele>1880</ele>
        <time>2014-10-20T11:07:22Z</time>
      </trkpt>
      <trkpt lat="45.6845" lon="6.65445">
        <ele>1881</ele>
        <time>2014-10-20T11:07:25Z</time>
      </trkpt>
      <trkpt lat="45.68457" lon="6.65447">
        <ele>1882</ele>
        <time>2014-10-20T11:07:28Z</time>
      </trkpt>
      <trkpt lat="45.68464" lon="6.65448">
        <ele>1883</ele>
        <time>2014-10-20T11:07:31Z</time>
      </trkpt>
      <trkpt lat="45.6847" lon="6.65446">
        <ele>1884</ele>
        <time>2014-10-20T11:07:34Z</time>
      </trkpt>
      <trkpt lat="45.68472" lon="6.65441">
        <ele>1884</ele>
        <time>2014-10-20T11:07:36Z</time>
      </trkpt>
      <trkpt lat="45.68471" lon="6.65436">
        <ele>1885</ele>
        <time>2014-10-20T11:07:38Z</time>
      </trkpt>
      <trkpt lat="45.68466" lon="6.6543">
        <ele>1886</ele>
        <time>2014-10-20T11:07:41Z</time>
      </trkpt>
      <trkpt lat="45.68462" lon="6.65428">
        <ele>1886</ele>
        <time>2014-10-20T11:07:43Z</time>
      </trkpt>
      <trkpt lat="45.68456" lon="6.65422">
        <ele>1887</ele>
        <time>2014-10-20T11:07:46Z</time>
      </trkpt>
      <trkpt lat="45.68452" lon="6.65418">
        <ele>1888</ele>
        <time>2014-10-20T11:07:48Z</time>
      </trkpt>
      <trkpt lat="45.68446" lon="6.65412">
        <ele>1889</ele>
        <time>2014-10-20T11:07:51Z</time>
      </trkpt>
      <trkpt lat="45.6844" lon="6.65406">
        <ele>1890</ele>
        <time>2014-10-20T11:07:54Z</time>
      </trkpt>
      <trkpt lat="45.68437" lon="6.65401">
        <ele>1891</ele>
        <time>2014-10-20T11:07:56Z</time>
      </trkpt>
      <trkpt lat="45.68434" lon="6.65392">
        <ele>1892</ele>
        <time>2014-10-20T11:07:59Z</time>
      </trkpt>
      <trkpt lat="45.68433" lon="6.65386">
        <ele>1893</ele>
        <time>2014-10-20T11:08:01Z</time>
      </trkpt>
      <trkpt lat="45.68432" lon="6.65379">
        <ele>1893</ele>
        <time>2014-10-20T11:08:03Z</time>
      </trkpt>
      <trkpt lat="45.68431" lon="6.65369">
        <ele>1894</ele>
        <time>2014-10-20T11:08:06Z</time>
      </trkpt>
      <trkpt lat="45.6843" lon="6.65359">
        <ele>1895</ele>
        <time>2014-10-20T11:08:09Z</time>
      </trkpt>
      <trkpt lat="45.68429" lon="6.6535">
        <ele>1895</ele>
        <time>2014-10-20T11:08:12Z</time>
      </trkpt>
      <trkpt lat="45.68427" lon="6.65342">
        <ele>1896</ele>
        <time>2014-10-20T11:08:15Z</time>
      </trkpt>
      <trkpt lat="45.68425" lon="6.65333">
        <ele>1898</ele>
        <time>2014-10-20T11:08:18Z</time>
      </trkpt>
      <trkpt lat="45.68424" lon="6.65327">
        <ele>1898</ele>
        <time>2014-10-20T11:08:20Z</time>
      </trkpt>
      <trkpt lat="45.68421" lon="6.65319">
        <ele>1899</ele>
        <time>2014-10-20T11:08:23Z</time>
      </trkpt>
      <trkpt lat="45.68419" lon="6.65313">
        <ele>1899</ele>
        <time>2014-10-20T11:08:25Z</time>
      </trkpt>
      <trkpt lat="45.68416" lon="6.65303">
        <ele>1900</ele>
        <time>2014-10-20T11:08:28Z</time>
      </trkpt>
      <trkpt lat="45.68414" lon="6.65296">
        <ele>1901</ele>
        <time>2014-10-20T11:08:30Z</time>
      </trkpt>
      <trkpt lat="45.6841" lon="6.65286">
        <ele>1902</ele>
        <time>2014-10-20T11:08:33Z</time>
      </trkpt>
      <trkpt lat="45.68409" lon="6.6528">
        <ele>1902</ele>
        <time>2014-10-20T11:08:35Z</time>
      </trkpt>
      <trkpt lat="45.68406" lon="6.65271">
        <ele>1903</ele>
        <time>2014-10-20T11:08:38Z</time>
      </trkpt>
      <trkpt lat="45.68404" lon="6.65265">
        <ele>1903</ele>
        <time>2014-10-20T11:08:40Z</time>
      </trkpt>
      <trkpt lat="45.68403" lon="6.65255">
        <ele>1903</ele>
        <time>2014-10-20T11:08:43Z</time>
      </trkpt>
      <trkpt lat="45.68401" lon="6.65247">
        <ele>1904</ele>
        <time>2014-10-20T11:08:45Z</time>
      </trkpt>
      <trkpt lat="45.68392" lon="6.65243">
        <ele>1904</ele>
        <time>2014-10-20T11:08:48Z</time>
      </trkpt>
      <trkpt lat="45.68386" lon="6.65246">
        <ele>1905</ele>
        <time>2014-10-20T11:08:51Z</time>
      </trkpt>
      <trkpt lat="45.68383" lon="6.65249">
        <ele>1905</ele>
        <time>2014-10-20T11:08:53Z</time>
      </trkpt>
      <trkpt lat="45.68377" lon="6.65253">
        <ele>1906</ele>
        <time>2014-10-20T11:08:56Z</time>
      </trkpt>
      <trkpt lat="45.68371" lon="6.65257">
        <ele>1906</ele>
        <time>2014-10-20T11:08:59Z</time>
      </trkpt>
      <trkpt lat="45.68364" lon="6.65258">
        <ele>1907</ele>
        <time>2014-10-20T11:09:02Z</time>
      </trkpt>
      <trkpt lat="45.6836" lon="6.65257">
        <ele>1908</ele>
        <time>2014-10-20T11:09:04Z</time>
      </trkpt>
      <trkpt lat="45.68355" lon="6.65254">
        <ele>1909</ele>
        <time>2014-10-20T11:09:07Z</time>
      </trkpt>
      <trkpt lat="45.68351" lon="6.6525">
        <ele>1910</ele>
        <time>2014-10-20T11:09:09Z</time>
      </trkpt>
      <trkpt lat="45.68345" lon="6.65244">
        <ele>1911</ele>
        <time>2014-10-20T11:09:12Z</time>
      </trkpt>
      <trkpt lat="45.6834" lon="6.65239">
        <ele>1912</ele>
        <time>2014-10-20T11:09:15Z</time>
      </trkpt>
      <trkpt lat="45.68337" lon="6.65236">
        <ele>1913</ele>
        <time>2014-10-20T11:09:17Z</time>
      </trkpt>
      <trkpt lat="45.68332" lon="6.65231">
        <ele>1913</ele>
        <time>2014-10-20T11:09:20Z</time>
      </trkpt>
      <trkpt lat="45.68329" lon="6.65228">
        <ele>1914</ele>
        <time>2014-10-20T11:09:22Z</time>
      </trkpt>
      <trkpt lat="45.68324" lon="6.65221">
        <ele>1915</ele>
        <time>2014-10-20T11:09:25Z</time>
      </trkpt>
      <trkpt lat="45.6832" lon="6.65213">
        <ele>1916</ele>
        <time>2014-10-20T11:09:28Z</time>
      </trkpt>
      <trkpt lat="45.68317" lon="6.65209">
        <ele>1916</ele>
        <time>2014-10-20T11:09:30Z</time>
      </trkpt>
      <trkpt lat="45.68316" lon="6.65204">
        <ele>1917</ele>
        <time>2014-10-20T11:09:32Z</time>
      </trkpt>
      <trkpt lat="45.68314" lon="6.652">
        <ele>1917</ele>
        <time>2014-10-20T11:09:34Z</time>
      </trkpt>
      <trkpt lat="45.68308" lon="6.65193">
        <ele>1918</ele>
        <time>2014-10-20T11:09:38Z</time>
      </trkpt>
      <trkpt lat="45.68307" lon="6.65193">
        <ele>1918</ele>
        <time>2014-10-20T11:09:40Z</time>
      </trkpt>
      <trkpt lat="45.68299" lon="6.65188">
        <ele>1918</ele>
        <time>2014-10-20T11:09:43Z</time>
      </trkpt>
      <trkpt lat="45.68289" lon="6.65182">
        <ele>1918</ele>
        <time>2014-10-20T11:09:45Z</time>
      </trkpt>
      <trkpt lat="45.68275" lon="6.65186">
        <ele>1916</ele>
        <time>2014-10-20T11:09:47Z</time>
      </trkpt>
      <trkpt lat="45.68253" lon="6.65197">
        <ele>1916</ele>
        <time>2014-10-20T11:09:50Z</time>
      </trkpt>
      <trkpt lat="45.68233" lon="6.65192">
        <ele>1914</ele>
        <time>2014-10-20T11:09:53Z</time>
      </trkpt>
      <trkpt lat="45.68221" lon="6.65195">
        <ele>1914</ele>
        <time>2014-10-20T11:09:55Z</time>
      </trkpt>
      <trkpt lat="45.68204" lon="6.65196">
        <ele>1913</ele>
        <time>2014-10-20T11:09:58Z</time>
      </trkpt>
      <trkpt lat="45.68188" lon="6.65194">
        <ele>1913</ele>
        <time>2014-10-20T11:10:00Z</time>
      </trkpt>
      <trkpt lat="45.68179" lon="6.65194">
        <ele>1914</ele>
        <time>2014-10-20T11:10:03Z</time>
      </trkpt>
      <trkpt lat="45.68165" lon="6.65197">
        <ele>1914</ele>
        <time>2014-10-20T11:10:05Z</time>
      </trkpt>
      <trkpt lat="45.68155" lon="6.65192">
        <ele>1914</ele>
        <time>2014-10-20T11:10:08Z</time>
      </trkpt>
      <trkpt lat="45.68142" lon="6.65182">
        <ele>1914</ele>
        <time>2014-10-20T11:10:11Z</time>
      </trkpt>
      <trkpt lat="45.68129" lon="6.65183">
        <ele>1915</ele>
        <time>2014-10-20T11:10:14Z</time>
      </trkpt>
      <trkpt lat="45.68115" lon="6.65178">
        <ele>1916</ele>
        <time>2014-10-20T11:10:17Z</time>
      </trkpt>
      <trkpt lat="45.68104" lon="6.65178">
        <ele>1916</ele>
        <time>2014-10-20T11:10:20Z</time>
      </trkpt>
      <trkpt lat="45.68095" lon="6.65176">
        <ele>1916</ele>
        <time>2014-10-20T11:10:22Z</time>
      </trkpt>
      <trkpt lat="45.68087" lon="6.65175">
        <ele>1916</ele>
        <time>2014-10-20T11:10:25Z</time>
      </trkpt>
      <trkpt lat="45.6808" lon="6.65166">
        <ele>1916</ele>
        <time>2014-10-20T11:10:28Z</time>
      </trkpt>
      <trkpt lat="45.68076" lon="6.65155">
        <ele>1916</ele>
        <time>2014-10-20T11:10:30Z</time>
      </trkpt>
      <trkpt lat="45.68069" lon="6.6514">
        <ele>1916</ele>
        <time>2014-10-20T11:10:33Z</time>
      </trkpt>
      <trkpt lat="45.68063" lon="6.65132">
        <ele>1916</ele>
        <time>2014-10-20T11:10:36Z</time>
      </trkpt>
      <trkpt lat="45.68057" lon="6.65129">
        <ele>1916</ele>
        <time>2014-10-20T11:10:38Z</time>
      </trkpt>
      <trkpt lat="45.68047" lon="6.65124">
        <ele>1914</ele>
        <time>2014-10-20T11:10:40Z</time>
      </trkpt>
      <trkpt lat="45.68043" lon="6.65119">
        <ele>1914</ele>
        <time>2014-10-20T11:10:43Z</time>
      </trkpt>
      <trkpt lat="45.68039" lon="6.65117">
        <ele>1914</ele>
        <time>2014-10-20T11:10:45Z</time>
      </trkpt>
      <trkpt lat="45.68035" lon="6.65112">
        <ele>1916</ele>
        <time>2014-10-20T11:10:47Z</time>
      </trkpt>
      <trkpt lat="45.68032" lon="6.65108">
        <ele>1916</ele>
        <time>2014-10-20T11:10:49Z</time>
      </trkpt>
      <trkpt lat="45.68033" lon="6.65092">
        <ele>1916</ele>
        <time>2014-10-20T11:10:52Z</time>
      </trkpt>
      <trkpt lat="45.68037" lon="6.65064">
        <ele>1915</ele>
        <time>2014-10-20T11:10:55Z</time>
      </trkpt>
      <trkpt lat="45.68031" lon="6.65033">
        <ele>1913</ele>
        <time>2014-10-20T11:10:58Z</time>
      </trkpt>
      <trkpt lat="45.68024" lon="6.65005">
        <ele>1909</ele>
        <time>2014-10-20T11:11:01Z</time>
      </trkpt>
      <trkpt lat="45.68021" lon="6.64993">
        <ele>1906</ele>
        <time>2014-10-20T11:11:03Z</time>
      </trkpt>
      <trkpt lat="45.68013" lon="6.64977">
        <ele>1901</ele>
        <time>2014-10-20T11:11:06Z</time>
      </trkpt>
      <trkpt lat="45.68011" lon="6.64964">
        <ele>1898</ele>
        <time>2014-10-20T11:11:08Z</time>
      </trkpt>
      <trkpt lat="45.68009" lon="6.64944">
        <ele>1895</ele>
        <time>2014-10-20T11:11:11Z</time>
      </trkpt>
      <trkpt lat="45.68002" lon="6.6494">
        <ele>1894</ele>
        <time>2014-10-20T11:11:13Z</time>
      </trkpt>
      <trkpt lat="45.67994" lon="6.64933">
        <ele>1892</ele>
        <time>2014-10-20T11:11:15Z</time>
      </trkpt>
      <trkpt lat="45.67988" lon="6.64911">
        <ele>1888</ele>
        <time>2014-10-20T11:11:18Z</time>
      </trkpt>
      <trkpt lat="45.67979" lon="6.64896">
        <ele>1886</ele>
        <time>2014-10-20T11:11:21Z</time>
      </trkpt>
      <trkpt lat="45.67974" lon="6.6488">
        <ele>1885</ele>
        <time>2014-10-20T11:11:23Z</time>
      </trkpt>
      <trkpt lat="45.67968" lon="6.64855">
        <ele>1882</ele>
        <time>2014-10-20T11:11:26Z</time>
      </trkpt>
      <trkpt lat="45.67966" lon="6.64839">
        <ele>1879</ele>
        <time>2014-10-20T11:11:28Z</time>
      </trkpt>
      <trkpt lat="45.67963" lon="6.64828">
        <ele>1874</ele>
        <time>2014-10-20T11:11:31Z</time>
      </trkpt>
      <trkpt lat="45.67962" lon="6.64822">
        <ele>1872</ele>
        <time>2014-10-20T11:11:34Z</time>
      </trkpt>
      <trkpt lat="45.67969" lon="6.64808">
        <ele>1870</ele>
        <time>2014-10-20T11:11:37Z</time>
      </trkpt>
      <trkpt lat="45.67986" lon="6.6479">
        <ele>1868</ele>
        <time>2014-10-20T11:11:40Z</time>
      </trkpt>
      <trkpt lat="45.68002" lon="6.64779">
        <ele>1866</ele>
        <time>2014-10-20T11:11:43Z</time>
      </trkpt>
      <trkpt lat="45.68013" lon="6.64786">
        <ele>1863</ele>
        <time>2014-10-20T11:11:46Z</time>
      </trkpt>
      <trkpt lat="45.68016" lon="6.64784">
        <ele>1859</ele>
        <time>2014-10-20T11:11:49Z</time>
      </trkpt>
      <trkpt lat="45.68013" lon="6.64766">
        <ele>1857</ele>
        <time>2014-10-20T11:11:52Z</time>
      </trkpt>
      <trkpt lat="45.68007" lon="6.64759">
        <ele>1856</ele>
        <time>2014-10-20T11:11:54Z</time>
      </trkpt>
      <trkpt lat="45.68" lon="6.64758">
        <ele>1855</ele>
        <time>2014-10-20T11:11:57Z</time>
      </trkpt>
      <trkpt lat="45.67997" lon="6.64757">
        <ele>1853</ele>
        <time>2014-10-20T11:12:00Z</time>
      </trkpt>
      <trkpt lat="45.67994" lon="6.64756">
        <ele>1851</ele>
        <time>2014-10-20T11:12:03Z</time>
      </trkpt>
      <trkpt lat="45.67995" lon="6.64754">
        <ele>1851</ele>
        <time>2014-10-20T11:12:05Z</time>
      </trkpt>
      <trkpt lat="45.67995" lon="6.64753">
        <ele>1851</ele>
        <time>2014-10-20T11:12:08Z</time>
      </trkpt>
      <trkpt lat="45.67995" lon="6.64753">
        <ele>1851</ele>
        <time>2014-10-20T11:12:10Z</time>
      </trkpt>
      <trkpt lat="45.67995" lon="6.64753">
        <ele>1851</ele>
        <time>2014-10-20T11:12:13Z</time>
      </trkpt>
      <trkpt lat="45.67994" lon="6.6475">
        <ele>1850</ele>
        <time>2014-10-20T11:12:16Z</time>
      </trkpt>
      <trkpt lat="45.67993" lon="6.6475">
        <ele>1850</ele>
        <time>2014-10-20T11:12:19Z</time>
      </trkpt>
      <trkpt lat="45.67993" lon="6.6475">
        <ele>1850</ele>
        <time>2014-10-20T11:12:21Z</time>
      </trkpt>
      <trkpt lat="45.67994" lon="6.64745">
        <ele>1850</ele>
        <time>2014-10-20T11:12:24Z</time>
      </trkpt>
      <trkpt lat="45.67996" lon="6.64741">
        <ele>1850</ele>
        <time>2014-10-20T11:12:26Z</time>
      </trkpt>
      <trkpt lat="45.67998" lon="6.64738">
        <ele>1850</ele>
        <time>2014-10-20T11:12:28Z</time>
      </trkpt>
      <trkpt lat="45.67999" lon="6.64735">
        <ele>1850</ele>
        <time>2014-10-20T11:12:31Z</time>
      </trkpt>
      <trkpt lat="45.67999" lon="6.64734">
        <ele>1850</ele>
        <time>2014-10-20T11:12:33Z</time>
      </trkpt>
      <trkpt lat="45.67999" lon="6.64733">
        <ele>1851</ele>
        <time>2014-10-20T11:12:36Z</time>
      </trkpt>
      <trkpt lat="45.67999" lon="6.64732">
        <ele>1851</ele>
        <time>2014-10-20T11:12:38Z</time>
      </trkpt>
      <trkpt lat="45.67999" lon="6.64727">
        <ele>1851</ele>
        <time>2014-10-20T11:12:41Z</time>
      </trkpt>
      <trkpt lat="45.67999" lon="6.64723">
        <ele>1851</ele>
        <time>2014-10-20T11:12:43Z</time>
      </trkpt>
      <trkpt lat="45.67997" lon="6.6472">
        <ele>1852</ele>
        <time>2014-10-20T11:12:45Z</time>
      </trkpt>
      <trkpt lat="45.67992" lon="6.64717">
        <ele>1853</ele>
        <time>2014-10-20T11:12:48Z</time>
      </trkpt>
      <trkpt lat="45.67989" lon="6.64714">
        <ele>1853</ele>
        <time>2014-10-20T11:12:50Z</time>
      </trkpt>
      <trkpt lat="45.67985" lon="6.6471">
        <ele>1854</ele>
        <time>2014-10-20T11:12:52Z</time>
      </trkpt>
      <trkpt lat="45.67981" lon="6.64706">
        <ele>1855</ele>
        <time>2014-10-20T11:12:55Z</time>
      </trkpt>
      <trkpt lat="45.67978" lon="6.64703">
        <ele>1856</ele>
        <time>2014-10-20T11:12:57Z</time>
      </trkpt>
      <trkpt lat="45.67973" lon="6.64699">
        <ele>1856</ele>
        <time>2014-10-20T11:13:00Z</time>
      </trkpt>
      <trkpt lat="45.6797" lon="6.64697">
        <ele>1857</ele>
        <time>2014-10-20T11:13:02Z</time>
      </trkpt>
      <trkpt lat="45.67964" lon="6.64693">
        <ele>1858</ele>
        <time>2014-10-20T11:13:05Z</time>
      </trkpt>
      <trkpt lat="45.6796" lon="6.64691">
        <ele>1859</ele>
        <time>2014-10-20T11:13:07Z</time>
      </trkpt>
      <trkpt lat="45.67955" lon="6.64688">
        <ele>1860</ele>
        <time>2014-10-20T11:13:10Z</time>
      </trkpt>
      <trkpt lat="45.67951" lon="6.64685">
        <ele>1861</ele>
        <time>2014-10-20T11:13:13Z</time>
      </trkpt>
      <trkpt lat="45.67949" lon="6.64683">
        <ele>1862</ele>
        <time>2014-10-20T11:13:15Z</time>
      </trkpt>
      <trkpt lat="45.67946" lon="6.6468">
        <ele>1862</ele>
        <time>2014-10-20T11:13:17Z</time>
      </trkpt>
      <trkpt lat="45.67941" lon="6.64677">
        <ele>1863</ele>
        <time>2014-10-20T11:13:20Z</time>
      </trkpt>
      <trkpt lat="45.67938" lon="6.64675">
        <ele>1864</ele>
        <time>2014-10-20T11:13:22Z</time>
      </trkpt>
      <trkpt lat="45.67934" lon="6.64673">
        <ele>1864</ele>
        <time>2014-10-20T11:13:24Z</time>
      </trkpt>
      <trkpt lat="45.6793" lon="6.64673">
        <ele>1866</ele>
        <time>2014-10-20T11:13:27Z</time>
      </trkpt>
      <trkpt lat="45.67926" lon="6.64674">
        <ele>1866</ele>
        <time>2014-10-20T11:13:29Z</time>
      </trkpt>
      <trkpt lat="45.67923" lon="6.64676">
        <ele>1868</ele>
        <time>2014-10-20T11:13:32Z</time>
      </trkpt>
      <trkpt lat="45.6792" lon="6.64679">
        <ele>1868</ele>
        <time>2014-10-20T11:13:35Z</time>
      </trkpt>
      <trkpt lat="45.67916" lon="6.64682">
        <ele>1869</ele>
        <time>2014-10-20T11:13:38Z</time>
      </trkpt>
      <trkpt lat="45.67913" lon="6.64682">
        <ele>1869</ele>
        <time>2014-10-20T11:13:40Z</time>
      </trkpt>
      <trkpt lat="45.67904" lon="6.64682">
        <ele>1869</ele>
        <time>2014-10-20T11:13:43Z</time>
      </trkpt>
      <trkpt lat="45.67897" lon="6.64679">
        <ele>1868</ele>
        <time>2014-10-20T11:13:45Z</time>
      </trkpt>
      <trkpt lat="45.67894" lon="6.64673">
        <ele>1867</ele>
        <time>2014-10-20T11:13:47Z</time>
      </trkpt>
      <trkpt lat="45.67892" lon="6.64666">
        <ele>1867</ele>
        <time>2014-10-20T11:13:50Z</time>
      </trkpt>
      <trkpt lat="45.67891" lon="6.64663">
        <ele>1868</ele>
        <time>2014-10-20T11:13:52Z</time>
      </trkpt>
      <trkpt lat="45.67886" lon="6.64664">
        <ele>1869</ele>
        <time>2014-10-20T11:13:55Z</time>
      </trkpt>
      <trkpt lat="45.67884" lon="6.64665">
        <ele>1869</ele>
        <time>2014-10-20T11:13:57Z</time>
      </trkpt>
      <trkpt lat="45.67881" lon="6.64664">
        <ele>1870</ele>
        <time>2014-10-20T11:14:00Z</time>
      </trkpt>
      <trkpt lat="45.67878" lon="6.64662">
        <ele>1870</ele>
        <time>2014-10-20T11:14:02Z</time>
      </trkpt>
      <trkpt lat="45.67872" lon="6.6466">
        <ele>1871</ele>
        <time>2014-10-20T11:14:05Z</time>
      </trkpt>
      <trkpt lat="45.67869" lon="6.64656">
        <ele>1871</ele>
        <time>2014-10-20T11:14:07Z</time>
      </trkpt>
      <trkpt lat="45.67867" lon="6.64652">
        <ele>1871</ele>
        <time>2014-10-20T11:14:09Z</time>
      </trkpt>
      <trkpt lat="45.67863" lon="6.64647">
        <ele>1871</ele>
        <time>2014-10-20T11:14:12Z</time>
      </trkpt>
      <trkpt lat="45.67862" lon="6.64641">
        <ele>1872</ele>
        <time>2014-10-20T11:14:15Z</time>
      </trkpt>
      <trkpt lat="45.6786" lon="6.64635">
        <ele>1872</ele>
        <time>2014-10-20T11:14:18Z</time>
      </trkpt>
      <trkpt lat="45.6786" lon="6.64627">
        <ele>1873</ele>
        <time>2014-10-20T11:14:21Z</time>
      </trkpt>
      <trkpt lat="45.67861" lon="6.64623">
        <ele>1873</ele>
        <time>2014-10-20T11:14:23Z</time>
      </trkpt>
      <trkpt lat="45.67861" lon="6.64618">
        <ele>1873</ele>
        <time>2014-10-20T11:14:25Z</time>
      </trkpt>
      <trkpt lat="45.67859" lon="6.64613">
        <ele>1873</ele>
        <time>2014-10-20T11:14:27Z</time>
      </trkpt>
      <trkpt lat="45.67857" lon="6.64609">
        <ele>1873</ele>
        <time>2014-10-20T11:14:29Z</time>
      </trkpt>
      <trkpt lat="45.67853" lon="6.64602">
        <ele>1874</ele>
        <time>2014-10-20T11:14:32Z</time>
      </trkpt>
      <trkpt lat="45.67849" lon="6.64596">
        <ele>1874</ele>
        <time>2014-10-20T11:14:35Z</time>
      </trkpt>
      <trkpt lat="45.67845" lon="6.6459">
        <ele>1875</ele>
        <time>2014-10-20T11:14:38Z</time>
      </trkpt>
      <trkpt lat="45.67843" lon="6.64583">
        <ele>1876</ele>
        <time>2014-10-20T11:14:41Z</time>
      </trkpt>
      <trkpt lat="45.67839" lon="6.64579">
        <ele>1877</ele>
        <time>2014-10-20T11:14:44Z</time>
      </trkpt>
      <trkpt lat="45.67835" lon="6.64577">
        <ele>1878</ele>
        <time>2014-10-20T11:14:47Z</time>
      </trkpt>
      <trkpt lat="45.67832" lon="6.64574">
        <ele>1878</ele>
        <time>2014-10-20T11:14:49Z</time>
      </trkpt>
      <trkpt lat="45.67828" lon="6.6457">
        <ele>1879</ele>
        <time>2014-10-20T11:14:52Z</time>
      </trkpt>
      <trkpt lat="45.67823" lon="6.64565">
        <ele>1879</ele>
        <time>2014-10-20T11:14:55Z</time>
      </trkpt>
      <trkpt lat="45.6782" lon="6.64563">
        <ele>1880</ele>
        <time>2014-10-20T11:14:57Z</time>
      </trkpt>
      <trkpt lat="45.67817" lon="6.64559">
        <ele>1880</ele>
        <time>2014-10-20T11:14:59Z</time>
      </trkpt>
      <trkpt lat="45.67813" lon="6.64554">
        <ele>1881</ele>
        <time>2014-10-20T11:15:02Z</time>
      </trkpt>
      <trkpt lat="45.6781" lon="6.64547">
        <ele>1882</ele>
        <time>2014-10-20T11:15:05Z</time>
      </trkpt>
      <trkpt lat="45.67809" lon="6.64543">
        <ele>1882</ele>
        <time>2014-10-20T11:15:07Z</time>
      </trkpt>
      <trkpt lat="45.67807" lon="6.64538">
        <ele>1882</ele>
        <time>2014-10-20T11:15:09Z</time>
      </trkpt>
      <trkpt lat="45.67808" lon="6.64532">
        <ele>1882</ele>
        <time>2014-10-20T11:15:12Z</time>
      </trkpt>
      <trkpt lat="45.67808" lon="6.64528">
        <ele>1883</ele>
        <time>2014-10-20T11:15:14Z</time>
      </trkpt>
      <trkpt lat="45.67807" lon="6.64524">
        <ele>1883</ele>
        <time>2014-10-20T11:15:16Z</time>
      </trkpt>
      <trkpt lat="45.67805" lon="6.64518">
        <ele>1884</ele>
        <time>2014-10-20T11:15:19Z</time>
      </trkpt>
      <trkpt lat="45.67804" lon="6.64512">
        <ele>1885</ele>
        <time>2014-10-20T11:15:22Z</time>
      </trkpt>
      <trkpt lat="45.67802" lon="6.64507">
        <ele>1886</ele>
        <time>2014-10-20T11:15:25Z</time>
      </trkpt>
      <trkpt lat="45.678" lon="6.64503">
        <ele>1887</ele>
        <time>2014-10-20T11:15:27Z</time>
      </trkpt>
      <trkpt lat="45.67798" lon="6.64498">
        <ele>1888</ele>
        <time>2014-10-20T11:15:30Z</time>
      </trkpt>
      <trkpt lat="45.67795" lon="6.64493">
        <ele>1889</ele>
        <time>2014-10-20T11:15:33Z</time>
      </trkpt>
      <trkpt lat="45.67794" lon="6.64489">
        <ele>1890</ele>
        <time>2014-10-20T11:15:35Z</time>
      </trkpt>
      <trkpt lat="45.6779" lon="6.64483">
        <ele>1891</ele>
        <time>2014-10-20T11:15:38Z</time>
      </trkpt>
      <trkpt lat="45.67788" lon="6.64481">
        <ele>1891</ele>
        <time>2014-10-20T11:15:40Z</time>
      </trkpt>
      <trkpt lat="45.67784" lon="6.6448">
        <ele>1891</ele>
        <time>2014-10-20T11:15:42Z</time>
      </trkpt>
      <trkpt lat="45.6778" lon="6.64478">
        <ele>1892</ele>
        <time>2014-10-20T11:15:44Z</time>
      </trkpt>
      <trkpt lat="45.67777" lon="6.64476">
        <ele>1893</ele>
        <time>2014-10-20T11:15:46Z</time>
      </trkpt>
      <trkpt lat="45.67773" lon="6.64475">
        <ele>1894</ele>
        <time>2014-10-20T11:15:49Z</time>
      </trkpt>
      <trkpt lat="45.6777" lon="6.64475">
        <ele>1895</ele>
        <time>2014-10-20T11:15:51Z</time>
      </trkpt>
      <trkpt lat="45.67768" lon="6.64474">
        <ele>1896</ele>
        <time>2014-10-20T11:15:54Z</time>
      </trkpt>
      <trkpt lat="45.67768" lon="6.64474">
        <ele>1896</ele>
        <time>2014-10-20T11:15:56Z</time>
      </trkpt>
      <trkpt lat="45.67767" lon="6.64473">
        <ele>1896</ele>
        <time>2014-10-20T11:16:00Z</time>
      </trkpt>
      <trkpt lat="45.67766" lon="6.64472">
        <ele>1896</ele>
        <time>2014-10-20T11:16:03Z</time>
      </trkpt>
      <trkpt lat="45.67766" lon="6.64472">
        <ele>1897</ele>
        <time>2014-10-20T11:16:06Z</time>
      </trkpt>
      <trkpt lat="45.67764" lon="6.64472">
        <ele>1897</ele>
        <time>2014-10-20T11:16:08Z</time>
      </trkpt>
      <trkpt lat="45.67762" lon="6.64472">
        <ele>1897</ele>
        <time>2014-10-20T11:16:10Z</time>
      </trkpt>
      <trkpt lat="45.67759" lon="6.64472">
        <ele>1896</ele>
        <time>2014-10-20T11:16:13Z</time>
      </trkpt>
      <trkpt lat="45.67756" lon="6.64473">
        <ele>1897</ele>
        <time>2014-10-20T11:16:15Z</time>
      </trkpt>
      <trkpt lat="45.67751" lon="6.64474">
        <ele>1897</ele>
        <time>2014-10-20T11:16:18Z</time>
      </trkpt>
      <trkpt lat="45.67749" lon="6.64473">
        <ele>1898</ele>
        <time>2014-10-20T11:16:20Z</time>
      </trkpt>
      <trkpt lat="45.67746" lon="6.64473">
        <ele>1898</ele>
        <time>2014-10-20T11:16:22Z</time>
      </trkpt>
      <trkpt lat="45.67743" lon="6.64477">
        <ele>1899</ele>
        <time>2014-10-20T11:16:25Z</time>
      </trkpt>
      <trkpt lat="45.6774" lon="6.64481">
        <ele>1899</ele>
        <time>2014-10-20T11:16:27Z</time>
      </trkpt>
      <trkpt lat="45.67734" lon="6.64487">
        <ele>1899</ele>
        <time>2014-10-20T11:16:30Z</time>
      </trkpt>
      <trkpt lat="45.67728" lon="6.64491">
        <ele>1900</ele>
        <time>2014-10-20T11:16:33Z</time>
      </trkpt>
      <trkpt lat="45.67722" lon="6.64493">
        <ele>1900</ele>
        <time>2014-10-20T11:16:36Z</time>
      </trkpt>
      <trkpt lat="45.67716" lon="6.64495">
        <ele>1901</ele>
        <time>2014-10-20T11:16:39Z</time>
      </trkpt>
      <trkpt lat="45.6771" lon="6.64497">
        <ele>1902</ele>
        <time>2014-10-20T11:16:42Z</time>
      </trkpt>
      <trkpt lat="45.67706" lon="6.64499">
        <ele>1902</ele>
        <time>2014-10-20T11:16:44Z</time>
      </trkpt>
      <trkpt lat="45.67699" lon="6.64501">
        <ele>1903</ele>
        <time>2014-10-20T11:16:47Z</time>
      </trkpt>
      <trkpt lat="45.67695" lon="6.64503">
        <ele>1903</ele>
        <time>2014-10-20T11:16:49Z</time>
      </trkpt>
      <trkpt lat="45.67689" lon="6.64506">
        <ele>1904</ele>
        <time>2014-10-20T11:16:52Z</time>
      </trkpt>
      <trkpt lat="45.67685" lon="6.64505">
        <ele>1904</ele>
        <time>2014-10-20T11:16:54Z</time>
      </trkpt>
      <trkpt lat="45.6768" lon="6.64506">
        <ele>1905</ele>
        <time>2014-10-20T11:16:57Z</time>
      </trkpt>
      <trkpt lat="45.67675" lon="6.64504">
        <ele>1906</ele>
        <time>2014-10-20T11:17:00Z</time>
      </trkpt>
      <trkpt lat="45.67673" lon="6.64503">
        <ele>1906</ele>
        <time>2014-10-20T11:17:02Z</time>
      </trkpt>
      <trkpt lat="45.6767" lon="6.64501">
        <ele>1907</ele>
        <time>2014-10-20T11:17:04Z</time>
      </trkpt>
      <trkpt lat="45.67667" lon="6.64499">
        <ele>1907</ele>
        <time>2014-10-20T11:17:06Z</time>
      </trkpt>
      <trkpt lat="45.67659" lon="6.64491">
        <ele>1906</ele>
        <time>2014-10-20T11:17:09Z</time>
      </trkpt>
      <trkpt lat="45.67653" lon="6.64482">
        <ele>1906</ele>
        <time>2014-10-20T11:17:11Z</time>
      </trkpt>
      <trkpt lat="45.67641" lon="6.64469">
        <ele>1905</ele>
        <time>2014-10-20T11:17:14Z</time>
      </trkpt>
      <trkpt lat="45.6763" lon="6.64466">
        <ele>1904</ele>
        <time>2014-10-20T11:17:17Z</time>
      </trkpt>
      <trkpt lat="45.67626" lon="6.64464">
        <ele>1903</ele>
        <time>2014-10-20T11:17:19Z</time>
      </trkpt>
      <trkpt lat="45.67622" lon="6.64457">
        <ele>1901</ele>
        <time>2014-10-20T11:17:22Z</time>
      </trkpt>
      <trkpt lat="45.67622" lon="6.6445">
        <ele>1900</ele>
        <time>2014-10-20T11:17:24Z</time>
      </trkpt>
      <trkpt lat="45.67622" lon="6.64437">
        <ele>1899</ele>
        <time>2014-10-20T11:17:27Z</time>
      </trkpt>
      <trkpt lat="45.67617" lon="6.64429">
        <ele>1899</ele>
        <time>2014-10-20T11:17:29Z</time>
      </trkpt>
      <trkpt lat="45.6761" lon="6.64424">
        <ele>1898</ele>
        <time>2014-10-20T11:17:32Z</time>
      </trkpt>
      <trkpt lat="45.67603" lon="6.64432">
        <ele>1896</ele>
        <time>2014-10-20T11:17:34Z</time>
      </trkpt>
      <trkpt lat="45.67588" lon="6.64453">
        <ele>1894</ele>
        <time>2014-10-20T11:17:37Z</time>
      </trkpt>
      <trkpt lat="45.67572" lon="6.64466">
        <ele>1891</ele>
        <time>2014-10-20T11:17:40Z</time>
      </trkpt>
      <trkpt lat="45.67562" lon="6.64474">
        <ele>1888</ele>
        <time>2014-10-20T11:17:43Z</time>
      </trkpt>
      <trkpt lat="45.67558" lon="6.64462">
        <ele>1885</ele>
        <time>2014-10-20T11:17:46Z</time>
      </trkpt>
      <trkpt lat="45.67559" lon="6.64446">
        <ele>1884</ele>
        <time>2014-10-20T11:17:48Z</time>
      </trkpt>
      <trkpt lat="45.67567" lon="6.6442">
        <ele>1884</ele>
        <time>2014-10-20T11:17:51Z</time>
      </trkpt>
      <trkpt lat="45.67573" lon="6.644">
        <ele>1883</ele>
        <time>2014-10-20T11:17:53Z</time>
      </trkpt>
      <trkpt lat="45.67577" lon="6.64369">
        <ele>1883</ele>
        <time>2014-10-20T11:17:56Z</time>
      </trkpt>
      <trkpt lat="45.67574" lon="6.64351">
        <ele>1879</ele>
        <time>2014-10-20T11:17:59Z</time>
      </trkpt>
      <trkpt lat="45.67571" lon="6.64358">
        <ele>1877</ele>
        <time>2014-10-20T11:18:01Z</time>
      </trkpt>
      <trkpt lat="45.67566" lon="6.64372">
        <ele>1875</ele>
        <time>2014-10-20T11:18:03Z</time>
      </trkpt>
      <trkpt lat="45.67557" lon="6.64388">
        <ele>1873</ele>
        <time>2014-10-20T11:18:05Z</time>
      </trkpt>
      <trkpt lat="45.67549" lon="6.64404">
        <ele>1872</ele>
        <time>2014-10-20T11:18:07Z</time>
      </trkpt>
      <trkpt lat="45.67539" lon="6.64421">
        <ele>1871</ele>
        <time>2014-10-20T11:18:10Z</time>
      </trkpt>
      <trkpt lat="45.67534" lon="6.64432">
        <ele>1870</ele>
        <time>2014-10-20T11:18:12Z</time>
      </trkpt>
      <trkpt lat="45.6753" lon="6.64443">
        <ele>1869</ele>
        <time>2014-10-20T11:18:15Z</time>
      </trkpt>
      <trkpt lat="45.67526" lon="6.64447">
        <ele>1869</ele>
        <time>2014-10-20T11:18:17Z</time>
      </trkpt>
      <trkpt lat="45.67521" lon="6.64443">
        <ele>1870</ele>
        <time>2014-10-20T11:18:20Z</time>
      </trkpt>
      <trkpt lat="45.67519" lon="6.64441">
        <ele>1870</ele>
        <time>2014-10-20T11:18:22Z</time>
      </trkpt>
      <trkpt lat="45.67515" lon="6.64441">
        <ele>1870</ele>
        <time>2014-10-20T11:18:24Z</time>
      </trkpt>
      <trkpt lat="45.67509" lon="6.64443">
        <ele>1871</ele>
        <time>2014-10-20T11:18:27Z</time>
      </trkpt>
      <trkpt lat="45.67503" lon="6.64446">
        <ele>1871</ele>
        <time>2014-10-20T11:18:29Z</time>
      </trkpt>
      <trkpt lat="45.67493" lon="6.64443">
        <ele>1870</ele>
        <time>2014-10-20T11:18:32Z</time>
      </trkpt>
      <trkpt lat="45.67483" lon="6.64434">
        <ele>1870</ele>
        <time>2014-10-20T11:18:35Z</time>
      </trkpt>
      <trkpt lat="45.67483" lon="6.64423">
        <ele>1870</ele>
        <time>2014-10-20T11:18:37Z</time>
      </trkpt>
      <trkpt lat="45.67479" lon="6.64398">
        <ele>1869</ele>
        <time>2014-10-20T11:18:40Z</time>
      </trkpt>
      <trkpt lat="45.67475" lon="6.64378">
        <ele>1868</ele>
        <time>2014-10-20T11:18:42Z</time>
      </trkpt>
      <trkpt lat="45.67467" lon="6.64361">
        <ele>1867</ele>
        <time>2014-10-20T11:18:44Z</time>
      </trkpt>
      <trkpt lat="45.6746" lon="6.64351">
        <ele>1866</ele>
        <time>2014-10-20T11:18:46Z</time>
      </trkpt>
      <trkpt lat="45.67451" lon="6.64345">
        <ele>1865</ele>
        <time>2014-10-20T11:18:49Z</time>
      </trkpt>
      <trkpt lat="45.67448" lon="6.64341">
        <ele>1865</ele>
        <time>2014-10-20T11:18:51Z</time>
      </trkpt>
      <trkpt lat="45.67437" lon="6.64335">
        <ele>1864</ele>
        <time>2014-10-20T11:18:54Z</time>
      </trkpt>
      <trkpt lat="45.6743" lon="6.64331">
        <ele>1863</ele>
        <time>2014-10-20T11:18:56Z</time>
      </trkpt>
      <trkpt lat="45.67426" lon="6.64328">
        <ele>1862</ele>
        <time>2014-10-20T11:18:58Z</time>
      </trkpt>
      <trkpt lat="45.67421" lon="6.6432">
        <ele>1862</ele>
        <time>2014-10-20T11:19:01Z</time>
      </trkpt>
      <trkpt lat="45.67415" lon="6.64317">
        <ele>1862</ele>
        <time>2014-10-20T11:19:04Z</time>
      </trkpt>
      <trkpt lat="45.67409" lon="6.64313">
        <ele>1863</ele>
        <time>2014-10-20T11:19:07Z</time>
      </trkpt>
      <trkpt lat="45.67402" lon="6.64307">
        <ele>1864</ele>
        <time>2014-10-20T11:19:10Z</time>
      </trkpt>
      <trkpt lat="45.67394" lon="6.64305">
        <ele>1864</ele>
        <time>2014-10-20T11:19:13Z</time>
      </trkpt>
      <trkpt lat="45.67389" lon="6.643">
        <ele>1864</ele>
        <time>2014-10-20T11:19:15Z</time>
      </trkpt>
      <trkpt lat="45.6738" lon="6.64295">
        <ele>1864</ele>
        <time>2014-10-20T11:19:18Z</time>
      </trkpt>
      <trkpt lat="45.67373" lon="6.64293">
        <ele>1865</ele>
        <time>2014-10-20T11:19:21Z</time>
      </trkpt>
      <trkpt lat="45.67366" lon="6.64291">
        <ele>1865</ele>
        <time>2014-10-20T11:19:24Z</time>
      </trkpt>
      <trkpt lat="45.67363" lon="6.64289">
        <ele>1866</ele>
        <time>2014-10-20T11:19:26Z</time>
      </trkpt>
      <trkpt lat="45.67355" lon="6.64287">
        <ele>1867</ele>
        <time>2014-10-20T11:19:29Z</time>
      </trkpt>
      <trkpt lat="45.67351" lon="6.64286">
        <ele>1868</ele>
        <time>2014-10-20T11:19:31Z</time>
      </trkpt>
      <trkpt lat="45.67344" lon="6.64283">
        <ele>1869</ele>
        <time>2014-10-20T11:19:34Z</time>
      </trkpt>
      <trkpt lat="45.67337" lon="6.64281">
        <ele>1869</ele>
        <time>2014-10-20T11:19:36Z</time>
      </trkpt>
      <trkpt lat="45.67331" lon="6.64276">
        <ele>1870</ele>
        <time>2014-10-20T11:19:39Z</time>
      </trkpt>
      <trkpt lat="45.67326" lon="6.64273">
        <ele>1871</ele>
        <time>2014-10-20T11:19:41Z</time>
      </trkpt>
      <trkpt lat="45.67321" lon="6.64271">
        <ele>1871</ele>
        <time>2014-10-20T11:19:43Z</time>
      </trkpt>
      <trkpt lat="45.67314" lon="6.64268">
        <ele>1872</ele>
        <time>2014-10-20T11:19:46Z</time>
      </trkpt>
      <trkpt lat="45.67307" lon="6.64267">
        <ele>1872</ele>
        <time>2014-10-20T11:19:49Z</time>
      </trkpt>
      <trkpt lat="45.67302" lon="6.64267">
        <ele>1872</ele>
        <time>2014-10-20T11:19:51Z</time>
      </trkpt>
      <trkpt lat="45.67294" lon="6.64267">
        <ele>1873</ele>
        <time>2014-10-20T11:19:54Z</time>
      </trkpt>
      <trkpt lat="45.67289" lon="6.64266">
        <ele>1873</ele>
        <time>2014-10-20T11:19:56Z</time>
      </trkpt>
      <trkpt lat="45.67285" lon="6.64264">
        <ele>1873</ele>
        <time>2014-10-20T11:19:58Z</time>
      </trkpt>
      <trkpt lat="45.67273" lon="6.64262">
        <ele>1873</ele>
        <time>2014-10-20T11:20:01Z</time>
      </trkpt>
      <trkpt lat="45.67256" lon="6.64261">
        <ele>1873</ele>
        <time>2014-10-20T11:20:04Z</time>
      </trkpt>
      <trkpt lat="45.67243" lon="6.64255">
        <ele>1872</ele>
        <time>2014-10-20T11:20:06Z</time>
      </trkpt>
      <trkpt lat="45.67223" lon="6.64247">
        <ele>1871</ele>
        <time>2014-10-20T11:20:09Z</time>
      </trkpt>
      <trkpt lat="45.67205" lon="6.64239">
        <ele>1870</ele>
        <time>2014-10-20T11:20:12Z</time>
      </trkpt>
      <trkpt lat="45.67197" lon="6.64233">
        <ele>1867</ele>
        <time>2014-10-20T11:20:14Z</time>
      </trkpt>
      <trkpt lat="45.67189" lon="6.64228">
        <ele>1864</ele>
        <time>2014-10-20T11:20:17Z</time>
      </trkpt>
      <trkpt lat="45.67178" lon="6.64223">
        <ele>1860</ele>
        <time>2014-10-20T11:20:20Z</time>
      </trkpt>
      <trkpt lat="45.67171" lon="6.64214">
        <ele>1859</ele>
        <time>2014-10-20T11:20:23Z</time>
      </trkpt>
      <trkpt lat="45.67161" lon="6.6421">
        <ele>1858</ele>
        <time>2014-10-20T11:20:26Z</time>
      </trkpt>
      <trkpt lat="45.67154" lon="6.64206">
        <ele>1858</ele>
        <time>2014-10-20T11:20:28Z</time>
      </trkpt>
      <trkpt lat="45.67143" lon="6.64201">
        <ele>1856</ele>
        <time>2014-10-20T11:20:31Z</time>
      </trkpt>
      <trkpt lat="45.67138" lon="6.64199">
        <ele>1855</ele>
        <time>2014-10-20T11:20:33Z</time>
      </trkpt>
      <trkpt lat="45.67136" lon="6.64199">
        <ele>1852</ele>
        <time>2014-10-20T11:20:36Z</time>
      </trkpt>
      <trkpt lat="45.67135" lon="6.64199">
        <ele>1851</ele>
        <time>2014-10-20T11:20:39Z</time>
      </trkpt>
      <trkpt lat="45.67134" lon="6.64199">
        <ele>1851</ele>
        <time>2014-10-20T11:20:42Z</time>
      </trkpt>
      <trkpt lat="45.67134" lon="6.64199">
        <ele>1850</ele>
        <time>2014-10-20T11:20:46Z</time>
      </trkpt>
      <trkpt lat="45.67134" lon="6.64199">
        <ele>1850</ele>
        <time>2014-10-20T11:20:52Z</time>
      </trkpt>
      <trkpt lat="45.67134" lon="6.64199">
        <ele>1851</ele>
        <time>2014-10-20T11:20:55Z</time>
      </trkpt>
      <trkpt lat="45.67134" lon="6.64199">
        <ele>1851</ele>
        <time>2014-10-20T11:20:58Z</time>
      </trkpt>
      <trkpt lat="45.67134" lon="6.64199">
        <ele>1850</ele>
        <time>2014-10-20T11:21:02Z</time>
      </trkpt>
      <trkpt lat="45.67133" lon="6.64198">
        <ele>1850</ele>
        <time>2014-10-20T11:21:05Z</time>
      </trkpt>
      <trkpt lat="45.67131" lon="6.64195">
        <ele>1850</ele>
        <time>2014-10-20T11:21:08Z</time>
      </trkpt>
      <trkpt lat="45.67131" lon="6.64194">
        <ele>1849</ele>
        <time>2014-10-20T11:21:10Z</time>
      </trkpt>
      <trkpt lat="45.67132" lon="6.6419">
        <ele>1848</ele>
        <time>2014-10-20T11:21:13Z</time>
      </trkpt>
      <trkpt lat="45.67133" lon="6.64188">
        <ele>1847</ele>
        <time>2014-10-20T11:21:15Z</time>
      </trkpt>
      <trkpt lat="45.67133" lon="6.64185">
        <ele>1846</ele>
        <time>2014-10-20T11:21:17Z</time>
      </trkpt>
      <trkpt lat="45.67132" lon="6.64184">
        <ele>1845</ele>
        <time>2014-10-20T11:21:19Z</time>
      </trkpt>
      <trkpt lat="45.67131" lon="6.64183">
        <ele>1845</ele>
        <time>2014-10-20T11:21:22Z</time>
      </trkpt>
      <trkpt lat="45.6713" lon="6.64177">
        <ele>1844</ele>
        <time>2014-10-20T11:21:25Z</time>
      </trkpt>
      <trkpt lat="45.67129" lon="6.64168">
        <ele>1843</ele>
        <time>2014-10-20T11:21:28Z</time>
      </trkpt>
      <trkpt lat="45.67127" lon="6.6416">
        <ele>1842</ele>
        <time>2014-10-20T11:21:31Z</time>
      </trkpt>
      <trkpt lat="45.67126" lon="6.64157">
        <ele>1842</ele>
        <time>2014-10-20T11:21:33Z</time>
      </trkpt>
      <trkpt lat="45.67127" lon="6.64152">
        <ele>1840</ele>
        <time>2014-10-20T11:21:36Z</time>
      </trkpt>
      <trkpt lat="45.67128" lon="6.6415">
        <ele>1839</ele>
        <time>2014-10-20T11:21:38Z</time>
      </trkpt>
      <trkpt lat="45.67128" lon="6.6415">
        <ele>1838</ele>
        <time>2014-10-20T11:21:40Z</time>
      </trkpt>
      <trkpt lat="45.67128" lon="6.64149">
        <ele>1837</ele>
        <time>2014-10-20T11:21:43Z</time>
      </trkpt>
      <trkpt lat="45.67128" lon="6.64148">
        <ele>1837</ele>
        <time>2014-10-20T11:21:46Z</time>
      </trkpt>
      <trkpt lat="45.67128" lon="6.64145">
        <ele>1837</ele>
        <time>2014-10-20T11:21:49Z</time>
      </trkpt>
      <trkpt lat="45.67128" lon="6.64144">
        <ele>1836</ele>
        <time>2014-10-20T11:21:51Z</time>
      </trkpt>
      <trkpt lat="45.67127" lon="6.64144">
        <ele>1836</ele>
        <time>2014-10-20T11:21:54Z</time>
      </trkpt>
      <trkpt lat="45.67127" lon="6.64143">
        <ele>1836</ele>
        <time>2014-10-20T11:21:56Z</time>
      </trkpt>
      <trkpt lat="45.67126" lon="6.64142">
        <ele>1835</ele>
        <time>2014-10-20T11:21:59Z</time>
      </trkpt>
      <trkpt lat="45.67126" lon="6.64141">
        <ele>1835</ele>
        <time>2014-10-20T11:22:01Z</time>
      </trkpt>
      <trkpt lat="45.67125" lon="6.6414">
        <ele>1835</ele>
        <time>2014-10-20T11:22:04Z</time>
      </trkpt>
      <trkpt lat="45.67125" lon="6.64139">
        <ele>1834</ele>
        <time>2014-10-20T11:22:06Z</time>
      </trkpt>
      <trkpt lat="45.67125" lon="6.64135">
        <ele>1834</ele>
        <time>2014-10-20T11:22:09Z</time>
      </trkpt>
      <trkpt lat="45.67119" lon="6.64127">
        <ele>1833</ele>
        <time>2014-10-20T11:22:11Z</time>
      </trkpt>
      <trkpt lat="45.67112" lon="6.64122">
        <ele>1833</ele>
        <time>2014-10-20T11:22:13Z</time>
      </trkpt>
      <trkpt lat="45.67101" lon="6.6412">
        <ele>1832</ele>
        <time>2014-10-20T11:22:16Z</time>
      </trkpt>
      <trkpt lat="45.67095" lon="6.6412">
        <ele>1832</ele>
        <time>2014-10-20T11:22:18Z</time>
      </trkpt>
      <trkpt lat="45.67088" lon="6.6412">
        <ele>1832</ele>
        <time>2014-10-20T11:22:21Z</time>
      </trkpt>
      <trkpt lat="45.67084" lon="6.64121">
        <ele>1832</ele>
        <time>2014-10-20T11:22:23Z</time>
      </trkpt>
      <trkpt lat="45.6708" lon="6.64121">
        <ele>1833</ele>
        <time>2014-10-20T11:22:25Z</time>
      </trkpt>
      <trkpt lat="45.67073" lon="6.64121">
        <ele>1834</ele>
        <time>2014-10-20T11:22:28Z</time>
      </trkpt>
      <trkpt lat="45.67067" lon="6.64123">
        <ele>1834</ele>
        <time>2014-10-20T11:22:31Z</time>
      </trkpt>
      <trkpt lat="45.67064" lon="6.6412">
        <ele>1835</ele>
        <time>2014-10-20T11:22:33Z</time>
      </trkpt>
      <trkpt lat="45.67058" lon="6.64116">
        <ele>1836</ele>
        <time>2014-10-20T11:22:36Z</time>
      </trkpt>
      <trkpt lat="45.67055" lon="6.64115">
        <ele>1837</ele>
        <time>2014-10-20T11:22:38Z</time>
      </trkpt>
      <trkpt lat="45.67051" lon="6.64109">
        <ele>1837</ele>
        <time>2014-10-20T11:22:41Z</time>
      </trkpt>
      <trkpt lat="45.6705" lon="6.64104">
        <ele>1838</ele>
        <time>2014-10-20T11:22:43Z</time>
      </trkpt>
      <trkpt lat="45.6705" lon="6.64099">
        <ele>1838</ele>
        <time>2014-10-20T11:22:45Z</time>
      </trkpt>
      <trkpt lat="45.67049" lon="6.64092">
        <ele>1839</ele>
        <time>2014-10-20T11:22:48Z</time>
      </trkpt>
      <trkpt lat="45.67047" lon="6.64084">
        <ele>1839</ele>
        <time>2014-10-20T11:22:50Z</time>
      </trkpt>
      <trkpt lat="45.67045" lon="6.64074">
        <ele>1838</ele>
        <time>2014-10-20T11:22:53Z</time>
      </trkpt>
      <trkpt lat="45.67044" lon="6.64069">
        <ele>1837</ele>
        <time>2014-10-20T11:22:55Z</time>
      </trkpt>
      <trkpt lat="45.67041" lon="6.6406">
        <ele>1836</ele>
        <time>2014-10-20T11:22:58Z</time>
      </trkpt>
      <trkpt lat="45.67038" lon="6.6405">
        <ele>1835</ele>
        <time>2014-10-20T11:23:01Z</time>
      </trkpt>
      <trkpt lat="45.67036" lon="6.64044">
        <ele>1835</ele>
        <time>2014-10-20T11:23:03Z</time>
      </trkpt>
      <trkpt lat="45.67034" lon="6.64037">
        <ele>1836</ele>
        <time>2014-10-20T11:23:05Z</time>
      </trkpt>
      <trkpt lat="45.67028" lon="6.64021">
        <ele>1835</ele>
        <time>2014-10-20T11:23:08Z</time>
      </trkpt>
      <trkpt lat="45.67019" lon="6.64006">
        <ele>1835</ele>
        <time>2014-10-20T11:23:11Z</time>
      </trkpt>
      <trkpt lat="45.67014" lon="6.63995">
        <ele>1834</ele>
        <time>2014-10-20T11:23:14Z</time>
      </trkpt>
      <trkpt lat="45.6701" lon="6.63986">
        <ele>1834</ele>
        <time>2014-10-20T11:23:16Z</time>
      </trkpt>
      <trkpt lat="45.67006" lon="6.63975">
        <ele>1834</ele>
        <time>2014-10-20T11:23:18Z</time>
      </trkpt>
      <trkpt lat="45.67001" lon="6.63966">
        <ele>1834</ele>
        <time>2014-10-20T11:23:21Z</time>
      </trkpt>
      <trkpt lat="45.66998" lon="6.63963">
        <ele>1835</ele>
        <time>2014-10-20T11:23:23Z</time>
      </trkpt>
      <trkpt lat="45.66994" lon="6.63958">
        <ele>1835</ele>
        <time>2014-10-20T11:23:25Z</time>
      </trkpt>
      <trkpt lat="45.66991" lon="6.63956">
        <ele>1835</ele>
        <time>2014-10-20T11:23:27Z</time>
      </trkpt>
      <trkpt lat="45.66987" lon="6.63954">
        <ele>1836</ele>
        <time>2014-10-20T11:23:29Z</time>
      </trkpt>
      <trkpt lat="45.66983" lon="6.63951">
        <ele>1836</ele>
        <time>2014-10-20T11:23:31Z</time>
      </trkpt>
      <trkpt lat="45.66978" lon="6.63943">
        <ele>1837</ele>
        <time>2014-10-20T11:23:34Z</time>
      </trkpt>
      <trkpt lat="45.66973" lon="6.63941">
        <ele>1837</ele>
        <time>2014-10-20T11:23:36Z</time>
      </trkpt>
      <trkpt lat="45.66969" lon="6.6394">
        <ele>1837</ele>
        <time>2014-10-20T11:23:38Z</time>
      </trkpt>
      <trkpt lat="45.66964" lon="6.63936">
        <ele>1837</ele>
        <time>2014-10-20T11:23:40Z</time>
      </trkpt>
      <trkpt lat="45.66957" lon="6.63934">
        <ele>1838</ele>
        <time>2014-10-20T11:23:42Z</time>
      </trkpt>
      <trkpt lat="45.66952" lon="6.63932">
        <ele>1838</ele>
        <time>2014-10-20T11:23:45Z</time>
      </trkpt>
      <trkpt lat="45.66944" lon="6.63927">
        <ele>1837</ele>
        <time>2014-10-20T11:23:48Z</time>
      </trkpt>
      <trkpt lat="45.66939" lon="6.63926">
        <ele>1836</ele>
        <time>2014-10-20T11:23:50Z</time>
      </trkpt>
      <trkpt lat="45.66934" lon="6.63919">
        <ele>1835</ele>
        <time>2014-10-20T11:23:53Z</time>
      </trkpt>
      <trkpt lat="45.66928" lon="6.63914">
        <ele>1834</ele>
        <time>2014-10-20T11:23:56Z</time>
      </trkpt>
      <trkpt lat="45.66925" lon="6.63908">
        <ele>1835</ele>
        <time>2014-10-20T11:23:59Z</time>
      </trkpt>
      <trkpt lat="45.66923" lon="6.63904">
        <ele>1836</ele>
        <time>2014-10-20T11:24:01Z</time>
      </trkpt>
      <trkpt lat="45.66921" lon="6.639">
        <ele>1837</ele>
        <time>2014-10-20T11:24:03Z</time>
      </trkpt>
      <trkpt lat="45.66919" lon="6.63894">
        <ele>1837</ele>
        <time>2014-10-20T11:24:05Z</time>
      </trkpt>
      <trkpt lat="45.66915" lon="6.63886">
        <ele>1838</ele>
        <time>2014-10-20T11:24:07Z</time>
      </trkpt>
      <trkpt lat="45.6691" lon="6.63879">
        <ele>1837</ele>
        <time>2014-10-20T11:24:09Z</time>
      </trkpt>
      <trkpt lat="45.66906" lon="6.63875">
        <ele>1837</ele>
        <time>2014-10-20T11:24:11Z</time>
      </trkpt>
      <trkpt lat="45.66905" lon="6.63868">
        <ele>1837</ele>
        <time>2014-10-20T11:24:13Z</time>
      </trkpt>
      <trkpt lat="45.66903" lon="6.63858">
        <ele>1837</ele>
        <time>2014-10-20T11:24:16Z</time>
      </trkpt>
      <trkpt lat="45.66904" lon="6.63852">
        <ele>1837</ele>
        <time>2014-10-20T11:24:18Z</time>
      </trkpt>
      <trkpt lat="45.66905" lon="6.63839">
        <ele>1838</ele>
        <time>2014-10-20T11:24:21Z</time>
      </trkpt>
      <trkpt lat="45.66904" lon="6.63829">
        <ele>1838</ele>
        <time>2014-10-20T11:24:23Z</time>
      </trkpt>
      <trkpt lat="45.66898" lon="6.6382">
        <ele>1838</ele>
        <time>2014-10-20T11:24:25Z</time>
      </trkpt>
      <trkpt lat="45.66893" lon="6.63811">
        <ele>1837</ele>
        <time>2014-10-20T11:24:27Z</time>
      </trkpt>
      <trkpt lat="45.66882" lon="6.63797">
        <ele>1837</ele>
        <time>2014-10-20T11:24:30Z</time>
      </trkpt>
      <trkpt lat="45.66872" lon="6.63782">
        <ele>1837</ele>
        <time>2014-10-20T11:24:33Z</time>
      </trkpt>
      <trkpt lat="45.66866" lon="6.63772">
        <ele>1837</ele>
        <time>2014-10-20T11:24:35Z</time>
      </trkpt>
      <trkpt lat="45.66859" lon="6.63758">
        <ele>1837</ele>
        <time>2014-10-20T11:24:38Z</time>
      </trkpt>
      <trkpt lat="45.66855" lon="6.6375">
        <ele>1837</ele>
        <time>2014-10-20T11:24:40Z</time>
      </trkpt>
      <trkpt lat="45.66851" lon="6.63743">
        <ele>1837</ele>
        <time>2014-10-20T11:24:42Z</time>
      </trkpt>
      <trkpt lat="45.66842" lon="6.63737">
        <ele>1837</ele>
        <time>2014-10-20T11:24:45Z</time>
      </trkpt>
      <trkpt lat="45.66836" lon="6.63733">
        <ele>1837</ele>
        <time>2014-10-20T11:24:47Z</time>
      </trkpt>
      <trkpt lat="45.66828" lon="6.63732">
        <ele>1837</ele>
        <time>2014-10-20T11:24:49Z</time>
      </trkpt>
      <trkpt lat="45.66822" lon="6.63735">
        <ele>1837</ele>
        <time>2014-10-20T11:24:51Z</time>
      </trkpt>
      <trkpt lat="45.66814" lon="6.63739">
        <ele>1837</ele>
        <time>2014-10-20T11:24:54Z</time>
      </trkpt>
      <trkpt lat="45.6681" lon="6.63743">
        <ele>1837</ele>
        <time>2014-10-20T11:24:56Z</time>
      </trkpt>
      <trkpt lat="45.66807" lon="6.63749">
        <ele>1838</ele>
        <time>2014-10-20T11:24:58Z</time>
      </trkpt>
      <trkpt lat="45.668" lon="6.6375">
        <ele>1838</ele>
        <time>2014-10-20T11:25:01Z</time>
      </trkpt>
      <trkpt lat="45.66791" lon="6.63765">
        <ele>1837</ele>
        <time>2014-10-20T11:25:04Z</time>
      </trkpt>
      <trkpt lat="45.66787" lon="6.63777">
        <ele>1837</ele>
        <time>2014-10-20T11:25:06Z</time>
      </trkpt>
      <trkpt lat="45.66782" lon="6.63785">
        <ele>1835</ele>
        <time>2014-10-20T11:25:08Z</time>
      </trkpt>
      <trkpt lat="45.66773" lon="6.63798">
        <ele>1833</ele>
        <time>2014-10-20T11:25:11Z</time>
      </trkpt>
      <trkpt lat="45.66769" lon="6.63805">
        <ele>1831</ele>
        <time>2014-10-20T11:25:13Z</time>
      </trkpt>
      <trkpt lat="45.66764" lon="6.63804">
        <ele>1830</ele>
        <time>2014-10-20T11:25:16Z</time>
      </trkpt>
      <trkpt lat="45.6676" lon="6.63803">
        <ele>1829</ele>
        <time>2014-10-20T11:25:18Z</time>
      </trkpt>
      <trkpt lat="45.66757" lon="6.63808">
        <ele>1827</ele>
        <time>2014-10-20T11:25:21Z</time>
      </trkpt>
      <trkpt lat="45.66756" lon="6.63813">
        <ele>1826</ele>
        <time>2014-10-20T11:25:23Z</time>
      </trkpt>
      <trkpt lat="45.66753" lon="6.63816">
        <ele>1825</ele>
        <time>2014-10-20T11:25:25Z</time>
      </trkpt>
      <trkpt lat="45.66748" lon="6.63811">
        <ele>1825</ele>
        <time>2014-10-20T11:25:28Z</time>
      </trkpt>
      <trkpt lat="45.66741" lon="6.63804">
        <ele>1824</ele>
        <time>2014-10-20T11:25:31Z</time>
      </trkpt>
      <trkpt lat="45.66733" lon="6.63801">
        <ele>1824</ele>
        <time>2014-10-20T11:25:33Z</time>
      </trkpt>
      <trkpt lat="45.66727" lon="6.63804">
        <ele>1823</ele>
        <time>2014-10-20T11:25:35Z</time>
      </trkpt>
      <trkpt lat="45.66714" lon="6.63803">
        <ele>1822</ele>
        <time>2014-10-20T11:25:38Z</time>
      </trkpt>
      <trkpt lat="45.66704" lon="6.63806">
        <ele>1820</ele>
        <time>2014-10-20T11:25:41Z</time>
      </trkpt>
      <trkpt lat="45.66699" lon="6.63806">
        <ele>1817</ele>
        <time>2014-10-20T11:25:44Z</time>
      </trkpt>
      <trkpt lat="45.66697" lon="6.63806">
        <ele>1816</ele>
        <time>2014-10-20T11:25:46Z</time>
      </trkpt>
      <trkpt lat="45.66695" lon="6.63807">
        <ele>1814</ele>
        <time>2014-10-20T11:25:48Z</time>
      </trkpt>
      <trkpt lat="45.66695" lon="6.63807">
        <ele>1814</ele>
        <time>2014-10-20T11:25:51Z</time>
      </trkpt>
      <trkpt lat="45.66695" lon="6.63807">
        <ele>1813</ele>
        <time>2014-10-20T11:25:53Z</time>
      </trkpt>
      <trkpt lat="45.66693" lon="6.63805">
        <ele>1813</ele>
        <time>2014-10-20T11:25:56Z</time>
      </trkpt>
      <trkpt lat="45.66691" lon="6.63802">
        <ele>1812</ele>
        <time>2014-10-20T11:25:58Z</time>
      </trkpt>
      <trkpt lat="45.66686" lon="6.63801">
        <ele>1811</ele>
        <time>2014-10-20T11:26:00Z</time>
      </trkpt>
      <trkpt lat="45.66685" lon="6.63803">
        <ele>1810</ele>
        <time>2014-10-20T11:26:03Z</time>
      </trkpt>
      <trkpt lat="45.66685" lon="6.63806">
        <ele>1808</ele>
        <time>2014-10-20T11:26:06Z</time>
      </trkpt>
      <trkpt lat="45.66684" lon="6.63809">
        <ele>1807</ele>
        <time>2014-10-20T11:26:08Z</time>
      </trkpt>
      <trkpt lat="45.66682" lon="6.63811">
        <ele>1808</ele>
        <time>2014-10-20T11:26:10Z</time>
      </trkpt>
      <trkpt lat="45.6668" lon="6.63812">
        <ele>1808</ele>
        <time>2014-10-20T11:26:12Z</time>
      </trkpt>
      <trkpt lat="45.66677" lon="6.63814">
        <ele>1808</ele>
        <time>2014-10-20T11:26:15Z</time>
      </trkpt>
      <trkpt lat="45.66677" lon="6.63816">
        <ele>1809</ele>
        <time>2014-10-20T11:26:20Z</time>
      </trkpt>
      <trkpt lat="45.66674" lon="6.6382">
        <ele>1809</ele>
        <time>2014-10-20T11:26:23Z</time>
      </trkpt>
      <trkpt lat="45.66672" lon="6.63824">
        <ele>1809</ele>
        <time>2014-10-20T11:26:25Z</time>
      </trkpt>
      <trkpt lat="45.66671" lon="6.63826">
        <ele>1809</ele>
        <time>2014-10-20T11:26:27Z</time>
      </trkpt>
      <trkpt lat="45.66668" lon="6.63829">
        <ele>1809</ele>
        <time>2014-10-20T11:26:29Z</time>
      </trkpt>
      <trkpt lat="45.66665" lon="6.63832">
        <ele>1809</ele>
        <time>2014-10-20T11:26:31Z</time>
      </trkpt>
      <trkpt lat="45.66661" lon="6.63836">
        <ele>1808</ele>
        <time>2014-10-20T11:26:34Z</time>
      </trkpt>
      <trkpt lat="45.66659" lon="6.63839">
        <ele>1808</ele>
        <time>2014-10-20T11:26:36Z</time>
      </trkpt>
      <trkpt lat="45.66656" lon="6.63839">
        <ele>1807</ele>
        <time>2014-10-20T11:26:38Z</time>
      </trkpt>
      <trkpt lat="45.66652" lon="6.63837">
        <ele>1807</ele>
        <time>2014-10-20T11:26:40Z</time>
      </trkpt>
      <trkpt lat="45.66649" lon="6.63833">
        <ele>1807</ele>
        <time>2014-10-20T11:26:43Z</time>
      </trkpt>
      <trkpt lat="45.66647" lon="6.63827">
        <ele>1806</ele>
        <time>2014-10-20T11:26:45Z</time>
      </trkpt>
      <trkpt lat="45.66644" lon="6.63822">
        <ele>1806</ele>
        <time>2014-10-20T11:26:47Z</time>
      </trkpt>
      <trkpt lat="45.66641" lon="6.6381">
        <ele>1806</ele>
        <time>2014-10-20T11:26:50Z</time>
      </trkpt>
      <trkpt lat="45.6664" lon="6.63799">
        <ele>1806</ele>
        <time>2014-10-20T11:26:52Z</time>
      </trkpt>
      <trkpt lat="45.66638" lon="6.63783">
        <ele>1805</ele>
        <time>2014-10-20T11:26:55Z</time>
      </trkpt>
      <trkpt lat="45.66638" lon="6.63772">
        <ele>1804</ele>
        <time>2014-10-20T11:26:57Z</time>
      </trkpt>
      <trkpt lat="45.6664" lon="6.63762">
        <ele>1802</ele>
        <time>2014-10-20T11:26:59Z</time>
      </trkpt>
      <trkpt lat="45.66642" lon="6.63749">
        <ele>1800</ele>
        <time>2014-10-20T11:27:01Z</time>
      </trkpt>
      <trkpt lat="45.66643" lon="6.63739">
        <ele>1798</ele>
        <time>2014-10-20T11:27:03Z</time>
      </trkpt>
      <trkpt lat="45.66647" lon="6.6373">
        <ele>1795</ele>
        <time>2014-10-20T11:27:06Z</time>
      </trkpt>
      <trkpt lat="45.66648" lon="6.63725">
        <ele>1793</ele>
        <time>2014-10-20T11:27:08Z</time>
      </trkpt>
      <trkpt lat="45.66649" lon="6.63723">
        <ele>1791</ele>
        <time>2014-10-20T11:27:11Z</time>
      </trkpt>
      <trkpt lat="45.66649" lon="6.63721">
        <ele>1790</ele>
        <time>2014-10-20T11:27:13Z</time>
      </trkpt>
      <trkpt lat="45.66649" lon="6.6372">
        <ele>1790</ele>
        <time>2014-10-20T11:27:15Z</time>
      </trkpt>
      <trkpt lat="45.66648" lon="6.63719">
        <ele>1789</ele>
        <time>2014-10-20T11:27:18Z</time>
      </trkpt>
      <trkpt lat="45.66647" lon="6.63714">
        <ele>1789</ele>
        <time>2014-10-20T11:27:21Z</time>
      </trkpt>
      <trkpt lat="45.66647" lon="6.63713">
        <ele>1789</ele>
        <time>2014-10-20T11:27:23Z</time>
      </trkpt>
      <trkpt lat="45.66646" lon="6.63713">
        <ele>1789</ele>
        <time>2014-10-20T11:27:25Z</time>
      </trkpt>
      <trkpt lat="45.66645" lon="6.63713">
        <ele>1788</ele>
        <time>2014-10-20T11:27:28Z</time>
      </trkpt>
      <trkpt lat="45.66642" lon="6.63712">
        <ele>1787</ele>
        <time>2014-10-20T11:27:30Z</time>
      </trkpt>
      <trkpt lat="45.66642" lon="6.63712">
        <ele>1787</ele>
        <time>2014-10-20T11:27:34Z</time>
      </trkpt>
      <trkpt lat="45.66642" lon="6.63711">
        <ele>1787</ele>
        <time>2014-10-20T11:27:37Z</time>
      </trkpt>
      <trkpt lat="45.66642" lon="6.6371">
        <ele>1787</ele>
        <time>2014-10-20T11:27:39Z</time>
      </trkpt>
      <trkpt lat="45.66644" lon="6.63708">
        <ele>1787</ele>
        <time>2014-10-20T11:27:42Z</time>
      </trkpt>
      <trkpt lat="45.66646" lon="6.63706">
        <ele>1786</ele>
        <time>2014-10-20T11:27:44Z</time>
      </trkpt>
      <trkpt lat="45.66646" lon="6.63704">
        <ele>1785</ele>
        <time>2014-10-20T11:27:47Z</time>
      </trkpt>
      <trkpt lat="45.66647" lon="6.63702">
        <ele>1785</ele>
        <time>2014-10-20T11:27:49Z</time>
      </trkpt>
      <trkpt lat="45.66648" lon="6.63697">
        <ele>1785</ele>
        <time>2014-10-20T11:27:51Z</time>
      </trkpt>
      <trkpt lat="45.66647" lon="6.63691">
        <ele>1784</ele>
        <time>2014-10-20T11:27:53Z</time>
      </trkpt>
      <trkpt lat="45.66644" lon="6.63684">
        <ele>1784</ele>
        <time>2014-10-20T11:27:55Z</time>
      </trkpt>
      <trkpt lat="45.66642" lon="6.63678">
        <ele>1783</ele>
        <time>2014-10-20T11:27:57Z</time>
      </trkpt>
      <trkpt lat="45.66641" lon="6.63674">
        <ele>1782</ele>
        <time>2014-10-20T11:27:59Z</time>
      </trkpt>
      <trkpt lat="45.6664" lon="6.63671">
        <ele>1781</ele>
        <time>2014-10-20T11:28:02Z</time>
      </trkpt>
      <trkpt lat="45.6664" lon="6.63669">
        <ele>1780</ele>
        <time>2014-10-20T11:28:05Z</time>
      </trkpt>
      <trkpt lat="45.66639" lon="6.63665">
        <ele>1780</ele>
        <time>2014-10-20T11:28:07Z</time>
      </trkpt>
      <trkpt lat="45.66635" lon="6.63664">
        <ele>1779</ele>
        <time>2014-10-20T11:28:10Z</time>
      </trkpt>
      <trkpt lat="45.66634" lon="6.63667">
        <ele>1779</ele>
        <time>2014-10-20T11:28:12Z</time>
      </trkpt>
      <trkpt lat="45.66633" lon="6.63674">
        <ele>1778</ele>
        <time>2014-10-20T11:28:14Z</time>
      </trkpt>
      <trkpt lat="45.66632" lon="6.63681">
        <ele>1778</ele>
        <time>2014-10-20T11:28:16Z</time>
      </trkpt>
      <trkpt lat="45.6663" lon="6.63687">
        <ele>1778</ele>
        <time>2014-10-20T11:28:18Z</time>
      </trkpt>
      <trkpt lat="45.66628" lon="6.63694">
        <ele>1777</ele>
        <time>2014-10-20T11:28:20Z</time>
      </trkpt>
      <trkpt lat="45.66621" lon="6.63702">
        <ele>1777</ele>
        <time>2014-10-20T11:28:23Z</time>
      </trkpt>
      <trkpt lat="45.66616" lon="6.63709">
        <ele>1777</ele>
        <time>2014-10-20T11:28:25Z</time>
      </trkpt>
      <trkpt lat="45.66607" lon="6.63723">
        <ele>1777</ele>
        <time>2014-10-20T11:28:28Z</time>
      </trkpt>
      <trkpt lat="45.66592" lon="6.63733">
        <ele>1777</ele>
        <time>2014-10-20T11:28:31Z</time>
      </trkpt>
      <trkpt lat="45.66582" lon="6.6373">
        <ele>1777</ele>
        <time>2014-10-20T11:28:33Z</time>
      </trkpt>
      <trkpt lat="45.66573" lon="6.6372">
        <ele>1777</ele>
        <time>2014-10-20T11:28:35Z</time>
      </trkpt>
      <trkpt lat="45.66562" lon="6.63702">
        <ele>1776</ele>
        <time>2014-10-20T11:28:38Z</time>
      </trkpt>
      <trkpt lat="45.66554" lon="6.63696">
        <ele>1774</ele>
        <time>2014-10-20T11:28:41Z</time>
      </trkpt>
      <trkpt lat="45.66545" lon="6.63689">
        <ele>1773</ele>
        <time>2014-10-20T11:28:44Z</time>
      </trkpt>
      <trkpt lat="45.66535" lon="6.63685">
        <ele>1772</ele>
        <time>2014-10-20T11:28:46Z</time>
      </trkpt>
      <trkpt lat="45.66523" lon="6.63684">
        <ele>1772</ele>
        <time>2014-10-20T11:28:48Z</time>
      </trkpt>
      <trkpt lat="45.66506" lon="6.63692">
        <ele>1770</ele>
        <time>2014-10-20T11:28:51Z</time>
      </trkpt>
      <trkpt lat="45.66501" lon="6.63687">
        <ele>1769</ele>
        <time>2014-10-20T11:28:53Z</time>
      </trkpt>
      <trkpt lat="45.66505" lon="6.63675">
        <ele>1767</ele>
        <time>2014-10-20T11:28:55Z</time>
      </trkpt>
      <trkpt lat="45.6651" lon="6.63655">
        <ele>1765</ele>
        <time>2014-10-20T11:28:58Z</time>
      </trkpt>
      <trkpt lat="45.66502" lon="6.63651">
        <ele>1764</ele>
        <time>2014-10-20T11:29:00Z</time>
      </trkpt>
      <trkpt lat="45.66489" lon="6.63665">
        <ele>1762</ele>
        <time>2014-10-20T11:29:03Z</time>
      </trkpt>
      <trkpt lat="45.66482" lon="6.63676">
        <ele>1760</ele>
        <time>2014-10-20T11:29:05Z</time>
      </trkpt>
      <trkpt lat="45.66476" lon="6.63665">
        <ele>1758</ele>
        <time>2014-10-20T11:29:08Z</time>
      </trkpt>
      <trkpt lat="45.66482" lon="6.6364">
        <ele>1757</ele>
        <time>2014-10-20T11:29:11Z</time>
      </trkpt>
      <trkpt lat="45.6649" lon="6.63622">
        <ele>1756</ele>
        <time>2014-10-20T11:29:13Z</time>
      </trkpt>
      <trkpt lat="45.66501" lon="6.63606">
        <ele>1754</ele>
        <time>2014-10-20T11:29:15Z</time>
      </trkpt>
      <trkpt lat="45.66511" lon="6.63593">
        <ele>1752</ele>
        <time>2014-10-20T11:29:17Z</time>
      </trkpt>
      <trkpt lat="45.66504" lon="6.63583">
        <ele>1748</ele>
        <time>2014-10-20T11:29:20Z</time>
      </trkpt>
      <trkpt lat="45.66494" lon="6.63588">
        <ele>1746</ele>
        <time>2014-10-20T11:29:22Z</time>
      </trkpt>
      <trkpt lat="45.66475" lon="6.63587">
        <ele>1744</ele>
        <time>2014-10-20T11:29:25Z</time>
      </trkpt>
      <trkpt lat="45.66464" lon="6.63598">
        <ele>1742</ele>
        <time>2014-10-20T11:29:27Z</time>
      </trkpt>
      <trkpt lat="45.66453" lon="6.63625">
        <ele>1739</ele>
        <time>2014-10-20T11:29:30Z</time>
      </trkpt>
      <trkpt lat="45.66442" lon="6.63639">
        <ele>1738</ele>
        <time>2014-10-20T11:29:32Z</time>
      </trkpt>
      <trkpt lat="45.66416" lon="6.63652">
        <ele>1738</ele>
        <time>2014-10-20T11:29:35Z</time>
      </trkpt>
      <trkpt lat="45.66388" lon="6.63676">
        <ele>1735</ele>
        <time>2014-10-20T11:29:38Z</time>
      </trkpt>
      <trkpt lat="45.66371" lon="6.63689">
        <ele>1734</ele>
        <time>2014-10-20T11:29:40Z</time>
      </trkpt>
      <trkpt lat="45.66345" lon="6.63708">
        <ele>1730</ele>
        <time>2014-10-20T11:29:43Z</time>
      </trkpt>
      <trkpt lat="45.66331" lon="6.63726">
        <ele>1727</ele>
        <time>2014-10-20T11:29:46Z</time>
      </trkpt>
      <trkpt lat="45.66322" lon="6.63733">
        <ele>1725</ele>
        <time>2014-10-20T11:29:48Z</time>
      </trkpt>
      <trkpt lat="45.66306" lon="6.6375">
        <ele>1721</ele>
        <time>2014-10-20T11:29:51Z</time>
      </trkpt>
      <trkpt lat="45.66288" lon="6.63766">
        <ele>1719</ele>
        <time>2014-10-20T11:29:54Z</time>
      </trkpt>
      <trkpt lat="45.66281" lon="6.63765">
        <ele>1717</ele>
        <time>2014-10-20T11:29:56Z</time>
      </trkpt>
      <trkpt lat="45.66287" lon="6.63746">
        <ele>1716</ele>
        <time>2014-10-20T11:29:59Z</time>
      </trkpt>
      <trkpt lat="45.66297" lon="6.63714">
        <ele>1714</ele>
        <time>2014-10-20T11:30:02Z</time>
      </trkpt>
      <trkpt lat="45.66306" lon="6.63693">
        <ele>1711</ele>
        <time>2014-10-20T11:30:05Z</time>
      </trkpt>
      <trkpt lat="45.66304" lon="6.63686">
        <ele>1708</ele>
        <time>2014-10-20T11:30:08Z</time>
      </trkpt>
      <trkpt lat="45.66304" lon="6.63686">
        <ele>1704</ele>
        <time>2014-10-20T11:30:10Z</time>
      </trkpt>
      <trkpt lat="45.66303" lon="6.63685">
        <ele>1702</ele>
        <time>2014-10-20T11:30:13Z</time>
      </trkpt>
      <trkpt lat="45.66294" lon="6.63684">
        <ele>1702</ele>
        <time>2014-10-20T11:30:16Z</time>
      </trkpt>
      <trkpt lat="45.66282" lon="6.63687">
        <ele>1702</ele>
        <time>2014-10-20T11:30:18Z</time>
      </trkpt>
      <trkpt lat="45.66268" lon="6.63691">
        <ele>1701</ele>
        <time>2014-10-20T11:30:20Z</time>
      </trkpt>
      <trkpt lat="45.66249" lon="6.63707">
        <ele>1698</ele>
        <time>2014-10-20T11:30:23Z</time>
      </trkpt>
      <trkpt lat="45.66239" lon="6.63723">
        <ele>1695</ele>
        <time>2014-10-20T11:30:25Z</time>
      </trkpt>
      <trkpt lat="45.6623" lon="6.63743">
        <ele>1693</ele>
        <time>2014-10-20T11:30:27Z</time>
      </trkpt>
      <trkpt lat="45.66218" lon="6.6376">
        <ele>1689</ele>
        <time>2014-10-20T11:30:30Z</time>
      </trkpt>
      <trkpt lat="45.66213" lon="6.63751">
        <ele>1687</ele>
        <time>2014-10-20T11:30:32Z</time>
      </trkpt>
      <trkpt lat="45.66214" lon="6.63734">
        <ele>1685</ele>
        <time>2014-10-20T11:30:34Z</time>
      </trkpt>
      <trkpt lat="45.66213" lon="6.63715">
        <ele>1684</ele>
        <time>2014-10-20T11:30:36Z</time>
      </trkpt>
      <trkpt lat="45.66212" lon="6.63695">
        <ele>1683</ele>
        <time>2014-10-20T11:30:38Z</time>
      </trkpt>
      <trkpt lat="45.66211" lon="6.63679">
        <ele>1682</ele>
        <time>2014-10-20T11:30:40Z</time>
      </trkpt>
      <trkpt lat="45.66199" lon="6.63658">
        <ele>1680</ele>
        <time>2014-10-20T11:30:43Z</time>
      </trkpt>
      <trkpt lat="45.66192" lon="6.63643">
        <ele>1677</ele>
        <time>2014-10-20T11:30:45Z</time>
      </trkpt>
      <trkpt lat="45.66199" lon="6.63625">
        <ele>1673</ele>
        <time>2014-10-20T11:30:48Z</time>
      </trkpt>
      <trkpt lat="45.66214" lon="6.63608">
        <ele>1669</ele>
        <time>2014-10-20T11:30:51Z</time>
      </trkpt>
      <trkpt lat="45.66215" lon="6.63576">
        <ele>1668</ele>
        <time>2014-10-20T11:30:54Z</time>
      </trkpt>
      <trkpt lat="45.66216" lon="6.63553">
        <ele>1666</ele>
        <time>2014-10-20T11:30:56Z</time>
      </trkpt>
      <trkpt lat="45.66222" lon="6.63539">
        <ele>1664</ele>
        <time>2014-10-20T11:30:58Z</time>
      </trkpt>
      <trkpt lat="45.66217" lon="6.63531">
        <ele>1662</ele>
        <time>2014-10-20T11:31:00Z</time>
      </trkpt>
      <trkpt lat="45.66206" lon="6.63545">
        <ele>1658</ele>
        <time>2014-10-20T11:31:03Z</time>
      </trkpt>
      <trkpt lat="45.66198" lon="6.63556">
        <ele>1656</ele>
        <time>2014-10-20T11:31:05Z</time>
      </trkpt>
      <trkpt lat="45.66191" lon="6.63545">
        <ele>1655</ele>
        <time>2014-10-20T11:31:08Z</time>
      </trkpt>
      <trkpt lat="45.66196" lon="6.63529">
        <ele>1655</ele>
        <time>2014-10-20T11:31:10Z</time>
      </trkpt>
      <trkpt lat="45.66201" lon="6.63509">
        <ele>1654</ele>
        <time>2014-10-20T11:31:12Z</time>
      </trkpt>
      <trkpt lat="45.66203" lon="6.63493">
        <ele>1651</ele>
        <time>2014-10-20T11:31:14Z</time>
      </trkpt>
      <trkpt lat="45.66191" lon="6.63488">
        <ele>1649</ele>
        <time>2014-10-20T11:31:17Z</time>
      </trkpt>
      <trkpt lat="45.66179" lon="6.63496">
        <ele>1645</ele>
        <time>2014-10-20T11:31:19Z</time>
      </trkpt>
      <trkpt lat="45.66164" lon="6.63505">
        <ele>1643</ele>
        <time>2014-10-20T11:31:21Z</time>
      </trkpt>
      <trkpt lat="45.66149" lon="6.63508">
        <ele>1641</ele>
        <time>2014-10-20T11:31:23Z</time>
      </trkpt>
      <trkpt lat="45.66139" lon="6.63522">
        <ele>1640</ele>
        <time>2014-10-20T11:31:25Z</time>
      </trkpt>
      <trkpt lat="45.66134" lon="6.6354">
        <ele>1639</ele>
        <time>2014-10-20T11:31:27Z</time>
      </trkpt>
      <trkpt lat="45.66121" lon="6.63546">
        <ele>1637</ele>
        <time>2014-10-20T11:31:29Z</time>
      </trkpt>
      <trkpt lat="45.66107" lon="6.63546">
        <ele>1634</ele>
        <time>2014-10-20T11:31:31Z</time>
      </trkpt>
      <trkpt lat="45.66092" lon="6.63562">
        <ele>1631</ele>
        <time>2014-10-20T11:31:34Z</time>
      </trkpt>
      <trkpt lat="45.66084" lon="6.63582">
        <ele>1629</ele>
        <time>2014-10-20T11:31:36Z</time>
      </trkpt>
      <trkpt lat="45.66076" lon="6.63604">
        <ele>1627</ele>
        <time>2014-10-20T11:31:38Z</time>
      </trkpt>
      <trkpt lat="45.66068" lon="6.63641">
        <ele>1625</ele>
        <time>2014-10-20T11:31:41Z</time>
      </trkpt>
      <trkpt lat="45.66065" lon="6.63659">
        <ele>1623</ele>
        <time>2014-10-20T11:31:43Z</time>
      </trkpt>
      <trkpt lat="45.66058" lon="6.63662">
        <ele>1621</ele>
        <time>2014-10-20T11:31:45Z</time>
      </trkpt>
      <trkpt lat="45.66057" lon="6.63655">
        <ele>1620</ele>
        <time>2014-10-20T11:31:47Z</time>
      </trkpt>
      <trkpt lat="45.66056" lon="6.63646">
        <ele>1617</ele>
        <time>2014-10-20T11:31:49Z</time>
      </trkpt>
      <trkpt lat="45.66057" lon="6.63627">
        <ele>1615</ele>
        <time>2014-10-20T11:31:52Z</time>
      </trkpt>
      <trkpt lat="45.66059" lon="6.6361">
        <ele>1615</ele>
        <time>2014-10-20T11:31:54Z</time>
      </trkpt>
      <trkpt lat="45.66061" lon="6.6359">
        <ele>1614</ele>
        <time>2014-10-20T11:31:56Z</time>
      </trkpt>
      <trkpt lat="45.66065" lon="6.63555">
        <ele>1613</ele>
        <time>2014-10-20T11:31:59Z</time>
      </trkpt>
      <trkpt lat="45.66069" lon="6.63529">
        <ele>1611</ele>
        <time>2014-10-20T11:32:01Z</time>
      </trkpt>
      <trkpt lat="45.66074" lon="6.63508">
        <ele>1609</ele>
        <time>2014-10-20T11:32:03Z</time>
      </trkpt>
      <trkpt lat="45.66083" lon="6.63498">
        <ele>1606</ele>
        <time>2014-10-20T11:32:05Z</time>
      </trkpt>
      <trkpt lat="45.66085" lon="6.63489">
        <ele>1603</ele>
        <time>2014-10-20T11:32:07Z</time>
      </trkpt>
      <trkpt lat="45.66072" lon="6.63491">
        <ele>1600</ele>
        <time>2014-10-20T11:32:10Z</time>
      </trkpt>
      <trkpt lat="45.66062" lon="6.63503">
        <ele>1598</ele>
        <time>2014-10-20T11:32:12Z</time>
      </trkpt>
      <trkpt lat="45.66054" lon="6.63521">
        <ele>1597</ele>
        <time>2014-10-20T11:32:14Z</time>
      </trkpt>
      <trkpt lat="45.66046" lon="6.63542">
        <ele>1596</ele>
        <time>2014-10-20T11:32:16Z</time>
      </trkpt>
      <trkpt lat="45.66038" lon="6.63561">
        <ele>1595</ele>
        <time>2014-10-20T11:32:18Z</time>
      </trkpt>
      <trkpt lat="45.66026" lon="6.63587">
        <ele>1592</ele>
        <time>2014-10-20T11:32:21Z</time>
      </trkpt>
      <trkpt lat="45.66019" lon="6.6359">
        <ele>1590</ele>
        <time>2014-10-20T11:32:23Z</time>
      </trkpt>
      <trkpt lat="45.66021" lon="6.63572">
        <ele>1586</ele>
        <time>2014-10-20T11:32:26Z</time>
      </trkpt>
      <trkpt lat="45.66024" lon="6.63552">
        <ele>1584</ele>
        <time>2014-10-20T11:32:28Z</time>
      </trkpt>
      <trkpt lat="45.66027" lon="6.63529">
        <ele>1585</ele>
        <time>2014-10-20T11:32:30Z</time>
      </trkpt>
      <trkpt lat="45.66034" lon="6.63497">
        <ele>1583</ele>
        <time>2014-10-20T11:32:33Z</time>
      </trkpt>
      <trkpt lat="45.66031" lon="6.63483">
        <ele>1581</ele>
        <time>2014-10-20T11:32:35Z</time>
      </trkpt>
      <trkpt lat="45.66025" lon="6.63475">
        <ele>1578</ele>
        <time>2014-10-20T11:32:37Z</time>
      </trkpt>
      <trkpt lat="45.66025" lon="6.63461">
        <ele>1574</ele>
        <time>2014-10-20T11:32:40Z</time>
      </trkpt>
      <trkpt lat="45.66029" lon="6.63443">
        <ele>1573</ele>
        <time>2014-10-20T11:32:43Z</time>
      </trkpt>
      <trkpt lat="45.66035" lon="6.6343">
        <ele>1573</ele>
        <time>2014-10-20T11:32:45Z</time>
      </trkpt>
      <trkpt lat="45.66041" lon="6.63415">
        <ele>1573</ele>
        <time>2014-10-20T11:32:47Z</time>
      </trkpt>
      <trkpt lat="45.66047" lon="6.63395">
        <ele>1573</ele>
        <time>2014-10-20T11:32:49Z</time>
      </trkpt>
      <trkpt lat="45.66057" lon="6.63375">
        <ele>1572</ele>
        <time>2014-10-20T11:32:51Z</time>
      </trkpt>
      <trkpt lat="45.66061" lon="6.6334">
        <ele>1571</ele>
        <time>2014-10-20T11:32:54Z</time>
      </trkpt>
      <trkpt lat="45.66062" lon="6.63316">
        <ele>1570</ele>
        <time>2014-10-20T11:32:56Z</time>
      </trkpt>
      <trkpt lat="45.66076" lon="6.63285">
        <ele>1569</ele>
        <time>2014-10-20T11:32:59Z</time>
      </trkpt>
      <trkpt lat="45.66085" lon="6.6326">
        <ele>1568</ele>
        <time>2014-10-20T11:33:01Z</time>
      </trkpt>
      <trkpt lat="45.66093" lon="6.63233">
        <ele>1566</ele>
        <time>2014-10-20T11:33:03Z</time>
      </trkpt>
      <trkpt lat="45.66108" lon="6.63189">
        <ele>1564</ele>
        <time>2014-10-20T11:33:06Z</time>
      </trkpt>
      <trkpt lat="45.66114" lon="6.63157">
        <ele>1563</ele>
        <time>2014-10-20T11:33:08Z</time>
      </trkpt>
      <trkpt lat="45.66125" lon="6.63109">
        <ele>1561</ele>
        <time>2014-10-20T11:33:11Z</time>
      </trkpt>
      <trkpt lat="45.66137" lon="6.63064">
        <ele>1558</ele>
        <time>2014-10-20T11:33:14Z</time>
      </trkpt>
      <trkpt lat="45.66145" lon="6.63038">
        <ele>1557</ele>
        <time>2014-10-20T11:33:16Z</time>
      </trkpt>
      <trkpt lat="45.66152" lon="6.63003">
        <ele>1553</ele>
        <time>2014-10-20T11:33:19Z</time>
      </trkpt>
      <trkpt lat="45.66163" lon="6.62981">
        <ele>1548</ele>
        <time>2014-10-20T11:33:22Z</time>
      </trkpt>
      <trkpt lat="45.66159" lon="6.62968">
        <ele>1542</ele>
        <time>2014-10-20T11:33:25Z</time>
      </trkpt>
      <trkpt lat="45.66146" lon="6.62979">
        <ele>1539</ele>
        <time>2014-10-20T11:33:28Z</time>
      </trkpt>
      <trkpt lat="45.66134" lon="6.62977">
        <ele>1538</ele>
        <time>2014-10-20T11:33:31Z</time>
      </trkpt>
      <trkpt lat="45.66135" lon="6.62963">
        <ele>1537</ele>
        <time>2014-10-20T11:33:33Z</time>
      </trkpt>
      <trkpt lat="45.66145" lon="6.62952">
        <ele>1535</ele>
        <time>2014-10-20T11:33:35Z</time>
      </trkpt>
      <trkpt lat="45.66159" lon="6.6294">
        <ele>1534</ele>
        <time>2014-10-20T11:33:38Z</time>
      </trkpt>
      <trkpt lat="45.66161" lon="6.62927">
        <ele>1531</ele>
        <time>2014-10-20T11:33:41Z</time>
      </trkpt>
      <trkpt lat="45.66152" lon="6.62924">
        <ele>1529</ele>
        <time>2014-10-20T11:33:43Z</time>
      </trkpt>
      <trkpt lat="45.66143" lon="6.62923">
        <ele>1527</ele>
        <time>2014-10-20T11:33:45Z</time>
      </trkpt>
      <trkpt lat="45.66143" lon="6.62906">
        <ele>1526</ele>
        <time>2014-10-20T11:33:48Z</time>
      </trkpt>
      <trkpt lat="45.66152" lon="6.62893">
        <ele>1525</ele>
        <time>2014-10-20T11:33:50Z</time>
      </trkpt>
      <trkpt lat="45.66158" lon="6.62877">
        <ele>1524</ele>
        <time>2014-10-20T11:33:52Z</time>
      </trkpt>
      <trkpt lat="45.6616" lon="6.62846">
        <ele>1522</ele>
        <time>2014-10-20T11:33:55Z</time>
      </trkpt>
      <trkpt lat="45.66167" lon="6.62817">
        <ele>1522</ele>
        <time>2014-10-20T11:33:58Z</time>
      </trkpt>
      <trkpt lat="45.66166" lon="6.62798">
        <ele>1522</ele>
        <time>2014-10-20T11:34:00Z</time>
      </trkpt>
      <trkpt lat="45.66161" lon="6.62781">
        <ele>1522</ele>
        <time>2014-10-20T11:34:02Z</time>
      </trkpt>
      <trkpt lat="45.66153" lon="6.62753">
        <ele>1522</ele>
        <time>2014-10-20T11:34:05Z</time>
      </trkpt>
      <trkpt lat="45.66151" lon="6.62732">
        <ele>1522</ele>
        <time>2014-10-20T11:34:07Z</time>
      </trkpt>
      <trkpt lat="45.66146" lon="6.627">
        <ele>1521</ele>
        <time>2014-10-20T11:34:10Z</time>
      </trkpt>
      <trkpt lat="45.66142" lon="6.62682">
        <ele>1521</ele>
        <time>2014-10-20T11:34:12Z</time>
      </trkpt>
      <trkpt lat="45.66138" lon="6.62665">
        <ele>1520</ele>
        <time>2014-10-20T11:34:14Z</time>
      </trkpt>
      <trkpt lat="45.66133" lon="6.62649">
        <ele>1519</ele>
        <time>2014-10-20T11:34:16Z</time>
      </trkpt>
      <trkpt lat="45.66124" lon="6.6263">
        <ele>1519</ele>
        <time>2014-10-20T11:34:19Z</time>
      </trkpt>
      <trkpt lat="45.66116" lon="6.62617">
        <ele>1519</ele>
        <time>2014-10-20T11:34:21Z</time>
      </trkpt>
      <trkpt lat="45.66106" lon="6.62598">
        <ele>1519</ele>
        <time>2014-10-20T11:34:24Z</time>
      </trkpt>
      <trkpt lat="45.66102" lon="6.62581">
        <ele>1519</ele>
        <time>2014-10-20T11:34:26Z</time>
      </trkpt>
      <trkpt lat="45.66098" lon="6.62551">
        <ele>1520</ele>
        <time>2014-10-20T11:34:29Z</time>
      </trkpt>
      <trkpt lat="45.66094" lon="6.62519">
        <ele>1519</ele>
        <time>2014-10-20T11:34:32Z</time>
      </trkpt>
      <trkpt lat="45.66096" lon="6.625">
        <ele>1519</ele>
        <time>2014-10-20T11:34:34Z</time>
      </trkpt>
      <trkpt lat="45.66108" lon="6.62476">
        <ele>1517</ele>
        <time>2014-10-20T11:34:37Z</time>
      </trkpt>
      <trkpt lat="45.66126" lon="6.62453">
        <ele>1517</ele>
        <time>2014-10-20T11:34:40Z</time>
      </trkpt>
      <trkpt lat="45.66138" lon="6.62436">
        <ele>1517</ele>
        <time>2014-10-20T11:34:42Z</time>
      </trkpt>
      <trkpt lat="45.66161" lon="6.62414">
        <ele>1516</ele>
        <time>2014-10-20T11:34:45Z</time>
      </trkpt>
      <trkpt lat="45.66174" lon="6.62393">
        <ele>1516</ele>
        <time>2014-10-20T11:34:47Z</time>
      </trkpt>
      <trkpt lat="45.6619" lon="6.62357">
        <ele>1513</ele>
        <time>2014-10-20T11:34:50Z</time>
      </trkpt>
      <trkpt lat="45.66201" lon="6.62332">
        <ele>1512</ele>
        <time>2014-10-20T11:34:52Z</time>
      </trkpt>
      <trkpt lat="45.66215" lon="6.62299">
        <ele>1511</ele>
        <time>2014-10-20T11:34:55Z</time>
      </trkpt>
      <trkpt lat="45.66226" lon="6.62279">
        <ele>1511</ele>
        <time>2014-10-20T11:34:57Z</time>
      </trkpt>
      <trkpt lat="45.66238" lon="6.62245">
        <ele>1509</ele>
        <time>2014-10-20T11:35:00Z</time>
      </trkpt>
      <trkpt lat="45.66245" lon="6.62204">
        <ele>1507</ele>
        <time>2014-10-20T11:35:03Z</time>
      </trkpt>
      <trkpt lat="45.66256" lon="6.6218">
        <ele>1506</ele>
        <time>2014-10-20T11:35:05Z</time>
      </trkpt>
      <trkpt lat="45.6627" lon="6.62148">
        <ele>1503</ele>
        <time>2014-10-20T11:35:08Z</time>
      </trkpt>
      <trkpt lat="45.66282" lon="6.62133">
        <ele>1503</ele>
        <time>2014-10-20T11:35:10Z</time>
      </trkpt>
      <trkpt lat="45.66292" lon="6.6212">
        <ele>1502</ele>
        <time>2014-10-20T11:35:12Z</time>
      </trkpt>
      <trkpt lat="45.66301" lon="6.62108">
        <ele>1503</ele>
        <time>2014-10-20T11:35:14Z</time>
      </trkpt>
      <trkpt lat="45.66309" lon="6.62089">
        <ele>1503</ele>
        <time>2014-10-20T11:35:17Z</time>
      </trkpt>
      <trkpt lat="45.66314" lon="6.62076">
        <ele>1502</ele>
        <time>2014-10-20T11:35:19Z</time>
      </trkpt>
      <trkpt lat="45.66323" lon="6.62058">
        <ele>1502</ele>
        <time>2014-10-20T11:35:22Z</time>
      </trkpt>
      <trkpt lat="45.66338" lon="6.62045">
        <ele>1503</ele>
        <time>2014-10-20T11:35:25Z</time>
      </trkpt>
      <trkpt lat="45.66354" lon="6.62039">
        <ele>1503</ele>
        <time>2014-10-20T11:35:27Z</time>
      </trkpt>
      <trkpt lat="45.6638" lon="6.62025">
        <ele>1502</ele>
        <time>2014-10-20T11:35:30Z</time>
      </trkpt>
      <trkpt lat="45.664" lon="6.62004">
        <ele>1501</ele>
        <time>2014-10-20T11:35:33Z</time>
      </trkpt>
      <trkpt lat="45.66408" lon="6.61986">
        <ele>1501</ele>
        <time>2014-10-20T11:35:35Z</time>
      </trkpt>
      <trkpt lat="45.66414" lon="6.61973">
        <ele>1501</ele>
        <time>2014-10-20T11:35:37Z</time>
      </trkpt>
      <trkpt lat="45.66418" lon="6.61966">
        <ele>1501</ele>
        <time>2014-10-20T11:35:39Z</time>
      </trkpt>
      <trkpt lat="45.66426" lon="6.61959">
        <ele>1501</ele>
        <time>2014-10-20T11:35:42Z</time>
      </trkpt>
      <trkpt lat="45.66432" lon="6.61955">
        <ele>1502</ele>
        <time>2014-10-20T11:35:44Z</time>
      </trkpt>
      <trkpt lat="45.66445" lon="6.61949">
        <ele>1503</ele>
        <time>2014-10-20T11:35:47Z</time>
      </trkpt>
      <trkpt lat="45.66457" lon="6.6194">
        <ele>1504</ele>
        <time>2014-10-20T11:35:50Z</time>
      </trkpt>
      <trkpt lat="45.66467" lon="6.61929">
        <ele>1505</ele>
        <time>2014-10-20T11:35:53Z</time>
      </trkpt>
      <trkpt lat="45.66474" lon="6.61921">
        <ele>1505</ele>
        <time>2014-10-20T11:35:55Z</time>
      </trkpt>
      <trkpt lat="45.66481" lon="6.61911">
        <ele>1505</ele>
        <time>2014-10-20T11:35:57Z</time>
      </trkpt>
      <trkpt lat="45.6649" lon="6.61898">
        <ele>1506</ele>
        <time>2014-10-20T11:36:00Z</time>
      </trkpt>
      <trkpt lat="45.66494" lon="6.6189">
        <ele>1506</ele>
        <time>2014-10-20T11:36:02Z</time>
      </trkpt>
      <trkpt lat="45.66499" lon="6.61881">
        <ele>1506</ele>
        <time>2014-10-20T11:36:04Z</time>
      </trkpt>
      <trkpt lat="45.66507" lon="6.61869">
        <ele>1506</ele>
        <time>2014-10-20T11:36:07Z</time>
      </trkpt>
      <trkpt lat="45.66512" lon="6.61862">
        <ele>1507</ele>
        <time>2014-10-20T11:36:09Z</time>
      </trkpt>
      <trkpt lat="45.66516" lon="6.61855">
        <ele>1507</ele>
        <time>2014-10-20T11:36:11Z</time>
      </trkpt>
      <trkpt lat="45.66519" lon="6.61847">
        <ele>1508</ele>
        <time>2014-10-20T11:36:13Z</time>
      </trkpt>
      <trkpt lat="45.66524" lon="6.61833">
        <ele>1509</ele>
        <time>2014-10-20T11:36:16Z</time>
      </trkpt>
      <trkpt lat="45.66527" lon="6.61821">
        <ele>1509</ele>
        <time>2014-10-20T11:36:18Z</time>
      </trkpt>
      <trkpt lat="45.66533" lon="6.61803">
        <ele>1510</ele>
        <time>2014-10-20T11:36:21Z</time>
      </trkpt>
      <trkpt lat="45.66538" lon="6.61791">
        <ele>1510</ele>
        <time>2014-10-20T11:36:23Z</time>
      </trkpt>
      <trkpt lat="45.66544" lon="6.61773">
        <ele>1509</ele>
        <time>2014-10-20T11:36:26Z</time>
      </trkpt>
      <trkpt lat="45.66548" lon="6.61764">
        <ele>1509</ele>
        <time>2014-10-20T11:36:28Z</time>
      </trkpt>
      <trkpt lat="45.66554" lon="6.61753">
        <ele>1509</ele>
        <time>2014-10-20T11:36:31Z</time>
      </trkpt>
      <trkpt lat="45.66561" lon="6.61743">
        <ele>1509</ele>
        <time>2014-10-20T11:36:34Z</time>
      </trkpt>
      <trkpt lat="45.66568" lon="6.61732">
        <ele>1510</ele>
        <time>2014-10-20T11:36:37Z</time>
      </trkpt>
      <trkpt lat="45.66573" lon="6.61725">
        <ele>1511</ele>
        <time>2014-10-20T11:36:39Z</time>
      </trkpt>
      <trkpt lat="45.66579" lon="6.61717">
        <ele>1512</ele>
        <time>2014-10-20T11:36:42Z</time>
      </trkpt>
      <trkpt lat="45.66583" lon="6.61707">
        <ele>1513</ele>
        <time>2014-10-20T11:36:45Z</time>
      </trkpt>
      <trkpt lat="45.66584" lon="6.61699">
        <ele>1513</ele>
        <time>2014-10-20T11:36:47Z</time>
      </trkpt>
      <trkpt lat="45.66585" lon="6.61683">
        <ele>1514</ele>
        <time>2014-10-20T11:36:50Z</time>
      </trkpt>
      <trkpt lat="45.66585" lon="6.61672">
        <ele>1515</ele>
        <time>2014-10-20T11:36:52Z</time>
      </trkpt>
      <trkpt lat="45.66586" lon="6.61661">
        <ele>1515</ele>
        <time>2014-10-20T11:36:54Z</time>
      </trkpt>
      <trkpt lat="45.66592" lon="6.61648">
        <ele>1516</ele>
        <time>2014-10-20T11:36:57Z</time>
      </trkpt>
      <trkpt lat="45.66601" lon="6.6164">
        <ele>1517</ele>
        <time>2014-10-20T11:37:00Z</time>
      </trkpt>
      <trkpt lat="45.66607" lon="6.61636">
        <ele>1517</ele>
        <time>2014-10-20T11:37:02Z</time>
      </trkpt>
      <trkpt lat="45.66615" lon="6.61625">
        <ele>1518</ele>
        <time>2014-10-20T11:37:05Z</time>
      </trkpt>
      <trkpt lat="45.6662" lon="6.6161">
        <ele>1518</ele>
        <time>2014-10-20T11:37:08Z</time>
      </trkpt>
      <trkpt lat="45.66623" lon="6.616">
        <ele>1519</ele>
        <time>2014-10-20T11:37:10Z</time>
      </trkpt>
      <trkpt lat="45.66626" lon="6.61587">
        <ele>1519</ele>
        <time>2014-10-20T11:37:13Z</time>
      </trkpt>
      <trkpt lat="45.66626" lon="6.61577">
        <ele>1519</ele>
        <time>2014-10-20T11:37:15Z</time>
      </trkpt>
      <trkpt lat="45.66627" lon="6.61566">
        <ele>1519</ele>
        <time>2014-10-20T11:37:17Z</time>
      </trkpt>
      <trkpt lat="45.66625" lon="6.61555">
        <ele>1519</ele>
        <time>2014-10-20T11:37:19Z</time>
      </trkpt>
      <trkpt lat="45.66622" lon="6.61543">
        <ele>1518</ele>
        <time>2014-10-20T11:37:21Z</time>
      </trkpt>
      <trkpt lat="45.66616" lon="6.61521">
        <ele>1519</ele>
        <time>2014-10-20T11:37:24Z</time>
      </trkpt>
      <trkpt lat="45.66608" lon="6.61499">
        <ele>1519</ele>
        <time>2014-10-20T11:37:27Z</time>
      </trkpt>
      <trkpt lat="45.66601" lon="6.61474">
        <ele>1518</ele>
        <time>2014-10-20T11:37:30Z</time>
      </trkpt>
      <trkpt lat="45.66591" lon="6.6145">
        <ele>1517</ele>
        <time>2014-10-20T11:37:33Z</time>
      </trkpt>
      <trkpt lat="45.66585" lon="6.61435">
        <ele>1517</ele>
        <time>2014-10-20T11:37:35Z</time>
      </trkpt>
      <trkpt lat="45.66593" lon="6.61415">
        <ele>1517</ele>
        <time>2014-10-20T11:37:38Z</time>
      </trkpt>
      <trkpt lat="45.66609" lon="6.61418">
        <ele>1517</ele>
        <time>2014-10-20T11:37:41Z</time>
      </trkpt>
      <trkpt lat="45.66621" lon="6.6142">
        <ele>1517</ele>
        <time>2014-10-20T11:37:43Z</time>
      </trkpt>
      <trkpt lat="45.66631" lon="6.61426">
        <ele>1517</ele>
        <time>2014-10-20T11:37:45Z</time>
      </trkpt>
      <trkpt lat="45.66641" lon="6.61442">
        <ele>1518</ele>
        <time>2014-10-20T11:37:48Z</time>
      </trkpt>
      <trkpt lat="45.66648" lon="6.61453">
        <ele>1518</ele>
        <time>2014-10-20T11:37:50Z</time>
      </trkpt>
      <trkpt lat="45.66661" lon="6.61465">
        <ele>1520</ele>
        <time>2014-10-20T11:37:53Z</time>
      </trkpt>
      <trkpt lat="45.66673" lon="6.61463">
        <ele>1521</ele>
        <time>2014-10-20T11:37:55Z</time>
      </trkpt>
      <trkpt lat="45.66684" lon="6.61458">
        <ele>1521</ele>
        <time>2014-10-20T11:37:57Z</time>
      </trkpt>
      <trkpt lat="45.66693" lon="6.61447">
        <ele>1521</ele>
        <time>2014-10-20T11:37:59Z</time>
      </trkpt>
      <trkpt lat="45.66705" lon="6.61434">
        <ele>1521</ele>
        <time>2014-10-20T11:38:02Z</time>
      </trkpt>
      <trkpt lat="45.66713" lon="6.61436">
        <ele>1521</ele>
        <time>2014-10-20T11:38:04Z</time>
      </trkpt>
      <trkpt lat="45.66722" lon="6.61439">
        <ele>1521</ele>
        <time>2014-10-20T11:38:07Z</time>
      </trkpt>
      <trkpt lat="45.66729" lon="6.61438">
        <ele>1522</ele>
        <time>2014-10-20T11:38:09Z</time>
      </trkpt>
      <trkpt lat="45.66735" lon="6.61435">
        <ele>1522</ele>
        <time>2014-10-20T11:38:11Z</time>
      </trkpt>
      <trkpt lat="45.66748" lon="6.61432">
        <ele>1523</ele>
        <time>2014-10-20T11:38:14Z</time>
      </trkpt>
      <trkpt lat="45.6676" lon="6.61432">
        <ele>1524</ele>
        <time>2014-10-20T11:38:17Z</time>
      </trkpt>
      <trkpt lat="45.66772" lon="6.61434">
        <ele>1524</ele>
        <time>2014-10-20T11:38:20Z</time>
      </trkpt>
      <trkpt lat="45.66779" lon="6.61433">
        <ele>1524</ele>
        <time>2014-10-20T11:38:22Z</time>
      </trkpt>
      <trkpt lat="45.66792" lon="6.61432">
        <ele>1525</ele>
        <time>2014-10-20T11:38:25Z</time>
      </trkpt>
      <trkpt lat="45.66801" lon="6.6143">
        <ele>1525</ele>
        <time>2014-10-20T11:38:27Z</time>
      </trkpt>
      <trkpt lat="45.66816" lon="6.61422">
        <ele>1525</ele>
        <time>2014-10-20T11:38:30Z</time>
      </trkpt>
      <trkpt lat="45.66831" lon="6.61413">
        <ele>1525</ele>
        <time>2014-10-20T11:38:33Z</time>
      </trkpt>
      <trkpt lat="45.66846" lon="6.6141">
        <ele>1525</ele>
        <time>2014-10-20T11:38:36Z</time>
      </trkpt>
      <trkpt lat="45.66856" lon="6.61407">
        <ele>1525</ele>
        <time>2014-10-20T11:38:38Z</time>
      </trkpt>
      <trkpt lat="45.66865" lon="6.61402">
        <ele>1525</ele>
        <time>2014-10-20T11:38:40Z</time>
      </trkpt>
      <trkpt lat="45.66878" lon="6.61393">
        <ele>1525</ele>
        <time>2014-10-20T11:38:43Z</time>
      </trkpt>
      <trkpt lat="45.6689" lon="6.61383">
        <ele>1525</ele>
        <time>2014-10-20T11:38:46Z</time>
      </trkpt>
      <trkpt lat="45.66898" lon="6.61376">
        <ele>1526</ele>
        <time>2014-10-20T11:38:48Z</time>
      </trkpt>
      <trkpt lat="45.66906" lon="6.61372">
        <ele>1527</ele>
        <time>2014-10-20T11:38:50Z</time>
      </trkpt>
      <trkpt lat="45.66913" lon="6.6137">
        <ele>1527</ele>
        <time>2014-10-20T11:38:52Z</time>
      </trkpt>
      <trkpt lat="45.66924" lon="6.61368">
        <ele>1527</ele>
        <time>2014-10-20T11:38:55Z</time>
      </trkpt>
      <trkpt lat="45.66936" lon="6.61364">
        <ele>1528</ele>
        <time>2014-10-20T11:38:58Z</time>
      </trkpt>
      <trkpt lat="45.66944" lon="6.61361">
        <ele>1529</ele>
        <time>2014-10-20T11:39:00Z</time>
      </trkpt>
      <trkpt lat="45.66956" lon="6.61356">
        <ele>1530</ele>
        <time>2014-10-20T11:39:03Z</time>
      </trkpt>
      <trkpt lat="45.66969" lon="6.6136">
        <ele>1530</ele>
        <time>2014-10-20T11:39:06Z</time>
      </trkpt>
      <trkpt lat="45.66978" lon="6.61368">
        <ele>1531</ele>
        <time>2014-10-20T11:39:09Z</time>
      </trkpt>
      <trkpt lat="45.66987" lon="6.61373">
        <ele>1532</ele>
        <time>2014-10-20T11:39:11Z</time>
      </trkpt>
      <trkpt lat="45.66996" lon="6.61374">
        <ele>1532</ele>
        <time>2014-10-20T11:39:13Z</time>
      </trkpt>
      <trkpt lat="45.67009" lon="6.61369">
        <ele>1533</ele>
        <time>2014-10-20T11:39:16Z</time>
      </trkpt>
      <trkpt lat="45.67016" lon="6.61366">
        <ele>1534</ele>
        <time>2014-10-20T11:39:18Z</time>
      </trkpt>
      <trkpt lat="45.67021" lon="6.61371">
        <ele>1534</ele>
        <time>2014-10-20T11:39:20Z</time>
      </trkpt>
      <trkpt lat="45.67026" lon="6.61382">
        <ele>1535</ele>
        <time>2014-10-20T11:39:23Z</time>
      </trkpt>
      <trkpt lat="45.67031" lon="6.61388">
        <ele>1535</ele>
        <time>2014-10-20T11:39:25Z</time>
      </trkpt>
      <trkpt lat="45.6704" lon="6.61397">
        <ele>1536</ele>
        <time>2014-10-20T11:39:28Z</time>
      </trkpt>
      <trkpt lat="45.67047" lon="6.61402">
        <ele>1536</ele>
        <time>2014-10-20T11:39:30Z</time>
      </trkpt>
      <trkpt lat="45.67054" lon="6.61406">
        <ele>1536</ele>
        <time>2014-10-20T11:39:32Z</time>
      </trkpt>
      <trkpt lat="45.67066" lon="6.6141">
        <ele>1537</ele>
        <time>2014-10-20T11:39:35Z</time>
      </trkpt>
      <trkpt lat="45.67074" lon="6.61412">
        <ele>1538</ele>
        <time>2014-10-20T11:39:37Z</time>
      </trkpt>
      <trkpt lat="45.67085" lon="6.61415">
        <ele>1539</ele>
        <time>2014-10-20T11:39:40Z</time>
      </trkpt>
      <trkpt lat="45.67093" lon="6.61419">
        <ele>1539</ele>
        <time>2014-10-20T11:39:42Z</time>
      </trkpt>
      <trkpt lat="45.67104" lon="6.61426">
        <ele>1539</ele>
        <time>2014-10-20T11:39:45Z</time>
      </trkpt>
      <trkpt lat="45.67111" lon="6.61433">
        <ele>1539</ele>
        <time>2014-10-20T11:39:47Z</time>
      </trkpt>
      <trkpt lat="45.67119" lon="6.61438">
        <ele>1539</ele>
        <time>2014-10-20T11:39:50Z</time>
      </trkpt>
      <trkpt lat="45.6712" lon="6.6144">
        <ele>1539</ele>
        <time>2014-10-20T11:39:52Z</time>
      </trkpt>
      <trkpt lat="45.67126" lon="6.61446">
        <ele>1539</ele>
        <time>2014-10-20T11:39:54Z</time>
      </trkpt>
      <trkpt lat="45.67132" lon="6.61446">
        <ele>1539</ele>
        <time>2014-10-20T11:39:57Z</time>
      </trkpt>
      <trkpt lat="45.67141" lon="6.61444">
        <ele>1539</ele>
        <time>2014-10-20T11:39:59Z</time>
      </trkpt>
      <trkpt lat="45.6715" lon="6.61438">
        <ele>1539</ele>
        <time>2014-10-20T11:40:01Z</time>
      </trkpt>
      <trkpt lat="45.67164" lon="6.61421">
        <ele>1539</ele>
        <time>2014-10-20T11:40:04Z</time>
      </trkpt>
      <trkpt lat="45.67177" lon="6.61413">
        <ele>1539</ele>
        <time>2014-10-20T11:40:06Z</time>
      </trkpt>
      <trkpt lat="45.67195" lon="6.61402">
        <ele>1538</ele>
        <time>2014-10-20T11:40:09Z</time>
      </trkpt>
      <trkpt lat="45.67206" lon="6.61392">
        <ele>1538</ele>
        <time>2014-10-20T11:40:11Z</time>
      </trkpt>
      <trkpt lat="45.67228" lon="6.61384">
        <ele>1537</ele>
        <time>2014-10-20T11:40:14Z</time>
      </trkpt>
      <trkpt lat="45.67242" lon="6.61376">
        <ele>1538</ele>
        <time>2014-10-20T11:40:16Z</time>
      </trkpt>
      <trkpt lat="45.67254" lon="6.61365">
        <ele>1538</ele>
        <time>2014-10-20T11:40:18Z</time>
      </trkpt>
      <trkpt lat="45.67269" lon="6.61348">
        <ele>1539</ele>
        <time>2014-10-20T11:40:21Z</time>
      </trkpt>
      <trkpt lat="45.67276" lon="6.61337">
        <ele>1540</ele>
        <time>2014-10-20T11:40:23Z</time>
      </trkpt>
      <trkpt lat="45.67286" lon="6.61322">
        <ele>1540</ele>
        <time>2014-10-20T11:40:26Z</time>
      </trkpt>
      <trkpt lat="45.67293" lon="6.61317">
        <ele>1541</ele>
        <time>2014-10-20T11:40:28Z</time>
      </trkpt>
      <trkpt lat="45.67299" lon="6.61318">
        <ele>1542</ele>
        <time>2014-10-20T11:40:30Z</time>
      </trkpt>
      <trkpt lat="45.67306" lon="6.61322">
        <ele>1543</ele>
        <time>2014-10-20T11:40:33Z</time>
      </trkpt>
      <trkpt lat="45.67311" lon="6.61326">
        <ele>1544</ele>
        <time>2014-10-20T11:40:35Z</time>
      </trkpt>
      <trkpt lat="45.67318" lon="6.61328">
        <ele>1544</ele>
        <time>2014-10-20T11:40:37Z</time>
      </trkpt>
      <trkpt lat="45.67323" lon="6.61329">
        <ele>1545</ele>
        <time>2014-10-20T11:40:39Z</time>
      </trkpt>
      <trkpt lat="45.67329" lon="6.61329">
        <ele>1545</ele>
        <time>2014-10-20T11:40:41Z</time>
      </trkpt>
      <trkpt lat="45.67339" lon="6.61328">
        <ele>1545</ele>
        <time>2014-10-20T11:40:44Z</time>
      </trkpt>
      <trkpt lat="45.67349" lon="6.61326">
        <ele>1546</ele>
        <time>2014-10-20T11:40:47Z</time>
      </trkpt>
      <trkpt lat="45.6736" lon="6.61325">
        <ele>1548</ele>
        <time>2014-10-20T11:40:50Z</time>
      </trkpt>
      <trkpt lat="45.67369" lon="6.61323">
        <ele>1549</ele>
        <time>2014-10-20T11:40:53Z</time>
      </trkpt>
      <trkpt lat="45.67376" lon="6.61322">
        <ele>1549</ele>
        <time>2014-10-20T11:40:55Z</time>
      </trkpt>
      <trkpt lat="45.67382" lon="6.61319">
        <ele>1549</ele>
        <time>2014-10-20T11:40:57Z</time>
      </trkpt>
      <trkpt lat="45.67389" lon="6.61311">
        <ele>1550</ele>
        <time>2014-10-20T11:41:00Z</time>
      </trkpt>
      <trkpt lat="45.67394" lon="6.61304">
        <ele>1550</ele>
        <time>2014-10-20T11:41:02Z</time>
      </trkpt>
      <trkpt lat="45.67401" lon="6.61293">
        <ele>1552</ele>
        <time>2014-10-20T11:41:05Z</time>
      </trkpt>
      <trkpt lat="45.67404" lon="6.61287">
        <ele>1552</ele>
        <time>2014-10-20T11:41:07Z</time>
      </trkpt>
      <trkpt lat="45.67407" lon="6.61282">
        <ele>1553</ele>
        <time>2014-10-20T11:41:09Z</time>
      </trkpt>
      <trkpt lat="45.67414" lon="6.61275">
        <ele>1554</ele>
        <time>2014-10-20T11:41:12Z</time>
      </trkpt>
      <trkpt lat="45.67419" lon="6.61271">
        <ele>1554</ele>
        <time>2014-10-20T11:41:14Z</time>
      </trkpt>
      <trkpt lat="45.67429" lon="6.61266">
        <ele>1555</ele>
        <time>2014-10-20T11:41:17Z</time>
      </trkpt>
      <trkpt lat="45.67435" lon="6.61262">
        <ele>1555</ele>
        <time>2014-10-20T11:41:19Z</time>
      </trkpt>
      <trkpt lat="45.67442" lon="6.61259">
        <ele>1556</ele>
        <time>2014-10-20T11:41:21Z</time>
      </trkpt>
      <trkpt lat="45.67453" lon="6.61258">
        <ele>1556</ele>
        <time>2014-10-20T11:41:24Z</time>
      </trkpt>
      <trkpt lat="45.67461" lon="6.61256">
        <ele>1557</ele>
        <time>2014-10-20T11:41:26Z</time>
      </trkpt>
      <trkpt lat="45.67473" lon="6.61251">
        <ele>1557</ele>
        <time>2014-10-20T11:41:29Z</time>
      </trkpt>
      <trkpt lat="45.6748" lon="6.61247">
        <ele>1558</ele>
        <time>2014-10-20T11:41:31Z</time>
      </trkpt>
      <trkpt lat="45.6749" lon="6.61238">
        <ele>1560</ele>
        <time>2014-10-20T11:41:34Z</time>
      </trkpt>
      <trkpt lat="45.67496" lon="6.61232">
        <ele>1561</ele>
        <time>2014-10-20T11:41:36Z</time>
      </trkpt>
      <trkpt lat="45.67503" lon="6.61228">
        <ele>1562</ele>
        <time>2014-10-20T11:41:38Z</time>
      </trkpt>
      <trkpt lat="45.67514" lon="6.61225">
        <ele>1563</ele>
        <time>2014-10-20T11:41:41Z</time>
      </trkpt>
      <trkpt lat="45.67521" lon="6.61222">
        <ele>1564</ele>
        <time>2014-10-20T11:41:43Z</time>
      </trkpt>
      <trkpt lat="45.67532" lon="6.61218">
        <ele>1565</ele>
        <time>2014-10-20T11:41:46Z</time>
      </trkpt>
      <trkpt lat="45.6754" lon="6.61212">
        <ele>1565</ele>
        <time>2014-10-20T11:41:49Z</time>
      </trkpt>
      <trkpt lat="45.67544" lon="6.61209">
        <ele>1565</ele>
        <time>2014-10-20T11:41:51Z</time>
      </trkpt>
      <trkpt lat="45.67546" lon="6.61206">
        <ele>1566</ele>
        <time>2014-10-20T11:41:53Z</time>
      </trkpt>
      <trkpt lat="45.6755" lon="6.61203">
        <ele>1566</ele>
        <time>2014-10-20T11:41:55Z</time>
      </trkpt>
      <trkpt lat="45.67556" lon="6.61201">
        <ele>1567</ele>
        <time>2014-10-20T11:41:58Z</time>
      </trkpt>
      <trkpt lat="45.6756" lon="6.612">
        <ele>1568</ele>
        <time>2014-10-20T11:42:00Z</time>
      </trkpt>
      <trkpt lat="45.67564" lon="6.61199">
        <ele>1568</ele>
        <time>2014-10-20T11:42:02Z</time>
      </trkpt>
      <trkpt lat="45.67569" lon="6.61198">
        <ele>1569</ele>
        <time>2014-10-20T11:42:05Z</time>
      </trkpt>
      <trkpt lat="45.67572" lon="6.61198">
        <ele>1570</ele>
        <time>2014-10-20T11:42:07Z</time>
      </trkpt>
      <trkpt lat="45.67578" lon="6.61198">
        <ele>1571</ele>
        <time>2014-10-20T11:42:10Z</time>
      </trkpt>
      <trkpt lat="45.67584" lon="6.61196">
        <ele>1571</ele>
        <time>2014-10-20T11:42:12Z</time>
      </trkpt>
      <trkpt lat="45.6759" lon="6.61193">
        <ele>1571</ele>
        <time>2014-10-20T11:42:14Z</time>
      </trkpt>
      <trkpt lat="45.67599" lon="6.61188">
        <ele>1571</ele>
        <time>2014-10-20T11:42:17Z</time>
      </trkpt>
      <trkpt lat="45.67604" lon="6.61183">
        <ele>1571</ele>
        <time>2014-10-20T11:42:19Z</time>
      </trkpt>
      <trkpt lat="45.67609" lon="6.61173">
        <ele>1572</ele>
        <time>2014-10-20T11:42:22Z</time>
      </trkpt>
      <trkpt lat="45.67614" lon="6.61165">
        <ele>1573</ele>
        <time>2014-10-20T11:42:24Z</time>
      </trkpt>
      <trkpt lat="45.67621" lon="6.61157">
        <ele>1573</ele>
        <time>2014-10-20T11:42:26Z</time>
      </trkpt>
      <trkpt lat="45.67636" lon="6.61146">
        <ele>1573</ele>
        <time>2014-10-20T11:42:29Z</time>
      </trkpt>
      <trkpt lat="45.67651" lon="6.61142">
        <ele>1573</ele>
        <time>2014-10-20T11:42:31Z</time>
      </trkpt>
      <trkpt lat="45.67666" lon="6.61141">
        <ele>1572</ele>
        <time>2014-10-20T11:42:33Z</time>
      </trkpt>
      <trkpt lat="45.67691" lon="6.61138">
        <ele>1572</ele>
        <time>2014-10-20T11:42:36Z</time>
      </trkpt>
      <trkpt lat="45.67706" lon="6.61141">
        <ele>1572</ele>
        <time>2014-10-20T11:42:38Z</time>
      </trkpt>
      <trkpt lat="45.67727" lon="6.61146">
        <ele>1573</ele>
        <time>2014-10-20T11:42:41Z</time>
      </trkpt>
      <trkpt lat="45.67739" lon="6.61149">
        <ele>1573</ele>
        <time>2014-10-20T11:42:43Z</time>
      </trkpt>
      <trkpt lat="45.67751" lon="6.61144">
        <ele>1574</ele>
        <time>2014-10-20T11:42:46Z</time>
      </trkpt>
      <trkpt lat="45.67756" lon="6.61136">
        <ele>1574</ele>
        <time>2014-10-20T11:42:48Z</time>
      </trkpt>
      <trkpt lat="45.67762" lon="6.61128">
        <ele>1575</ele>
        <time>2014-10-20T11:42:50Z</time>
      </trkpt>
      <trkpt lat="45.67772" lon="6.6112">
        <ele>1575</ele>
        <time>2014-10-20T11:42:53Z</time>
      </trkpt>
      <trkpt lat="45.67779" lon="6.61118">
        <ele>1576</ele>
        <time>2014-10-20T11:42:55Z</time>
      </trkpt>
      <trkpt lat="45.67787" lon="6.61116">
        <ele>1576</ele>
        <time>2014-10-20T11:42:57Z</time>
      </trkpt>
      <trkpt lat="45.67797" lon="6.61113">
        <ele>1577</ele>
        <time>2014-10-20T11:43:00Z</time>
      </trkpt>
      <trkpt lat="45.67809" lon="6.61113">
        <ele>1577</ele>
        <time>2014-10-20T11:43:03Z</time>
      </trkpt>
      <trkpt lat="45.67819" lon="6.61117">
        <ele>1578</ele>
        <time>2014-10-20T11:43:06Z</time>
      </trkpt>
      <trkpt lat="45.67825" lon="6.61121">
        <ele>1579</ele>
        <time>2014-10-20T11:43:08Z</time>
      </trkpt>
      <trkpt lat="45.67831" lon="6.61126">
        <ele>1579</ele>
        <time>2014-10-20T11:43:10Z</time>
      </trkpt>
      <trkpt lat="45.67839" lon="6.61131">
        <ele>1580</ele>
        <time>2014-10-20T11:43:13Z</time>
      </trkpt>
      <trkpt lat="45.67844" lon="6.61135">
        <ele>1581</ele>
        <time>2014-10-20T11:43:15Z</time>
      </trkpt>
      <trkpt lat="45.67849" lon="6.61137">
        <ele>1581</ele>
        <time>2014-10-20T11:43:17Z</time>
      </trkpt>
      <trkpt lat="45.67859" lon="6.61136">
        <ele>1583</ele>
        <time>2014-10-20T11:43:20Z</time>
      </trkpt>
      <trkpt lat="45.6787" lon="6.61132">
        <ele>1584</ele>
        <time>2014-10-20T11:43:23Z</time>
      </trkpt>
      <trkpt lat="45.67878" lon="6.61133">
        <ele>1584</ele>
        <time>2014-10-20T11:43:25Z</time>
      </trkpt>
      <trkpt lat="45.67886" lon="6.61135">
        <ele>1583</ele>
        <time>2014-10-20T11:43:27Z</time>
      </trkpt>
      <trkpt lat="45.67895" lon="6.61138">
        <ele>1584</ele>
        <time>2014-10-20T11:43:29Z</time>
      </trkpt>
      <trkpt lat="45.67904" lon="6.6114">
        <ele>1584</ele>
        <time>2014-10-20T11:43:31Z</time>
      </trkpt>
      <trkpt lat="45.67917" lon="6.61143">
        <ele>1584</ele>
        <time>2014-10-20T11:43:34Z</time>
      </trkpt>
      <trkpt lat="45.67927" lon="6.61144">
        <ele>1584</ele>
        <time>2014-10-20T11:43:36Z</time>
      </trkpt>
      <trkpt lat="45.67942" lon="6.61145">
        <ele>1584</ele>
        <time>2014-10-20T11:43:39Z</time>
      </trkpt>
      <trkpt lat="45.67952" lon="6.61145">
        <ele>1584</ele>
        <time>2014-10-20T11:43:41Z</time>
      </trkpt>
      <trkpt lat="45.67961" lon="6.61144">
        <ele>1584</ele>
        <time>2014-10-20T11:43:43Z</time>
      </trkpt>
      <trkpt lat="45.67978" lon="6.61144">
        <ele>1584</ele>
        <time>2014-10-20T11:43:46Z</time>
      </trkpt>
      <trkpt lat="45.67989" lon="6.61146">
        <ele>1584</ele>
        <time>2014-10-20T11:43:48Z</time>
      </trkpt>
      <trkpt lat="45.68" lon="6.61147">
        <ele>1584</ele>
        <time>2014-10-20T11:43:50Z</time>
      </trkpt>
      <trkpt lat="45.68022" lon="6.61147">
        <ele>1584</ele>
        <time>2014-10-20T11:43:53Z</time>
      </trkpt>
      <trkpt lat="45.68039" lon="6.61146">
        <ele>1585</ele>
        <time>2014-10-20T11:43:55Z</time>
      </trkpt>
      <trkpt lat="45.68066" lon="6.61146">
        <ele>1585</ele>
        <time>2014-10-20T11:43:58Z</time>
      </trkpt>
      <trkpt lat="45.68086" lon="6.61143">
        <ele>1583</ele>
        <time>2014-10-20T11:44:00Z</time>
      </trkpt>
      <trkpt lat="45.68115" lon="6.61145">
        <ele>1581</ele>
        <time>2014-10-20T11:44:03Z</time>
      </trkpt>
      <trkpt lat="45.68132" lon="6.61144">
        <ele>1579</ele>
        <time>2014-10-20T11:44:05Z</time>
      </trkpt>
      <trkpt lat="45.68149" lon="6.61132">
        <ele>1578</ele>
        <time>2014-10-20T11:44:07Z</time>
      </trkpt>
      <trkpt lat="45.6816" lon="6.61111">
        <ele>1576</ele>
        <time>2014-10-20T11:44:09Z</time>
      </trkpt>
      <trkpt lat="45.68179" lon="6.611">
        <ele>1572</ele>
        <time>2014-10-20T11:44:12Z</time>
      </trkpt>
      <trkpt lat="45.68191" lon="6.61111">
        <ele>1570</ele>
        <time>2014-10-20T11:44:14Z</time>
      </trkpt>
      <trkpt lat="45.68207" lon="6.61133">
        <ele>1566</ele>
        <time>2014-10-20T11:44:17Z</time>
      </trkpt>
      <trkpt lat="45.68216" lon="6.61135">
        <ele>1565</ele>
        <time>2014-10-20T11:44:19Z</time>
      </trkpt>
      <trkpt lat="45.68225" lon="6.61131">
        <ele>1564</ele>
        <time>2014-10-20T11:44:21Z</time>
      </trkpt>
      <trkpt lat="45.68238" lon="6.61127">
        <ele>1562</ele>
        <time>2014-10-20T11:44:24Z</time>
      </trkpt>
      <trkpt lat="45.68245" lon="6.61124">
        <ele>1562</ele>
        <time>2014-10-20T11:44:26Z</time>
      </trkpt>
      <trkpt lat="45.68256" lon="6.6112">
        <ele>1564</ele>
        <time>2014-10-20T11:44:29Z</time>
      </trkpt>
      <trkpt lat="45.68264" lon="6.61118">
        <ele>1564</ele>
        <time>2014-10-20T11:44:31Z</time>
      </trkpt>
      <trkpt lat="45.68274" lon="6.61112">
        <ele>1566</ele>
        <time>2014-10-20T11:44:34Z</time>
      </trkpt>
      <trkpt lat="45.6828" lon="6.61106">
        <ele>1566</ele>
        <time>2014-10-20T11:44:36Z</time>
      </trkpt>
      <trkpt lat="45.68286" lon="6.611">
        <ele>1567</ele>
        <time>2014-10-20T11:44:38Z</time>
      </trkpt>
      <trkpt lat="45.68297" lon="6.6109">
        <ele>1568</ele>
        <time>2014-10-20T11:44:41Z</time>
      </trkpt>
      <trkpt lat="45.68305" lon="6.61081">
        <ele>1568</ele>
        <time>2014-10-20T11:44:43Z</time>
      </trkpt>
      <trkpt lat="45.68313" lon="6.61072">
        <ele>1569</ele>
        <time>2014-10-20T11:44:45Z</time>
      </trkpt>
      <trkpt lat="45.68322" lon="6.61064">
        <ele>1570</ele>
        <time>2014-10-20T11:44:47Z</time>
      </trkpt>
      <trkpt lat="45.6833" lon="6.61056">
        <ele>1571</ele>
        <time>2014-10-20T11:44:49Z</time>
      </trkpt>
      <trkpt lat="45.68335" lon="6.61047">
        <ele>1571</ele>
        <time>2014-10-20T11:44:51Z</time>
      </trkpt>
      <trkpt lat="45.68341" lon="6.61033">
        <ele>1572</ele>
        <time>2014-10-20T11:44:54Z</time>
      </trkpt>
      <trkpt lat="45.68348" lon="6.61021">
        <ele>1573</ele>
        <time>2014-10-20T11:44:57Z</time>
      </trkpt>
      <trkpt lat="45.68354" lon="6.61013">
        <ele>1574</ele>
        <time>2014-10-20T11:44:59Z</time>
      </trkpt>
      <trkpt lat="45.68364" lon="6.61004">
        <ele>1575</ele>
        <time>2014-10-20T11:45:02Z</time>
      </trkpt>
      <trkpt lat="45.68371" lon="6.61002">
        <ele>1575</ele>
        <time>2014-10-20T11:45:04Z</time>
      </trkpt>
      <trkpt lat="45.68377" lon="6.61002">
        <ele>1576</ele>
        <time>2014-10-20T11:45:06Z</time>
      </trkpt>
      <trkpt lat="45.68387" lon="6.61002">
        <ele>1576</ele>
        <time>2014-10-20T11:45:09Z</time>
      </trkpt>
      <trkpt lat="45.68393" lon="6.61003">
        <ele>1577</ele>
        <time>2014-10-20T11:45:11Z</time>
      </trkpt>
      <trkpt lat="45.684" lon="6.61003">
        <ele>1578</ele>
        <time>2014-10-20T11:45:13Z</time>
      </trkpt>
      <trkpt lat="45.6841" lon="6.60999">
        <ele>1579</ele>
        <time>2014-10-20T11:45:16Z</time>
      </trkpt>
      <trkpt lat="45.68416" lon="6.60995">
        <ele>1580</ele>
        <time>2014-10-20T11:45:18Z</time>
      </trkpt>
      <trkpt lat="45.68422" lon="6.6099">
        <ele>1581</ele>
        <time>2014-10-20T11:45:20Z</time>
      </trkpt>
      <trkpt lat="45.68431" lon="6.6098">
        <ele>1581</ele>
        <time>2014-10-20T11:45:23Z</time>
      </trkpt>
      <trkpt lat="45.68436" lon="6.60972">
        <ele>1582</ele>
        <time>2014-10-20T11:45:25Z</time>
      </trkpt>
      <trkpt lat="45.68441" lon="6.60964">
        <ele>1583</ele>
        <time>2014-10-20T11:45:27Z</time>
      </trkpt>
      <trkpt lat="45.68449" lon="6.60951">
        <ele>1584</ele>
        <time>2014-10-20T11:45:30Z</time>
      </trkpt>
      <trkpt lat="45.68452" lon="6.6094">
        <ele>1584</ele>
        <time>2014-10-20T11:45:32Z</time>
      </trkpt>
      <trkpt lat="45.68453" lon="6.60929">
        <ele>1584</ele>
        <time>2014-10-20T11:45:34Z</time>
      </trkpt>
      <trkpt lat="45.68454" lon="6.60912">
        <ele>1583</ele>
        <time>2014-10-20T11:45:37Z</time>
      </trkpt>
      <trkpt lat="45.68454" lon="6.60901">
        <ele>1583</ele>
        <time>2014-10-20T11:45:39Z</time>
      </trkpt>
      <trkpt lat="45.68456" lon="6.60889">
        <ele>1584</ele>
        <time>2014-10-20T11:45:41Z</time>
      </trkpt>
      <trkpt lat="45.68461" lon="6.60874">
        <ele>1585</ele>
        <time>2014-10-20T11:45:44Z</time>
      </trkpt>
      <trkpt lat="45.68465" lon="6.60863">
        <ele>1585</ele>
        <time>2014-10-20T11:45:46Z</time>
      </trkpt>
      <trkpt lat="45.68472" lon="6.6085">
        <ele>1586</ele>
        <time>2014-10-20T11:45:49Z</time>
      </trkpt>
      <trkpt lat="45.68478" lon="6.60842">
        <ele>1587</ele>
        <time>2014-10-20T11:45:51Z</time>
      </trkpt>
      <trkpt lat="45.68486" lon="6.60837">
        <ele>1588</ele>
        <time>2014-10-20T11:45:53Z</time>
      </trkpt>
      <trkpt lat="45.68499" lon="6.60836">
        <ele>1589</ele>
        <time>2014-10-20T11:45:56Z</time>
      </trkpt>
      <trkpt lat="45.68506" lon="6.60839">
        <ele>1589</ele>
        <time>2014-10-20T11:45:58Z</time>
      </trkpt>
      <trkpt lat="45.68512" lon="6.60841">
        <ele>1590</ele>
        <time>2014-10-20T11:46:00Z</time>
      </trkpt>
      <trkpt lat="45.68518" lon="6.60844">
        <ele>1590</ele>
        <time>2014-10-20T11:46:02Z</time>
      </trkpt>
      <trkpt lat="45.68524" lon="6.60847">
        <ele>1591</ele>
        <time>2014-10-20T11:46:04Z</time>
      </trkpt>
      <trkpt lat="45.68534" lon="6.60849">
        <ele>1591</ele>
        <time>2014-10-20T11:46:07Z</time>
      </trkpt>
      <trkpt lat="45.6854" lon="6.60847">
        <ele>1592</ele>
        <time>2014-10-20T11:46:09Z</time>
      </trkpt>
      <trkpt lat="45.6855" lon="6.6084">
        <ele>1594</ele>
        <time>2014-10-20T11:46:12Z</time>
      </trkpt>
      <trkpt lat="45.68557" lon="6.60835">
        <ele>1594</ele>
        <time>2014-10-20T11:46:14Z</time>
      </trkpt>
      <trkpt lat="45.68566" lon="6.60828">
        <ele>1595</ele>
        <time>2014-10-20T11:46:17Z</time>
      </trkpt>
      <trkpt lat="45.68573" lon="6.60822">
        <ele>1595</ele>
        <time>2014-10-20T11:46:19Z</time>
      </trkpt>
      <trkpt lat="45.68582" lon="6.60812">
        <ele>1595</ele>
        <time>2014-10-20T11:46:22Z</time>
      </trkpt>
      <trkpt lat="45.68589" lon="6.60804">
        <ele>1595</ele>
        <time>2014-10-20T11:46:24Z</time>
      </trkpt>
      <trkpt lat="45.68596" lon="6.60795">
        <ele>1595</ele>
        <time>2014-10-20T11:46:26Z</time>
      </trkpt>
      <trkpt lat="45.68604" lon="6.60786">
        <ele>1596</ele>
        <time>2014-10-20T11:46:28Z</time>
      </trkpt>
      <trkpt lat="45.68612" lon="6.60778">
        <ele>1596</ele>
        <time>2014-10-20T11:46:30Z</time>
      </trkpt>
      <trkpt lat="45.6862" lon="6.60768">
        <ele>1596</ele>
        <time>2014-10-20T11:46:32Z</time>
      </trkpt>
      <trkpt lat="45.68633" lon="6.60753">
        <ele>1597</ele>
        <time>2014-10-20T11:46:35Z</time>
      </trkpt>
      <trkpt lat="45.6864" lon="6.60743">
        <ele>1597</ele>
        <time>2014-10-20T11:46:37Z</time>
      </trkpt>
      <trkpt lat="45.68648" lon="6.60724">
        <ele>1597</ele>
        <time>2014-10-20T11:46:40Z</time>
      </trkpt>
      <trkpt lat="45.68654" lon="6.6071">
        <ele>1597</ele>
        <time>2014-10-20T11:46:42Z</time>
      </trkpt>
      <trkpt lat="45.68663" lon="6.6069">
        <ele>1597</ele>
        <time>2014-10-20T11:46:45Z</time>
      </trkpt>
      <trkpt lat="45.68668" lon="6.60675">
        <ele>1598</ele>
        <time>2014-10-20T11:46:47Z</time>
      </trkpt>
      <trkpt lat="45.68679" lon="6.60657">
        <ele>1598</ele>
        <time>2014-10-20T11:46:50Z</time>
      </trkpt>
      <trkpt lat="45.68686" lon="6.60647">
        <ele>1598</ele>
        <time>2014-10-20T11:46:52Z</time>
      </trkpt>
      <trkpt lat="45.68693" lon="6.60638">
        <ele>1598</ele>
        <time>2014-10-20T11:46:54Z</time>
      </trkpt>
      <trkpt lat="45.687" lon="6.60621">
        <ele>1598</ele>
        <time>2014-10-20T11:46:57Z</time>
      </trkpt>
      <trkpt lat="45.68705" lon="6.6061">
        <ele>1598</ele>
        <time>2014-10-20T11:46:59Z</time>
      </trkpt>
      <trkpt lat="45.68714" lon="6.60594">
        <ele>1599</ele>
        <time>2014-10-20T11:47:02Z</time>
      </trkpt>
      <trkpt lat="45.68719" lon="6.60584">
        <ele>1600</ele>
        <time>2014-10-20T11:47:04Z</time>
      </trkpt>
      <trkpt lat="45.68724" lon="6.60567">
        <ele>1601</ele>
        <time>2014-10-20T11:47:07Z</time>
      </trkpt>
      <trkpt lat="45.68726" lon="6.60557">
        <ele>1602</ele>
        <time>2014-10-20T11:47:09Z</time>
      </trkpt>
      <trkpt lat="45.68728" lon="6.60547">
        <ele>1602</ele>
        <time>2014-10-20T11:47:11Z</time>
      </trkpt>
      <trkpt lat="45.6873" lon="6.60536">
        <ele>1602</ele>
        <time>2014-10-20T11:47:13Z</time>
      </trkpt>
      <trkpt lat="45.68732" lon="6.60523">
        <ele>1602</ele>
        <time>2014-10-20T11:47:15Z</time>
      </trkpt>
      <trkpt lat="45.68734" lon="6.60501">
        <ele>1602</ele>
        <time>2014-10-20T11:47:18Z</time>
      </trkpt>
      <trkpt lat="45.68736" lon="6.60484">
        <ele>1603</ele>
        <time>2014-10-20T11:47:20Z</time>
      </trkpt>
      <trkpt lat="45.68741" lon="6.60459">
        <ele>1603</ele>
        <time>2014-10-20T11:47:23Z</time>
      </trkpt>
      <trkpt lat="45.68744" lon="6.60443">
        <ele>1603</ele>
        <time>2014-10-20T11:47:25Z</time>
      </trkpt>
      <trkpt lat="45.6875" lon="6.60418">
        <ele>1603</ele>
        <time>2014-10-20T11:47:28Z</time>
      </trkpt>
      <trkpt lat="45.68753" lon="6.60403">
        <ele>1602</ele>
        <time>2014-10-20T11:47:30Z</time>
      </trkpt>
      <trkpt lat="45.6876" lon="6.60398">
        <ele>1601</ele>
        <time>2014-10-20T11:47:33Z</time>
      </trkpt>
      <trkpt lat="45.68765" lon="6.60395">
        <ele>1600</ele>
        <time>2014-10-20T11:47:35Z</time>
      </trkpt>
      <trkpt lat="45.68779" lon="6.6039">
        <ele>1600</ele>
        <time>2014-10-20T11:47:38Z</time>
      </trkpt>
      <trkpt lat="45.68791" lon="6.60385">
        <ele>1600</ele>
        <time>2014-10-20T11:47:40Z</time>
      </trkpt>
      <trkpt lat="45.68803" lon="6.60378">
        <ele>1601</ele>
        <time>2014-10-20T11:47:42Z</time>
      </trkpt>
      <trkpt lat="45.68816" lon="6.60355">
        <ele>1601</ele>
        <time>2014-10-20T11:47:45Z</time>
      </trkpt>
      <trkpt lat="45.68821" lon="6.60333">
        <ele>1601</ele>
        <time>2014-10-20T11:47:47Z</time>
      </trkpt>
      <trkpt lat="45.68835" lon="6.60304">
        <ele>1600</ele>
        <time>2014-10-20T11:47:50Z</time>
      </trkpt>
      <trkpt lat="45.68847" lon="6.6029">
        <ele>1600</ele>
        <time>2014-10-20T11:47:52Z</time>
      </trkpt>
      <trkpt lat="45.68859" lon="6.60279">
        <ele>1600</ele>
        <time>2014-10-20T11:47:54Z</time>
      </trkpt>
      <trkpt lat="45.68871" lon="6.60267">
        <ele>1601</ele>
        <time>2014-10-20T11:47:56Z</time>
      </trkpt>
      <trkpt lat="45.68879" lon="6.60251">
        <ele>1601</ele>
        <time>2014-10-20T11:47:58Z</time>
      </trkpt>
      <trkpt lat="45.68885" lon="6.60221">
        <ele>1601</ele>
        <time>2014-10-20T11:48:01Z</time>
      </trkpt>
      <trkpt lat="45.68888" lon="6.602">
        <ele>1601</ele>
        <time>2014-10-20T11:48:03Z</time>
      </trkpt>
      <trkpt lat="45.68893" lon="6.60167">
        <ele>1601</ele>
        <time>2014-10-20T11:48:06Z</time>
      </trkpt>
      <trkpt lat="45.68896" lon="6.60133">
        <ele>1601</ele>
        <time>2014-10-20T11:48:09Z</time>
      </trkpt>
      <trkpt lat="45.68901" lon="6.601">
        <ele>1600</ele>
        <time>2014-10-20T11:48:12Z</time>
      </trkpt>
      <trkpt lat="45.68912" lon="6.60081">
        <ele>1599</ele>
        <time>2014-10-20T11:48:14Z</time>
      </trkpt>
      <trkpt lat="45.68928" lon="6.60069">
        <ele>1599</ele>
        <time>2014-10-20T11:48:16Z</time>
      </trkpt>
      <trkpt lat="45.68952" lon="6.6005">
        <ele>1598</ele>
        <time>2014-10-20T11:48:19Z</time>
      </trkpt>
      <trkpt lat="45.6897" lon="6.60018">
        <ele>1597</ele>
        <time>2014-10-20T11:48:22Z</time>
      </trkpt>
      <trkpt lat="45.68982" lon="6.59992">
        <ele>1596</ele>
        <time>2014-10-20T11:48:24Z</time>
      </trkpt>
      <trkpt lat="45.68996" lon="6.59949">
        <ele>1595</ele>
        <time>2014-10-20T11:48:27Z</time>
      </trkpt>
      <trkpt lat="45.69002" lon="6.59918">
        <ele>1593</ele>
        <time>2014-10-20T11:48:29Z</time>
      </trkpt>
      <trkpt lat="45.69" lon="6.5987">
        <ele>1590</ele>
        <time>2014-10-20T11:48:32Z</time>
      </trkpt>
      <trkpt lat="45.69004" lon="6.59838">
        <ele>1585</ele>
        <time>2014-10-20T11:48:35Z</time>
      </trkpt>
      <trkpt lat="45.69005" lon="6.5982">
        <ele>1580</ele>
        <time>2014-10-20T11:48:38Z</time>
      </trkpt>
      <trkpt lat="45.69006" lon="6.59814">
        <ele>1578</ele>
        <time>2014-10-20T11:48:40Z</time>
      </trkpt>
      <trkpt lat="45.69" lon="6.59806">
        <ele>1577</ele>
        <time>2014-10-20T11:48:43Z</time>
      </trkpt>
      <trkpt lat="45.68997" lon="6.59808">
        <ele>1577</ele>
        <time>2014-10-20T11:48:45Z</time>
      </trkpt>
      <trkpt lat="45.69003" lon="6.59811">
        <ele>1577</ele>
        <time>2014-10-20T11:48:50Z</time>
      </trkpt>
      <trkpt lat="45.69002" lon="6.59808">
        <ele>1577</ele>
        <time>2014-10-20T11:48:53Z</time>
      </trkpt>
      <trkpt lat="45.69003" lon="6.59805">
        <ele>1577</ele>
        <time>2014-10-20T11:48:55Z</time>
      </trkpt>
      <trkpt lat="45.6901" lon="6.59804">
        <ele>1577</ele>
        <time>2014-10-20T11:48:58Z</time>
      </trkpt>
      <trkpt lat="45.69019" lon="6.59806">
        <ele>1576</ele>
        <time>2014-10-20T11:49:02Z</time>
      </trkpt>
      <trkpt lat="45.69025" lon="6.59814">
        <ele>1575</ele>
        <time>2014-10-20T11:49:04Z</time>
      </trkpt>
      <trkpt lat="45.69025" lon="6.59818">
        <ele>1574</ele>
        <time>2014-10-20T11:49:06Z</time>
      </trkpt>
      <trkpt lat="45.6902" lon="6.59823">
        <ele>1574</ele>
        <time>2014-10-20T11:49:09Z</time>
      </trkpt>
      <trkpt lat="45.69012" lon="6.59834">
        <ele>1575</ele>
        <time>2014-10-20T11:49:11Z</time>
      </trkpt>
      <trkpt lat="45.69008" lon="6.59845">
        <ele>1576</ele>
        <time>2014-10-20T11:49:13Z</time>
      </trkpt>
      <trkpt lat="45.69006" lon="6.59858">
        <ele>1577</ele>
        <time>2014-10-20T11:49:16Z</time>
      </trkpt>
      <trkpt lat="45.69006" lon="6.59871">
        <ele>1578</ele>
        <time>2014-10-20T11:49:18Z</time>
      </trkpt>
      <trkpt lat="45.69007" lon="6.59883">
        <ele>1578</ele>
        <time>2014-10-20T11:49:20Z</time>
      </trkpt>
      <trkpt lat="45.69008" lon="6.59896">
        <ele>1579</ele>
        <time>2014-10-20T11:49:22Z</time>
      </trkpt>
      <trkpt lat="45.69007" lon="6.59913">
        <ele>1580</ele>
        <time>2014-10-20T11:49:24Z</time>
      </trkpt>
      <trkpt lat="45.69006" lon="6.59925">
        <ele>1581</ele>
        <time>2014-10-20T11:49:27Z</time>
      </trkpt>
      <trkpt lat="45.69003" lon="6.5994">
        <ele>1582</ele>
        <time>2014-10-20T11:49:29Z</time>
      </trkpt>
      <trkpt lat="45.69001" lon="6.5995">
        <ele>1582</ele>
        <time>2014-10-20T11:49:31Z</time>
      </trkpt>
      <trkpt lat="45.68998" lon="6.5996">
        <ele>1583</ele>
        <time>2014-10-20T11:49:34Z</time>
      </trkpt>
      <trkpt lat="45.68993" lon="6.59974">
        <ele>1584</ele>
        <time>2014-10-20T11:49:36Z</time>
      </trkpt>
      <trkpt lat="45.6899" lon="6.59983">
        <ele>1585</ele>
        <time>2014-10-20T11:49:39Z</time>
      </trkpt>
      <trkpt lat="45.68984" lon="6.59996">
        <ele>1585</ele>
        <time>2014-10-20T11:49:41Z</time>
      </trkpt>
      <trkpt lat="45.6898" lon="6.60005">
        <ele>1586</ele>
        <time>2014-10-20T11:49:43Z</time>
      </trkpt>
      <trkpt lat="45.68973" lon="6.60018">
        <ele>1586</ele>
        <time>2014-10-20T11:49:46Z</time>
      </trkpt>
      <trkpt lat="45.68969" lon="6.60027">
        <ele>1587</ele>
        <time>2014-10-20T11:49:48Z</time>
      </trkpt>
      <trkpt lat="45.68965" lon="6.60035">
        <ele>1588</ele>
        <time>2014-10-20T11:49:51Z</time>
      </trkpt>
      <trkpt lat="45.68957" lon="6.60046">
        <ele>1589</ele>
        <time>2014-10-20T11:49:53Z</time>
      </trkpt>
      <trkpt lat="45.68951" lon="6.60052">
        <ele>1590</ele>
        <time>2014-10-20T11:49:56Z</time>
      </trkpt>
      <trkpt lat="45.68941" lon="6.6006">
        <ele>1591</ele>
        <time>2014-10-20T11:49:58Z</time>
      </trkpt>
      <trkpt lat="45.68934" lon="6.60065">
        <ele>1591</ele>
        <time>2014-10-20T11:50:00Z</time>
      </trkpt>
      <trkpt lat="45.68927" lon="6.6007">
        <ele>1592</ele>
        <time>2014-10-20T11:50:03Z</time>
      </trkpt>
      <trkpt lat="45.6892" lon="6.60075">
        <ele>1593</ele>
        <time>2014-10-20T11:50:05Z</time>
      </trkpt>
      <trkpt lat="45.68914" lon="6.60081">
        <ele>1593</ele>
        <time>2014-10-20T11:50:07Z</time>
      </trkpt>
      <trkpt lat="45.6891" lon="6.60087">
        <ele>1593</ele>
        <time>2014-10-20T11:50:09Z</time>
      </trkpt>
      <trkpt lat="45.68904" lon="6.60097">
        <ele>1593</ele>
        <time>2014-10-20T11:50:11Z</time>
      </trkpt>
      <trkpt lat="45.689" lon="6.60113">
        <ele>1594</ele>
        <time>2014-10-20T11:50:14Z</time>
      </trkpt>
      <trkpt lat="45.68899" lon="6.60125">
        <ele>1595</ele>
        <time>2014-10-20T11:50:16Z</time>
      </trkpt>
      <trkpt lat="45.68898" lon="6.60138">
        <ele>1595</ele>
        <time>2014-10-20T11:50:18Z</time>
      </trkpt>
      <trkpt lat="45.68896" lon="6.60158">
        <ele>1596</ele>
        <time>2014-10-20T11:50:21Z</time>
      </trkpt>
      <trkpt lat="45.68894" lon="6.60172">
        <ele>1597</ele>
        <time>2014-10-20T11:50:23Z</time>
      </trkpt>
      <trkpt lat="45.68893" lon="6.60185">
        <ele>1597</ele>
        <time>2014-10-20T11:50:26Z</time>
      </trkpt>
      <trkpt lat="45.68891" lon="6.60205">
        <ele>1598</ele>
        <time>2014-10-20T11:50:28Z</time>
      </trkpt>
      <trkpt lat="45.68889" lon="6.60218">
        <ele>1598</ele>
        <time>2014-10-20T11:50:31Z</time>
      </trkpt>
      <trkpt lat="45.68886" lon="6.60238">
        <ele>1598</ele>
        <time>2014-10-20T11:50:34Z</time>
      </trkpt>
      <trkpt lat="45.68883" lon="6.60251">
        <ele>1598</ele>
        <time>2014-10-20T11:50:36Z</time>
      </trkpt>
      <trkpt lat="45.68877" lon="6.60262">
        <ele>1598</ele>
        <time>2014-10-20T11:50:38Z</time>
      </trkpt>
      <trkpt lat="45.68865" lon="6.60276">
        <ele>1598</ele>
        <time>2014-10-20T11:50:40Z</time>
      </trkpt>
      <trkpt lat="45.68856" lon="6.60286">
        <ele>1598</ele>
        <time>2014-10-20T11:50:42Z</time>
      </trkpt>
      <trkpt lat="45.68847" lon="6.60296">
        <ele>1599</ele>
        <time>2014-10-20T11:50:45Z</time>
      </trkpt>
      <trkpt lat="45.68833" lon="6.60314">
        <ele>1599</ele>
        <time>2014-10-20T11:50:47Z</time>
      </trkpt>
      <trkpt lat="45.68826" lon="6.60329">
        <ele>1599</ele>
        <time>2014-10-20T11:50:50Z</time>
      </trkpt>
      <trkpt lat="45.6882" lon="6.60354">
        <ele>1600</ele>
        <time>2014-10-20T11:50:52Z</time>
      </trkpt>
      <trkpt lat="45.68812" lon="6.60369">
        <ele>1600</ele>
        <time>2014-10-20T11:50:54Z</time>
      </trkpt>
      <trkpt lat="45.68801" lon="6.6038">
        <ele>1600</ele>
        <time>2014-10-20T11:50:57Z</time>
      </trkpt>
      <trkpt lat="45.68782" lon="6.60392">
        <ele>1601</ele>
        <time>2014-10-20T11:50:59Z</time>
      </trkpt>
      <trkpt lat="45.6877" lon="6.60399">
        <ele>1601</ele>
        <time>2014-10-20T11:51:02Z</time>
      </trkpt>
      <trkpt lat="45.68755" lon="6.60418">
        <ele>1601</ele>
        <time>2014-10-20T11:51:04Z</time>
      </trkpt>
      <trkpt lat="45.68747" lon="6.60442">
        <ele>1602</ele>
        <time>2014-10-20T11:51:07Z</time>
      </trkpt>
      <trkpt lat="45.68742" lon="6.60457">
        <ele>1602</ele>
        <time>2014-10-20T11:51:09Z</time>
      </trkpt>
      <trkpt lat="45.68739" lon="6.60472">
        <ele>1603</ele>
        <time>2014-10-20T11:51:12Z</time>
      </trkpt>
      <trkpt lat="45.68736" lon="6.60488">
        <ele>1603</ele>
        <time>2014-10-20T11:51:14Z</time>
      </trkpt>
      <trkpt lat="45.68734" lon="6.60503">
        <ele>1603</ele>
        <time>2014-10-20T11:51:16Z</time>
      </trkpt>
      <trkpt lat="45.68733" lon="6.60517">
        <ele>1603</ele>
        <time>2014-10-20T11:51:18Z</time>
      </trkpt>
      <trkpt lat="45.6873" lon="6.60538">
        <ele>1603</ele>
        <time>2014-10-20T11:51:20Z</time>
      </trkpt>
      <trkpt lat="45.68727" lon="6.60553">
        <ele>1603</ele>
        <time>2014-10-20T11:51:22Z</time>
      </trkpt>
      <trkpt lat="45.68722" lon="6.60578">
        <ele>1603</ele>
        <time>2014-10-20T11:51:25Z</time>
      </trkpt>
      <trkpt lat="45.68711" lon="6.60602">
        <ele>1603</ele>
        <time>2014-10-20T11:51:28Z</time>
      </trkpt>
      <trkpt lat="45.68704" lon="6.60619">
        <ele>1603</ele>
        <time>2014-10-20T11:51:30Z</time>
      </trkpt>
      <trkpt lat="45.6869" lon="6.60643">
        <ele>1603</ele>
        <time>2014-10-20T11:51:33Z</time>
      </trkpt>
      <trkpt lat="45.68674" lon="6.60669">
        <ele>1602</ele>
        <time>2014-10-20T11:51:36Z</time>
      </trkpt>
      <trkpt lat="45.68664" lon="6.60689">
        <ele>1602</ele>
        <time>2014-10-20T11:51:38Z</time>
      </trkpt>
      <trkpt lat="45.68652" lon="6.6072">
        <ele>1601</ele>
        <time>2014-10-20T11:51:42Z</time>
      </trkpt>
      <trkpt lat="45.68646" lon="6.60733">
        <ele>1599</ele>
        <time>2014-10-20T11:51:44Z</time>
      </trkpt>
      <trkpt lat="45.68645" lon="6.60734">
        <ele>1598</ele>
        <time>2014-10-20T11:51:46Z</time>
      </trkpt>
      <trkpt lat="45.68645" lon="6.60735">
        <ele>1597</ele>
        <time>2014-10-20T11:51:48Z</time>
      </trkpt>
      <trkpt lat="45.68645" lon="6.60736">
        <ele>1596</ele>
        <time>2014-10-20T11:51:51Z</time>
      </trkpt>
      <trkpt lat="45.6864" lon="6.60744">
        <ele>1596</ele>
        <time>2014-10-20T11:51:53Z</time>
      </trkpt>
      <trkpt lat="45.68636" lon="6.6075">
        <ele>1596</ele>
        <time>2014-10-20T11:51:55Z</time>
      </trkpt>
      <trkpt lat="45.68629" lon="6.60759">
        <ele>1596</ele>
        <time>2014-10-20T11:51:58Z</time>
      </trkpt>
      <trkpt lat="45.68618" lon="6.60774">
        <ele>1596</ele>
        <time>2014-10-20T11:52:00Z</time>
      </trkpt>
      <trkpt lat="45.68607" lon="6.60785">
        <ele>1596</ele>
        <time>2014-10-20T11:52:02Z</time>
      </trkpt>
      <trkpt lat="45.6859" lon="6.60807">
        <ele>1596</ele>
        <time>2014-10-20T11:52:05Z</time>
      </trkpt>
      <trkpt lat="45.68579" lon="6.60821">
        <ele>1596</ele>
        <time>2014-10-20T11:52:07Z</time>
      </trkpt>
      <trkpt lat="45.68567" lon="6.60834">
        <ele>1596</ele>
        <time>2014-10-20T11:52:10Z</time>
      </trkpt>
      <trkpt lat="45.68547" lon="6.60847">
        <ele>1596</ele>
        <time>2014-10-20T11:52:12Z</time>
      </trkpt>
      <trkpt lat="45.68531" lon="6.6085">
        <ele>1595</ele>
        <time>2014-10-20T11:52:15Z</time>
      </trkpt>
      <trkpt lat="45.68507" lon="6.6084">
        <ele>1596</ele>
        <time>2014-10-20T11:52:18Z</time>
      </trkpt>
      <trkpt lat="45.68479" lon="6.60847">
        <ele>1595</ele>
        <time>2014-10-20T11:52:21Z</time>
      </trkpt>
      <trkpt lat="45.68465" lon="6.60869">
        <ele>1594</ele>
        <time>2014-10-20T11:52:23Z</time>
      </trkpt>
      <trkpt lat="45.68457" lon="6.60897">
        <ele>1593</ele>
        <time>2014-10-20T11:52:25Z</time>
      </trkpt>
      <trkpt lat="45.68455" lon="6.60925">
        <ele>1591</ele>
        <time>2014-10-20T11:52:27Z</time>
      </trkpt>
      <trkpt lat="45.68444" lon="6.60964">
        <ele>1590</ele>
        <time>2014-10-20T11:52:30Z</time>
      </trkpt>
      <trkpt lat="45.68421" lon="6.60994">
        <ele>1588</ele>
        <time>2014-10-20T11:52:32Z</time>
      </trkpt>
      <trkpt lat="45.68402" lon="6.61003">
        <ele>1587</ele>
        <time>2014-10-20T11:52:35Z</time>
      </trkpt>
      <trkpt lat="45.68372" lon="6.61005">
        <ele>1587</ele>
        <time>2014-10-20T11:52:37Z</time>
      </trkpt>
      <trkpt lat="45.68346" lon="6.61034">
        <ele>1586</ele>
        <time>2014-10-20T11:52:40Z</time>
      </trkpt>
      <trkpt lat="45.68322" lon="6.61068">
        <ele>1584</ele>
        <time>2014-10-20T11:52:43Z</time>
      </trkpt>
      <trkpt lat="45.68303" lon="6.61088">
        <ele>1582</ele>
        <time>2014-10-20T11:52:46Z</time>
      </trkpt>
      <trkpt lat="45.68271" lon="6.61114">
        <ele>1580</ele>
        <time>2014-10-20T11:52:48Z</time>
      </trkpt>
      <trkpt lat="45.68249" lon="6.61123">
        <ele>1577</ele>
        <time>2014-10-20T11:52:51Z</time>
      </trkpt>
      <trkpt lat="45.68233" lon="6.61129">
        <ele>1574</ele>
        <time>2014-10-20T11:52:53Z</time>
      </trkpt>
      <trkpt lat="45.68233" lon="6.61146">
        <ele>1570</ele>
        <time>2014-10-20T11:52:55Z</time>
      </trkpt>
      <trkpt lat="45.68247" lon="6.61149">
        <ele>1566</ele>
        <time>2014-10-20T11:52:57Z</time>
      </trkpt>
      <trkpt lat="45.68264" lon="6.61149">
        <ele>1564</ele>
        <time>2014-10-20T11:52:59Z</time>
      </trkpt>
      <trkpt lat="45.68291" lon="6.61154">
        <ele>1564</ele>
        <time>2014-10-20T11:53:02Z</time>
      </trkpt>
      <trkpt lat="45.68311" lon="6.61157">
        <ele>1564</ele>
        <time>2014-10-20T11:53:04Z</time>
      </trkpt>
      <trkpt lat="45.68332" lon="6.61165">
        <ele>1564</ele>
        <time>2014-10-20T11:53:06Z</time>
      </trkpt>
      <trkpt lat="45.68354" lon="6.61163">
        <ele>1563</ele>
        <time>2014-10-20T11:53:08Z</time>
      </trkpt>
      <trkpt lat="45.68381" lon="6.61178">
        <ele>1560</ele>
        <time>2014-10-20T11:53:11Z</time>
      </trkpt>
      <trkpt lat="45.68398" lon="6.61189">
        <ele>1557</ele>
        <time>2014-10-20T11:53:13Z</time>
      </trkpt>
      <trkpt lat="45.68415" lon="6.61187">
        <ele>1554</ele>
        <time>2014-10-20T11:53:16Z</time>
      </trkpt>
      <trkpt lat="45.68416" lon="6.61204">
        <ele>1549</ele>
        <time>2014-10-20T11:53:19Z</time>
      </trkpt>
      <trkpt lat="45.68403" lon="6.61206">
        <ele>1546</ele>
        <time>2014-10-20T11:53:21Z</time>
      </trkpt>
      <trkpt lat="45.68386" lon="6.61205">
        <ele>1544</ele>
        <time>2014-10-20T11:53:23Z</time>
      </trkpt>
      <trkpt lat="45.68368" lon="6.612">
        <ele>1544</ele>
        <time>2014-10-20T11:53:25Z</time>
      </trkpt>
      <trkpt lat="45.6834" lon="6.61218">
        <ele>1543</ele>
        <time>2014-10-20T11:53:28Z</time>
      </trkpt>
      <trkpt lat="45.68306" lon="6.61236">
        <ele>1542</ele>
        <time>2014-10-20T11:53:30Z</time>
      </trkpt>
      <trkpt lat="45.68282" lon="6.61249">
        <ele>1541</ele>
        <time>2014-10-20T11:53:32Z</time>
      </trkpt>
      <trkpt lat="45.68258" lon="6.61265">
        <ele>1540</ele>
        <time>2014-10-20T11:53:34Z</time>
      </trkpt>
      <trkpt lat="45.68232" lon="6.61277">
        <ele>1537</ele>
        <time>2014-10-20T11:53:36Z</time>
      </trkpt>
      <trkpt lat="45.68213" lon="6.61281">
        <ele>1532</ele>
        <time>2014-10-20T11:53:38Z</time>
      </trkpt>
      <trkpt lat="45.68204" lon="6.61293">
        <ele>1527</ele>
        <time>2014-10-20T11:53:40Z</time>
      </trkpt>
      <trkpt lat="45.68212" lon="6.61304">
        <ele>1522</ele>
        <time>2014-10-20T11:53:43Z</time>
      </trkpt>
      <trkpt lat="45.68237" lon="6.61303">
        <ele>1519</ele>
        <time>2014-10-20T11:53:45Z</time>
      </trkpt>
      <trkpt lat="45.68255" lon="6.61305">
        <ele>1519</ele>
        <time>2014-10-20T11:53:47Z</time>
      </trkpt>
      <trkpt lat="45.68274" lon="6.61307">
        <ele>1519</ele>
        <time>2014-10-20T11:53:49Z</time>
      </trkpt>
      <trkpt lat="45.68303" lon="6.61312">
        <ele>1518</ele>
        <time>2014-10-20T11:53:52Z</time>
      </trkpt>
      <trkpt lat="45.68334" lon="6.61313">
        <ele>1517</ele>
        <time>2014-10-20T11:53:55Z</time>
      </trkpt>
      <trkpt lat="45.68353" lon="6.6133">
        <ele>1516</ele>
        <time>2014-10-20T11:53:57Z</time>
      </trkpt>
      <trkpt lat="45.68363" lon="6.6136">
        <ele>1515</ele>
        <time>2014-10-20T11:53:59Z</time>
      </trkpt>
      <trkpt lat="45.68372" lon="6.61392">
        <ele>1513</ele>
        <time>2014-10-20T11:54:02Z</time>
      </trkpt>
      <trkpt lat="45.68389" lon="6.61439">
        <ele>1510</ele>
        <time>2014-10-20T11:54:05Z</time>
      </trkpt>
      <trkpt lat="45.6841" lon="6.61479">
        <ele>1505</ele>
        <time>2014-10-20T11:54:07Z</time>
      </trkpt>
      <trkpt lat="45.68415" lon="6.61503">
        <ele>1502</ele>
        <time>2014-10-20T11:54:09Z</time>
      </trkpt>
      <trkpt lat="45.6841" lon="6.61527">
        <ele>1499</ele>
        <time>2014-10-20T11:54:11Z</time>
      </trkpt>
      <trkpt lat="45.68388" lon="6.61556">
        <ele>1495</ele>
        <time>2014-10-20T11:54:15Z</time>
      </trkpt>
      <trkpt lat="45.68369" lon="6.61566">
        <ele>1493</ele>
        <time>2014-10-20T11:54:17Z</time>
      </trkpt>
      <trkpt lat="45.68341" lon="6.61575">
        <ele>1491</ele>
        <time>2014-10-20T11:54:19Z</time>
      </trkpt>
      <trkpt lat="45.68325" lon="6.61585">
        <ele>1489</ele>
        <time>2014-10-20T11:54:21Z</time>
      </trkpt>
      <trkpt lat="45.68327" lon="6.61616">
        <ele>1487</ele>
        <time>2014-10-20T11:54:24Z</time>
      </trkpt>
      <trkpt lat="45.68338" lon="6.61636">
        <ele>1486</ele>
        <time>2014-10-20T11:54:26Z</time>
      </trkpt>
      <trkpt lat="45.68348" lon="6.6166">
        <ele>1484</ele>
        <time>2014-10-20T11:54:29Z</time>
      </trkpt>
      <trkpt lat="45.68332" lon="6.61658">
        <ele>1482</ele>
        <time>2014-10-20T11:54:32Z</time>
      </trkpt>
      <trkpt lat="45.6832" lon="6.61643">
        <ele>1480</ele>
        <time>2014-10-20T11:54:35Z</time>
      </trkpt>
      <trkpt lat="45.68304" lon="6.61612">
        <ele>1479</ele>
        <time>2014-10-20T11:54:38Z</time>
      </trkpt>
      <trkpt lat="45.68283" lon="6.61577">
        <ele>1479</ele>
        <time>2014-10-20T11:54:40Z</time>
      </trkpt>
      <trkpt lat="45.68263" lon="6.6156">
        <ele>1478</ele>
        <time>2014-10-20T11:54:42Z</time>
      </trkpt>
      <trkpt lat="45.68241" lon="6.61546">
        <ele>1476</ele>
        <time>2014-10-20T11:54:44Z</time>
      </trkpt>
      <trkpt lat="45.68216" lon="6.61541">
        <ele>1474</ele>
        <time>2014-10-20T11:54:47Z</time>
      </trkpt>
      <trkpt lat="45.68192" lon="6.61537">
        <ele>1471</ele>
        <time>2014-10-20T11:54:49Z</time>
      </trkpt>
      <trkpt lat="45.68158" lon="6.61533">
        <ele>1468</ele>
        <time>2014-10-20T11:54:51Z</time>
      </trkpt>
      <trkpt lat="45.68137" lon="6.61529">
        <ele>1464</ele>
        <time>2014-10-20T11:54:53Z</time>
      </trkpt>
      <trkpt lat="45.68104" lon="6.61521">
        <ele>1460</ele>
        <time>2014-10-20T11:54:56Z</time>
      </trkpt>
      <trkpt lat="45.68082" lon="6.61514">
        <ele>1458</ele>
        <time>2014-10-20T11:54:58Z</time>
      </trkpt>
      <trkpt lat="45.68064" lon="6.61519">
        <ele>1454</ele>
        <time>2014-10-20T11:55:01Z</time>
      </trkpt>
      <trkpt lat="45.6807" lon="6.6153">
        <ele>1452</ele>
        <time>2014-10-20T11:55:03Z</time>
      </trkpt>
      <trkpt lat="45.68089" lon="6.61539">
        <ele>1449</ele>
        <time>2014-10-20T11:55:06Z</time>
      </trkpt>
      <trkpt lat="45.68104" lon="6.61546">
        <ele>1449</ele>
        <time>2014-10-20T11:55:08Z</time>
      </trkpt>
      <trkpt lat="45.6812" lon="6.61554">
        <ele>1449</ele>
        <time>2014-10-20T11:55:10Z</time>
      </trkpt>
      <trkpt lat="45.68144" lon="6.61571">
        <ele>1448</ele>
        <time>2014-10-20T11:55:13Z</time>
      </trkpt>
      <trkpt lat="45.68159" lon="6.61584">
        <ele>1447</ele>
        <time>2014-10-20T11:55:15Z</time>
      </trkpt>
      <trkpt lat="45.68173" lon="6.61596">
        <ele>1446</ele>
        <time>2014-10-20T11:55:18Z</time>
      </trkpt>
      <trkpt lat="45.68187" lon="6.61609">
        <ele>1445</ele>
        <time>2014-10-20T11:55:20Z</time>
      </trkpt>
      <trkpt lat="45.68209" lon="6.61628">
        <ele>1445</ele>
        <time>2014-10-20T11:55:22Z</time>
      </trkpt>
      <trkpt lat="45.68223" lon="6.61642">
        <ele>1445</ele>
        <time>2014-10-20T11:55:24Z</time>
      </trkpt>
      <trkpt lat="45.68244" lon="6.61664">
        <ele>1444</ele>
        <time>2014-10-20T11:55:27Z</time>
      </trkpt>
      <trkpt lat="45.68258" lon="6.61679">
        <ele>1444</ele>
        <time>2014-10-20T11:55:29Z</time>
      </trkpt>
      <trkpt lat="45.68277" lon="6.61703">
        <ele>1443</ele>
        <time>2014-10-20T11:55:32Z</time>
      </trkpt>
      <trkpt lat="45.68289" lon="6.61721">
        <ele>1442</ele>
        <time>2014-10-20T11:55:34Z</time>
      </trkpt>
      <trkpt lat="45.68306" lon="6.6175">
        <ele>1442</ele>
        <time>2014-10-20T11:55:37Z</time>
      </trkpt>
      <trkpt lat="45.68316" lon="6.61768">
        <ele>1441</ele>
        <time>2014-10-20T11:55:39Z</time>
      </trkpt>
      <trkpt lat="45.68325" lon="6.61787">
        <ele>1441</ele>
        <time>2014-10-20T11:55:41Z</time>
      </trkpt>
      <trkpt lat="45.68339" lon="6.61814">
        <ele>1441</ele>
        <time>2014-10-20T11:55:44Z</time>
      </trkpt>
      <trkpt lat="45.68348" lon="6.61832">
        <ele>1440</ele>
        <time>2014-10-20T11:55:46Z</time>
      </trkpt>
      <trkpt lat="45.68356" lon="6.61849">
        <ele>1439</ele>
        <time>2014-10-20T11:55:48Z</time>
      </trkpt>
      <trkpt lat="45.68368" lon="6.61874">
        <ele>1438</ele>
        <time>2014-10-20T11:55:51Z</time>
      </trkpt>
      <trkpt lat="45.68376" lon="6.6189">
        <ele>1438</ele>
        <time>2014-10-20T11:55:53Z</time>
      </trkpt>
      <trkpt lat="45.68383" lon="6.61907">
        <ele>1438</ele>
        <time>2014-10-20T11:55:56Z</time>
      </trkpt>
      <trkpt lat="45.68393" lon="6.6193">
        <ele>1438</ele>
        <time>2014-10-20T11:55:58Z</time>
      </trkpt>
      <trkpt lat="45.68402" lon="6.61947">
        <ele>1438</ele>
        <time>2014-10-20T11:56:00Z</time>
      </trkpt>
      <trkpt lat="45.68411" lon="6.61965">
        <ele>1438</ele>
        <time>2014-10-20T11:56:03Z</time>
      </trkpt>
      <trkpt lat="45.68423" lon="6.61992">
        <ele>1439</ele>
        <time>2014-10-20T11:56:05Z</time>
      </trkpt>
      <trkpt lat="45.68432" lon="6.6201">
        <ele>1440</ele>
        <time>2014-10-20T11:56:07Z</time>
      </trkpt>
      <trkpt lat="45.6844" lon="6.62028">
        <ele>1439</ele>
        <time>2014-10-20T11:56:09Z</time>
      </trkpt>
      <trkpt lat="45.68449" lon="6.62045">
        <ele>1439</ele>
        <time>2014-10-20T11:56:12Z</time>
      </trkpt>
      <trkpt lat="45.68457" lon="6.62062">
        <ele>1439</ele>
        <time>2014-10-20T11:56:14Z</time>
      </trkpt>
      <trkpt lat="45.68465" lon="6.6208">
        <ele>1439</ele>
        <time>2014-10-20T11:56:16Z</time>
      </trkpt>
      <trkpt lat="45.68473" lon="6.62097">
        <ele>1439</ele>
        <time>2014-10-20T11:56:18Z</time>
      </trkpt>
      <trkpt lat="45.68486" lon="6.62123">
        <ele>1439</ele>
        <time>2014-10-20T11:56:20Z</time>
      </trkpt>
      <trkpt lat="45.68494" lon="6.62141">
        <ele>1439</ele>
        <time>2014-10-20T11:56:22Z</time>
      </trkpt>
      <trkpt lat="45.68502" lon="6.62158">
        <ele>1439</ele>
        <time>2014-10-20T11:56:25Z</time>
      </trkpt>
      <trkpt lat="45.68515" lon="6.62184">
        <ele>1439</ele>
        <time>2014-10-20T11:56:27Z</time>
      </trkpt>
      <trkpt lat="45.68523" lon="6.62202">
        <ele>1438</ele>
        <time>2014-10-20T11:56:29Z</time>
      </trkpt>
      <trkpt lat="45.68531" lon="6.62219">
        <ele>1438</ele>
        <time>2014-10-20T11:56:32Z</time>
      </trkpt>
      <trkpt lat="45.68543" lon="6.62244">
        <ele>1439</ele>
        <time>2014-10-20T11:56:34Z</time>
      </trkpt>
      <trkpt lat="45.68556" lon="6.62267">
        <ele>1438</ele>
        <time>2014-10-20T11:56:37Z</time>
      </trkpt>
      <trkpt lat="45.68565" lon="6.62282">
        <ele>1437</ele>
        <time>2014-10-20T11:56:39Z</time>
      </trkpt>
      <trkpt lat="45.68574" lon="6.62294">
        <ele>1437</ele>
        <time>2014-10-20T11:56:41Z</time>
      </trkpt>
      <trkpt lat="45.68587" lon="6.62312">
        <ele>1437</ele>
        <time>2014-10-20T11:56:44Z</time>
      </trkpt>
      <trkpt lat="45.68596" lon="6.62324">
        <ele>1437</ele>
        <time>2014-10-20T11:56:46Z</time>
      </trkpt>
      <trkpt lat="45.68606" lon="6.62335">
        <ele>1437</ele>
        <time>2014-10-20T11:56:48Z</time>
      </trkpt>
      <trkpt lat="45.68616" lon="6.62346">
        <ele>1437</ele>
        <time>2014-10-20T11:56:50Z</time>
      </trkpt>
      <trkpt lat="45.68625" lon="6.62355">
        <ele>1437</ele>
        <time>2014-10-20T11:56:53Z</time>
      </trkpt>
      <trkpt lat="45.68646" lon="6.62379">
        <ele>1435</ele>
        <time>2014-10-20T11:56:56Z</time>
      </trkpt>
      <trkpt lat="45.68653" lon="6.62385">
        <ele>1435</ele>
        <time>2014-10-20T11:56:58Z</time>
      </trkpt>
      <trkpt lat="45.68659" lon="6.62391">
        <ele>1435</ele>
        <time>2014-10-20T11:57:00Z</time>
      </trkpt>
      <trkpt lat="45.6867" lon="6.62399">
        <ele>1436</ele>
        <time>2014-10-20T11:57:03Z</time>
      </trkpt>
      <trkpt lat="45.68683" lon="6.62409">
        <ele>1436</ele>
        <time>2014-10-20T11:57:05Z</time>
      </trkpt>
      <trkpt lat="45.68693" lon="6.62415">
        <ele>1436</ele>
        <time>2014-10-20T11:57:07Z</time>
      </trkpt>
      <trkpt lat="45.68702" lon="6.62421">
        <ele>1436</ele>
        <time>2014-10-20T11:57:09Z</time>
      </trkpt>
      <trkpt lat="45.68718" lon="6.62429">
        <ele>1436</ele>
        <time>2014-10-20T11:57:12Z</time>
      </trkpt>
      <trkpt lat="45.68728" lon="6.62434">
        <ele>1436</ele>
        <time>2014-10-20T11:57:14Z</time>
      </trkpt>
      <trkpt lat="45.68738" lon="6.6244">
        <ele>1436</ele>
        <time>2014-10-20T11:57:16Z</time>
      </trkpt>
      <trkpt lat="45.68754" lon="6.62447">
        <ele>1436</ele>
        <time>2014-10-20T11:57:19Z</time>
      </trkpt>
      <trkpt lat="45.68765" lon="6.62452">
        <ele>1436</ele>
        <time>2014-10-20T11:57:21Z</time>
      </trkpt>
      <trkpt lat="45.68776" lon="6.62458">
        <ele>1435</ele>
        <time>2014-10-20T11:57:23Z</time>
      </trkpt>
      <trkpt lat="45.68785" lon="6.62466">
        <ele>1436</ele>
        <time>2014-10-20T11:57:26Z</time>
      </trkpt>
      <trkpt lat="45.68797" lon="6.62482">
        <ele>1436</ele>
        <time>2014-10-20T11:57:28Z</time>
      </trkpt>
      <trkpt lat="45.68805" lon="6.625">
        <ele>1437</ele>
        <time>2014-10-20T11:57:31Z</time>
      </trkpt>
      <trkpt lat="45.68811" lon="6.62511">
        <ele>1438</ele>
        <time>2014-10-20T11:57:33Z</time>
      </trkpt>
      <trkpt lat="45.68817" lon="6.62523">
        <ele>1439</ele>
        <time>2014-10-20T11:57:35Z</time>
      </trkpt>
      <trkpt lat="45.68822" lon="6.62534">
        <ele>1440</ele>
        <time>2014-10-20T11:57:38Z</time>
      </trkpt>
      <trkpt lat="45.68828" lon="6.62545">
        <ele>1441</ele>
        <time>2014-10-20T11:57:40Z</time>
      </trkpt>
      <trkpt lat="45.68834" lon="6.62555">
        <ele>1442</ele>
        <time>2014-10-20T11:57:42Z</time>
      </trkpt>
      <trkpt lat="45.68842" lon="6.62567">
        <ele>1442</ele>
        <time>2014-10-20T11:57:44Z</time>
      </trkpt>
      <trkpt lat="45.68846" lon="6.62575">
        <ele>1443</ele>
        <time>2014-10-20T11:57:46Z</time>
      </trkpt>
      <trkpt lat="45.68851" lon="6.62585">
        <ele>1443</ele>
        <time>2014-10-20T11:57:48Z</time>
      </trkpt>
      <trkpt lat="45.68859" lon="6.62598">
        <ele>1444</ele>
        <time>2014-10-20T11:57:51Z</time>
      </trkpt>
      <trkpt lat="45.68864" lon="6.62605">
        <ele>1445</ele>
        <time>2014-10-20T11:57:53Z</time>
      </trkpt>
      <trkpt lat="45.68872" lon="6.62617">
        <ele>1446</ele>
        <time>2014-10-20T11:57:56Z</time>
      </trkpt>
      <trkpt lat="45.68877" lon="6.62624">
        <ele>1447</ele>
        <time>2014-10-20T11:57:59Z</time>
      </trkpt>
      <trkpt lat="45.68882" lon="6.62638">
        <ele>1448</ele>
        <time>2014-10-20T11:58:01Z</time>
      </trkpt>
      <trkpt lat="45.68887" lon="6.62647">
        <ele>1448</ele>
        <time>2014-10-20T11:58:03Z</time>
      </trkpt>
      <trkpt lat="45.68893" lon="6.62662">
        <ele>1449</ele>
        <time>2014-10-20T11:58:06Z</time>
      </trkpt>
      <trkpt lat="45.68896" lon="6.62672">
        <ele>1450</ele>
        <time>2014-10-20T11:58:08Z</time>
      </trkpt>
      <trkpt lat="45.68901" lon="6.62681">
        <ele>1451</ele>
        <time>2014-10-20T11:58:10Z</time>
      </trkpt>
      <trkpt lat="45.68909" lon="6.62696">
        <ele>1451</ele>
        <time>2014-10-20T11:58:13Z</time>
      </trkpt>
      <trkpt lat="45.68918" lon="6.62711">
        <ele>1452</ele>
        <time>2014-10-20T11:58:16Z</time>
      </trkpt>
      <trkpt lat="45.68928" lon="6.62726">
        <ele>1452</ele>
        <time>2014-10-20T11:58:19Z</time>
      </trkpt>
      <trkpt lat="45.68935" lon="6.62737">
        <ele>1452</ele>
        <time>2014-10-20T11:58:21Z</time>
      </trkpt>
      <trkpt lat="45.68943" lon="6.62747">
        <ele>1452</ele>
        <time>2014-10-20T11:58:24Z</time>
      </trkpt>
      <trkpt lat="45.68954" lon="6.62762">
        <ele>1452</ele>
        <time>2014-10-20T11:58:26Z</time>
      </trkpt>
      <trkpt lat="45.68963" lon="6.62772">
        <ele>1453</ele>
        <time>2014-10-20T11:58:28Z</time>
      </trkpt>
      <trkpt lat="45.68977" lon="6.62787">
        <ele>1453</ele>
        <time>2014-10-20T11:58:31Z</time>
      </trkpt>
      <trkpt lat="45.68986" lon="6.62797">
        <ele>1453</ele>
        <time>2014-10-20T11:58:33Z</time>
      </trkpt>
      <trkpt lat="45.68995" lon="6.62809">
        <ele>1453</ele>
        <time>2014-10-20T11:58:35Z</time>
      </trkpt>
      <trkpt lat="45.69008" lon="6.62826">
        <ele>1453</ele>
        <time>2014-10-20T11:58:38Z</time>
      </trkpt>
      <trkpt lat="45.69022" lon="6.62845">
        <ele>1454</ele>
        <time>2014-10-20T11:58:41Z</time>
      </trkpt>
      <trkpt lat="45.69034" lon="6.62864">
        <ele>1453</ele>
        <time>2014-10-20T11:58:45Z</time>
      </trkpt>
      <trkpt lat="45.69048" lon="6.62882">
        <ele>1453</ele>
        <time>2014-10-20T11:58:47Z</time>
      </trkpt>
      <trkpt lat="45.69058" lon="6.62894">
        <ele>1453</ele>
        <time>2014-10-20T11:58:49Z</time>
      </trkpt>
      <trkpt lat="45.69069" lon="6.62903">
        <ele>1453</ele>
        <time>2014-10-20T11:58:51Z</time>
      </trkpt>
      <trkpt lat="45.6908" lon="6.62912">
        <ele>1454</ele>
        <time>2014-10-20T11:58:53Z</time>
      </trkpt>
      <trkpt lat="45.69092" lon="6.6292">
        <ele>1454</ele>
        <time>2014-10-20T11:58:55Z</time>
      </trkpt>
      <trkpt lat="45.6911" lon="6.62932">
        <ele>1453</ele>
        <time>2014-10-20T11:58:58Z</time>
      </trkpt>
      <trkpt lat="45.69121" lon="6.62943">
        <ele>1453</ele>
        <time>2014-10-20T11:59:00Z</time>
      </trkpt>
      <trkpt lat="45.69135" lon="6.62961">
        <ele>1453</ele>
        <time>2014-10-20T11:59:03Z</time>
      </trkpt>
      <trkpt lat="45.69146" lon="6.62972">
        <ele>1453</ele>
        <time>2014-10-20T11:59:05Z</time>
      </trkpt>
      <trkpt lat="45.69156" lon="6.62982">
        <ele>1454</ele>
        <time>2014-10-20T11:59:07Z</time>
      </trkpt>
      <trkpt lat="45.69167" lon="6.62991">
        <ele>1453</ele>
        <time>2014-10-20T11:59:09Z</time>
      </trkpt>
      <trkpt lat="45.69184" lon="6.63006">
        <ele>1453</ele>
        <time>2014-10-20T11:59:12Z</time>
      </trkpt>
      <trkpt lat="45.69196" lon="6.63015">
        <ele>1453</ele>
        <time>2014-10-20T11:59:14Z</time>
      </trkpt>
      <trkpt lat="45.69207" lon="6.63024">
        <ele>1453</ele>
        <time>2014-10-20T11:59:16Z</time>
      </trkpt>
      <trkpt lat="45.69219" lon="6.63032">
        <ele>1453</ele>
        <time>2014-10-20T11:59:18Z</time>
      </trkpt>
      <trkpt lat="45.69232" lon="6.63039">
        <ele>1453</ele>
        <time>2014-10-20T11:59:21Z</time>
      </trkpt>
      <trkpt lat="45.69244" lon="6.63045">
        <ele>1454</ele>
        <time>2014-10-20T11:59:23Z</time>
      </trkpt>
      <trkpt lat="45.69255" lon="6.63051">
        <ele>1454</ele>
        <time>2014-10-20T11:59:25Z</time>
      </trkpt>
      <trkpt lat="45.69271" lon="6.6306">
        <ele>1455</ele>
        <time>2014-10-20T11:59:27Z</time>
      </trkpt>
      <trkpt lat="45.69281" lon="6.63064">
        <ele>1455</ele>
        <time>2014-10-20T11:59:29Z</time>
      </trkpt>
      <trkpt lat="45.6929" lon="6.63068">
        <ele>1455</ele>
        <time>2014-10-20T11:59:31Z</time>
      </trkpt>
      <trkpt lat="45.69298" lon="6.63071">
        <ele>1455</ele>
        <time>2014-10-20T11:59:33Z</time>
      </trkpt>
      <trkpt lat="45.69309" lon="6.63077">
        <ele>1456</ele>
        <time>2014-10-20T11:59:36Z</time>
      </trkpt>
      <trkpt lat="45.69317" lon="6.63081">
        <ele>1457</ele>
        <time>2014-10-20T11:59:38Z</time>
      </trkpt>
      <trkpt lat="45.69324" lon="6.63085">
        <ele>1458</ele>
        <time>2014-10-20T11:59:40Z</time>
      </trkpt>
      <trkpt lat="45.69333" lon="6.63091">
        <ele>1460</ele>
        <time>2014-10-20T11:59:43Z</time>
      </trkpt>
      <trkpt lat="45.69339" lon="6.63097">
        <ele>1462</ele>
        <time>2014-10-20T11:59:45Z</time>
      </trkpt>
      <trkpt lat="45.69345" lon="6.63104">
        <ele>1463</ele>
        <time>2014-10-20T11:59:47Z</time>
      </trkpt>
      <trkpt lat="45.69353" lon="6.63113">
        <ele>1465</ele>
        <time>2014-10-20T11:59:50Z</time>
      </trkpt>
      <trkpt lat="45.69362" lon="6.63124">
        <ele>1467</ele>
        <time>2014-10-20T11:59:53Z</time>
      </trkpt>
      <trkpt lat="45.69368" lon="6.63129">
        <ele>1468</ele>
        <time>2014-10-20T11:59:55Z</time>
      </trkpt>
      <trkpt lat="45.69374" lon="6.63133">
        <ele>1469</ele>
        <time>2014-10-20T11:59:58Z</time>
      </trkpt>
      <trkpt lat="45.69382" lon="6.63139">
        <ele>1470</ele>
        <time>2014-10-20T12:00:00Z</time>
      </trkpt>
      <trkpt lat="45.69389" lon="6.63142">
        <ele>1471</ele>
        <time>2014-10-20T12:00:02Z</time>
      </trkpt>
      <trkpt lat="45.69396" lon="6.63146">
        <ele>1472</ele>
        <time>2014-10-20T12:00:04Z</time>
      </trkpt>
      <trkpt lat="45.69404" lon="6.63157">
        <ele>1473</ele>
        <time>2014-10-20T12:00:07Z</time>
      </trkpt>
      <trkpt lat="45.69406" lon="6.63167">
        <ele>1474</ele>
        <time>2014-10-20T12:00:09Z</time>
      </trkpt>
      <trkpt lat="45.69408" lon="6.63177">
        <ele>1474</ele>
        <time>2014-10-20T12:00:11Z</time>
      </trkpt>
      <trkpt lat="45.69408" lon="6.63185">
        <ele>1475</ele>
        <time>2014-10-20T12:00:13Z</time>
      </trkpt>
      <trkpt lat="45.69409" lon="6.63194">
        <ele>1475</ele>
        <time>2014-10-20T12:00:15Z</time>
      </trkpt>
      <trkpt lat="45.6941" lon="6.63208">
        <ele>1476</ele>
        <time>2014-10-20T12:00:18Z</time>
      </trkpt>
      <trkpt lat="45.69411" lon="6.6322">
        <ele>1476</ele>
        <time>2014-10-20T12:00:20Z</time>
      </trkpt>
      <trkpt lat="45.69414" lon="6.63234">
        <ele>1476</ele>
        <time>2014-10-20T12:00:22Z</time>
      </trkpt>
      <trkpt lat="45.69418" lon="6.63247">
        <ele>1476</ele>
        <time>2014-10-20T12:00:24Z</time>
      </trkpt>
      <trkpt lat="45.69426" lon="6.63266">
        <ele>1476</ele>
        <time>2014-10-20T12:00:27Z</time>
      </trkpt>
      <trkpt lat="45.69433" lon="6.63278">
        <ele>1476</ele>
        <time>2014-10-20T12:00:30Z</time>
      </trkpt>
      <trkpt lat="45.69439" lon="6.63289">
        <ele>1476</ele>
        <time>2014-10-20T12:00:32Z</time>
      </trkpt>
      <trkpt lat="45.69445" lon="6.63298">
        <ele>1476</ele>
        <time>2014-10-20T12:00:34Z</time>
      </trkpt>
      <trkpt lat="45.69453" lon="6.6331">
        <ele>1477</ele>
        <time>2014-10-20T12:00:36Z</time>
      </trkpt>
      <trkpt lat="45.6946" lon="6.63322">
        <ele>1478</ele>
        <time>2014-10-20T12:00:39Z</time>
      </trkpt>
      <trkpt lat="45.69467" lon="6.63331">
        <ele>1479</ele>
        <time>2014-10-20T12:00:42Z</time>
      </trkpt>
      <trkpt lat="45.69473" lon="6.63343">
        <ele>1480</ele>
        <time>2014-10-20T12:00:45Z</time>
      </trkpt>
      <trkpt lat="45.69477" lon="6.63351">
        <ele>1481</ele>
        <time>2014-10-20T12:00:47Z</time>
      </trkpt>
      <trkpt lat="45.69481" lon="6.6336">
        <ele>1481</ele>
        <time>2014-10-20T12:00:49Z</time>
      </trkpt>
      <trkpt lat="45.69487" lon="6.63372">
        <ele>1482</ele>
        <time>2014-10-20T12:00:53Z</time>
      </trkpt>
      <trkpt lat="45.69491" lon="6.63384">
        <ele>1482</ele>
        <time>2014-10-20T12:00:55Z</time>
      </trkpt>
      <trkpt lat="45.69493" lon="6.63393">
        <ele>1482</ele>
        <time>2014-10-20T12:00:57Z</time>
      </trkpt>
      <trkpt lat="45.69495" lon="6.63403">
        <ele>1482</ele>
        <time>2014-10-20T12:00:59Z</time>
      </trkpt>
      <trkpt lat="45.69497" lon="6.63414">
        <ele>1482</ele>
        <time>2014-10-20T12:01:01Z</time>
      </trkpt>
      <trkpt lat="45.695" lon="6.63431">
        <ele>1483</ele>
        <time>2014-10-20T12:01:04Z</time>
      </trkpt>
      <trkpt lat="45.69502" lon="6.63442">
        <ele>1483</ele>
        <time>2014-10-20T12:01:06Z</time>
      </trkpt>
      <trkpt lat="45.69505" lon="6.63454">
        <ele>1483</ele>
        <time>2014-10-20T12:01:08Z</time>
      </trkpt>
      <trkpt lat="45.69508" lon="6.63466">
        <ele>1483</ele>
        <time>2014-10-20T12:01:10Z</time>
      </trkpt>
      <trkpt lat="45.69515" lon="6.63488">
        <ele>1483</ele>
        <time>2014-10-20T12:01:13Z</time>
      </trkpt>
      <trkpt lat="45.69522" lon="6.63504">
        <ele>1483</ele>
        <time>2014-10-20T12:01:15Z</time>
      </trkpt>
      <trkpt lat="45.69531" lon="6.63521">
        <ele>1483</ele>
        <time>2014-10-20T12:01:17Z</time>
      </trkpt>
      <trkpt lat="45.69541" lon="6.63539">
        <ele>1483</ele>
        <time>2014-10-20T12:01:19Z</time>
      </trkpt>
      <trkpt lat="45.69558" lon="6.63568">
        <ele>1483</ele>
        <time>2014-10-20T12:01:22Z</time>
      </trkpt>
      <trkpt lat="45.6957" lon="6.63588">
        <ele>1483</ele>
        <time>2014-10-20T12:01:24Z</time>
      </trkpt>
      <trkpt lat="45.69584" lon="6.63609">
        <ele>1483</ele>
        <time>2014-10-20T12:01:26Z</time>
      </trkpt>
      <trkpt lat="45.696" lon="6.63627">
        <ele>1483</ele>
        <time>2014-10-20T12:01:29Z</time>
      </trkpt>
      <trkpt lat="45.69625" lon="6.63651">
        <ele>1483</ele>
        <time>2014-10-20T12:01:31Z</time>
      </trkpt>
      <trkpt lat="45.69647" lon="6.63677">
        <ele>1484</ele>
        <time>2014-10-20T12:01:34Z</time>
      </trkpt>
      <trkpt lat="45.69663" lon="6.63707">
        <ele>1484</ele>
        <time>2014-10-20T12:01:37Z</time>
      </trkpt>
      <trkpt lat="45.69672" lon="6.63728">
        <ele>1484</ele>
        <time>2014-10-20T12:01:39Z</time>
      </trkpt>
      <trkpt lat="45.69688" lon="6.63754">
        <ele>1483</ele>
        <time>2014-10-20T12:01:42Z</time>
      </trkpt>
      <trkpt lat="45.69699" lon="6.63769">
        <ele>1483</ele>
        <time>2014-10-20T12:01:44Z</time>
      </trkpt>
      <trkpt lat="45.69717" lon="6.63789">
        <ele>1483</ele>
        <time>2014-10-20T12:01:47Z</time>
      </trkpt>
      <trkpt lat="45.6973" lon="6.63801">
        <ele>1483</ele>
        <time>2014-10-20T12:01:49Z</time>
      </trkpt>
      <trkpt lat="45.69744" lon="6.6381">
        <ele>1482</ele>
        <time>2014-10-20T12:01:51Z</time>
      </trkpt>
      <trkpt lat="45.69759" lon="6.6382">
        <ele>1482</ele>
        <time>2014-10-20T12:01:53Z</time>
      </trkpt>
      <trkpt lat="45.69782" lon="6.63834">
        <ele>1482</ele>
        <time>2014-10-20T12:01:56Z</time>
      </trkpt>
      <trkpt lat="45.69797" lon="6.63845">
        <ele>1482</ele>
        <time>2014-10-20T12:01:58Z</time>
      </trkpt>
      <trkpt lat="45.69816" lon="6.63866">
        <ele>1484</ele>
        <time>2014-10-20T12:02:01Z</time>
      </trkpt>
      <trkpt lat="45.69832" lon="6.63887">
        <ele>1485</ele>
        <time>2014-10-20T12:02:04Z</time>
      </trkpt>
      <trkpt lat="45.69849" lon="6.63908">
        <ele>1485</ele>
        <time>2014-10-20T12:02:07Z</time>
      </trkpt>
      <trkpt lat="45.69859" lon="6.63922">
        <ele>1485</ele>
        <time>2014-10-20T12:02:09Z</time>
      </trkpt>
      <trkpt lat="45.69869" lon="6.63935">
        <ele>1486</ele>
        <time>2014-10-20T12:02:11Z</time>
      </trkpt>
      <trkpt lat="45.69884" lon="6.63955">
        <ele>1486</ele>
        <time>2014-10-20T12:02:14Z</time>
      </trkpt>
      <trkpt lat="45.69899" lon="6.63974">
        <ele>1487</ele>
        <time>2014-10-20T12:02:17Z</time>
      </trkpt>
      <trkpt lat="45.69909" lon="6.63987">
        <ele>1487</ele>
        <time>2014-10-20T12:02:19Z</time>
      </trkpt>
      <trkpt lat="45.69923" lon="6.64007">
        <ele>1487</ele>
        <time>2014-10-20T12:02:22Z</time>
      </trkpt>
      <trkpt lat="45.69933" lon="6.64021">
        <ele>1486</ele>
        <time>2014-10-20T12:02:24Z</time>
      </trkpt>
      <trkpt lat="45.69948" lon="6.64045">
        <ele>1486</ele>
        <time>2014-10-20T12:02:27Z</time>
      </trkpt>
      <trkpt lat="45.69957" lon="6.64061">
        <ele>1486</ele>
        <time>2014-10-20T12:02:29Z</time>
      </trkpt>
      <trkpt lat="45.69967" lon="6.64077">
        <ele>1486</ele>
        <time>2014-10-20T12:02:31Z</time>
      </trkpt>
      <trkpt lat="45.69976" lon="6.64094">
        <ele>1486</ele>
        <time>2014-10-20T12:02:33Z</time>
      </trkpt>
      <trkpt lat="45.69989" lon="6.64121">
        <ele>1486</ele>
        <time>2014-10-20T12:02:36Z</time>
      </trkpt>
      <trkpt lat="45.69996" lon="6.64137">
        <ele>1486</ele>
        <time>2014-10-20T12:02:38Z</time>
      </trkpt>
      <trkpt lat="45.70005" lon="6.64161">
        <ele>1486</ele>
        <time>2014-10-20T12:02:41Z</time>
      </trkpt>
      <trkpt lat="45.70014" lon="6.64184">
        <ele>1486</ele>
        <time>2014-10-20T12:02:44Z</time>
      </trkpt>
      <trkpt lat="45.7002" lon="6.642">
        <ele>1486</ele>
        <time>2014-10-20T12:02:46Z</time>
      </trkpt>
      <trkpt lat="45.7003" lon="6.64225">
        <ele>1486</ele>
        <time>2014-10-20T12:02:49Z</time>
      </trkpt>
      <trkpt lat="45.70037" lon="6.64253">
        <ele>1487</ele>
        <time>2014-10-20T12:02:52Z</time>
      </trkpt>
      <trkpt lat="45.70041" lon="6.64272">
        <ele>1487</ele>
        <time>2014-10-20T12:02:54Z</time>
      </trkpt>
      <trkpt lat="45.70046" lon="6.64302">
        <ele>1487</ele>
        <time>2014-10-20T12:02:57Z</time>
      </trkpt>
      <trkpt lat="45.70053" lon="6.64328">
        <ele>1487</ele>
        <time>2014-10-20T12:03:00Z</time>
      </trkpt>
      <trkpt lat="45.70059" lon="6.64344">
        <ele>1487</ele>
        <time>2014-10-20T12:03:02Z</time>
      </trkpt>
      <trkpt lat="45.70065" lon="6.6436">
        <ele>1487</ele>
        <time>2014-10-20T12:03:04Z</time>
      </trkpt>
      <trkpt lat="45.70075" lon="6.64385">
        <ele>1487</ele>
        <time>2014-10-20T12:03:07Z</time>
      </trkpt>
      <trkpt lat="45.70079" lon="6.64405">
        <ele>1487</ele>
        <time>2014-10-20T12:03:09Z</time>
      </trkpt>
      <trkpt lat="45.7008" lon="6.64439">
        <ele>1486</ele>
        <time>2014-10-20T12:03:12Z</time>
      </trkpt>
      <trkpt lat="45.70076" lon="6.64459">
        <ele>1486</ele>
        <time>2014-10-20T12:03:14Z</time>
      </trkpt>
      <trkpt lat="45.70066" lon="6.64482">
        <ele>1486</ele>
        <time>2014-10-20T12:03:17Z</time>
      </trkpt>
      <trkpt lat="45.70055" lon="6.64498">
        <ele>1486</ele>
        <time>2014-10-20T12:03:20Z</time>
      </trkpt>
      <trkpt lat="45.70047" lon="6.64505">
        <ele>1487</ele>
        <time>2014-10-20T12:03:22Z</time>
      </trkpt>
      <trkpt lat="45.70034" lon="6.64515">
        <ele>1487</ele>
        <time>2014-10-20T12:03:25Z</time>
      </trkpt>
      <trkpt lat="45.70023" lon="6.64524">
        <ele>1489</ele>
        <time>2014-10-20T12:03:28Z</time>
      </trkpt>
      <trkpt lat="45.70014" lon="6.64531">
        <ele>1489</ele>
        <time>2014-10-20T12:03:30Z</time>
      </trkpt>
      <trkpt lat="45.70006" lon="6.64538">
        <ele>1490</ele>
        <time>2014-10-20T12:03:32Z</time>
      </trkpt>
      <trkpt lat="45.69994" lon="6.64551">
        <ele>1491</ele>
        <time>2014-10-20T12:03:35Z</time>
      </trkpt>
      <trkpt lat="45.69987" lon="6.64564">
        <ele>1492</ele>
        <time>2014-10-20T12:03:37Z</time>
      </trkpt>
      <trkpt lat="45.69985" lon="6.6459">
        <ele>1492</ele>
        <time>2014-10-20T12:03:40Z</time>
      </trkpt>
      <trkpt lat="45.69994" lon="6.64625">
        <ele>1491</ele>
        <time>2014-10-20T12:03:44Z</time>
      </trkpt>
      <trkpt lat="45.70003" lon="6.6465">
        <ele>1490</ele>
        <time>2014-10-20T12:03:47Z</time>
      </trkpt>
      <trkpt lat="45.70009" lon="6.64667">
        <ele>1489</ele>
        <time>2014-10-20T12:03:49Z</time>
      </trkpt>
      <trkpt lat="45.70019" lon="6.64693">
        <ele>1488</ele>
        <time>2014-10-20T12:03:52Z</time>
      </trkpt>
      <trkpt lat="45.70025" lon="6.64711">
        <ele>1488</ele>
        <time>2014-10-20T12:03:54Z</time>
      </trkpt>
      <trkpt lat="45.70035" lon="6.64739">
        <ele>1488</ele>
        <time>2014-10-20T12:03:57Z</time>
      </trkpt>
      <trkpt lat="45.70048" lon="6.64767">
        <ele>1488</ele>
        <time>2014-10-20T12:04:00Z</time>
      </trkpt>
      <trkpt lat="45.70065" lon="6.64791">
        <ele>1488</ele>
        <time>2014-10-20T12:04:03Z</time>
      </trkpt>
      <trkpt lat="45.70078" lon="6.64808">
        <ele>1488</ele>
        <time>2014-10-20T12:04:05Z</time>
      </trkpt>
      <trkpt lat="45.7009" lon="6.64827">
        <ele>1489</ele>
        <time>2014-10-20T12:04:07Z</time>
      </trkpt>
      <trkpt lat="45.70101" lon="6.64848">
        <ele>1489</ele>
        <time>2014-10-20T12:04:09Z</time>
      </trkpt>
      <trkpt lat="45.7011" lon="6.64886">
        <ele>1488</ele>
        <time>2014-10-20T12:04:12Z</time>
      </trkpt>
      <trkpt lat="45.70108" lon="6.64913">
        <ele>1487</ele>
        <time>2014-10-20T12:04:14Z</time>
      </trkpt>
      <trkpt lat="45.70098" lon="6.6495">
        <ele>1487</ele>
        <time>2014-10-20T12:04:17Z</time>
      </trkpt>
      <trkpt lat="45.70086" lon="6.6497">
        <ele>1486</ele>
        <time>2014-10-20T12:04:19Z</time>
      </trkpt>
      <trkpt lat="45.70063" lon="6.64992">
        <ele>1485</ele>
        <time>2014-10-20T12:04:22Z</time>
      </trkpt>
      <trkpt lat="45.70041" lon="6.65012">
        <ele>1483</ele>
        <time>2014-10-20T12:04:25Z</time>
      </trkpt>
      <trkpt lat="45.70027" lon="6.65044">
        <ele>1482</ele>
        <time>2014-10-20T12:04:28Z</time>
      </trkpt>
      <trkpt lat="45.70026" lon="6.65073">
        <ele>1482</ele>
        <time>2014-10-20T12:04:30Z</time>
      </trkpt>
      <trkpt lat="45.70031" lon="6.65119">
        <ele>1481</ele>
        <time>2014-10-20T12:04:33Z</time>
      </trkpt>
      <trkpt lat="45.70033" lon="6.65154">
        <ele>1481</ele>
        <time>2014-10-20T12:04:35Z</time>
      </trkpt>
      <trkpt lat="45.70031" lon="6.65207">
        <ele>1481</ele>
        <time>2014-10-20T12:04:38Z</time>
      </trkpt>
      <trkpt lat="45.70035" lon="6.65242">
        <ele>1480</ele>
        <time>2014-10-20T12:04:40Z</time>
      </trkpt>
      <trkpt lat="45.70039" lon="6.65275">
        <ele>1479</ele>
        <time>2014-10-20T12:04:42Z</time>
      </trkpt>
      <trkpt lat="45.70034" lon="6.65321">
        <ele>1475</ele>
        <time>2014-10-20T12:04:45Z</time>
      </trkpt>
      <trkpt lat="45.70017" lon="6.65356">
        <ele>1472</ele>
        <time>2014-10-20T12:04:48Z</time>
      </trkpt>
      <trkpt lat="45.70005" lon="6.65378">
        <ele>1471</ele>
        <time>2014-10-20T12:04:50Z</time>
      </trkpt>
      <trkpt lat="45.69994" lon="6.654">
        <ele>1471</ele>
        <time>2014-10-20T12:04:52Z</time>
      </trkpt>
      <trkpt lat="45.69982" lon="6.65434">
        <ele>1471</ele>
        <time>2014-10-20T12:04:55Z</time>
      </trkpt>
      <trkpt lat="45.69975" lon="6.65458">
        <ele>1471</ele>
        <time>2014-10-20T12:04:57Z</time>
      </trkpt>
      <trkpt lat="45.69965" lon="6.65493">
        <ele>1470</ele>
        <time>2014-10-20T12:05:00Z</time>
      </trkpt>
      <trkpt lat="45.69949" lon="6.65517">
        <ele>1470</ele>
        <time>2014-10-20T12:05:03Z</time>
      </trkpt>
      <trkpt lat="45.69934" lon="6.65524">
        <ele>1470</ele>
        <time>2014-10-20T12:05:05Z</time>
      </trkpt>
      <trkpt lat="45.69912" lon="6.65531">
        <ele>1469</ele>
        <time>2014-10-20T12:05:08Z</time>
      </trkpt>
      <trkpt lat="45.69898" lon="6.65536">
        <ele>1469</ele>
        <time>2014-10-20T12:05:10Z</time>
      </trkpt>
      <trkpt lat="45.69878" lon="6.65549">
        <ele>1469</ele>
        <time>2014-10-20T12:05:13Z</time>
      </trkpt>
      <trkpt lat="45.69867" lon="6.6556">
        <ele>1468</ele>
        <time>2014-10-20T12:05:15Z</time>
      </trkpt>
      <trkpt lat="45.69853" lon="6.65578">
        <ele>1469</ele>
        <time>2014-10-20T12:05:18Z</time>
      </trkpt>
      <trkpt lat="45.69841" lon="6.65593">
        <ele>1469</ele>
        <time>2014-10-20T12:05:21Z</time>
      </trkpt>
      <trkpt lat="45.69833" lon="6.65602">
        <ele>1469</ele>
        <time>2014-10-20T12:05:23Z</time>
      </trkpt>
      <trkpt lat="45.69823" lon="6.65615">
        <ele>1469</ele>
        <time>2014-10-20T12:05:26Z</time>
      </trkpt>
      <trkpt lat="45.69814" lon="6.65622">
        <ele>1470</ele>
        <time>2014-10-20T12:05:29Z</time>
      </trkpt>
      <trkpt lat="45.69808" lon="6.65626">
        <ele>1470</ele>
        <time>2014-10-20T12:05:31Z</time>
      </trkpt>
      <trkpt lat="45.69802" lon="6.6563">
        <ele>1471</ele>
        <time>2014-10-20T12:05:33Z</time>
      </trkpt>
      <trkpt lat="45.69792" lon="6.65634">
        <ele>1472</ele>
        <time>2014-10-20T12:05:36Z</time>
      </trkpt>
      <trkpt lat="45.69781" lon="6.65638">
        <ele>1473</ele>
        <time>2014-10-20T12:05:39Z</time>
      </trkpt>
      <trkpt lat="45.69774" lon="6.65639">
        <ele>1474</ele>
        <time>2014-10-20T12:05:41Z</time>
      </trkpt>
      <trkpt lat="45.69767" lon="6.6564">
        <ele>1475</ele>
        <time>2014-10-20T12:05:43Z</time>
      </trkpt>
      <trkpt lat="45.69761" lon="6.6564">
        <ele>1475</ele>
        <time>2014-10-20T12:05:45Z</time>
      </trkpt>
      <trkpt lat="45.69749" lon="6.6564">
        <ele>1476</ele>
        <time>2014-10-20T12:05:48Z</time>
      </trkpt>
      <trkpt lat="45.6974" lon="6.65639">
        <ele>1476</ele>
        <time>2014-10-20T12:05:50Z</time>
      </trkpt>
      <trkpt lat="45.6973" lon="6.65636">
        <ele>1477</ele>
        <time>2014-10-20T12:05:53Z</time>
      </trkpt>
      <trkpt lat="45.69722" lon="6.65635">
        <ele>1478</ele>
        <time>2014-10-20T12:05:56Z</time>
      </trkpt>
      <trkpt lat="45.69718" lon="6.65634">
        <ele>1479</ele>
        <time>2014-10-20T12:05:58Z</time>
      </trkpt>
      <trkpt lat="45.6971" lon="6.65629">
        <ele>1479</ele>
        <time>2014-10-20T12:06:01Z</time>
      </trkpt>
      <trkpt lat="45.69701" lon="6.65626">
        <ele>1480</ele>
        <time>2014-10-20T12:06:04Z</time>
      </trkpt>
      <trkpt lat="45.69695" lon="6.65623">
        <ele>1480</ele>
        <time>2014-10-20T12:06:06Z</time>
      </trkpt>
      <trkpt lat="45.69685" lon="6.65619">
        <ele>1481</ele>
        <time>2014-10-20T12:06:09Z</time>
      </trkpt>
      <trkpt lat="45.69679" lon="6.65616">
        <ele>1482</ele>
        <time>2014-10-20T12:06:11Z</time>
      </trkpt>
      <trkpt lat="45.69669" lon="6.65613">
        <ele>1483</ele>
        <time>2014-10-20T12:06:14Z</time>
      </trkpt>
      <trkpt lat="45.69664" lon="6.6561">
        <ele>1484</ele>
        <time>2014-10-20T12:06:16Z</time>
      </trkpt>
      <trkpt lat="45.69657" lon="6.65607">
        <ele>1484</ele>
        <time>2014-10-20T12:06:18Z</time>
      </trkpt>
      <trkpt lat="45.69651" lon="6.65604">
        <ele>1485</ele>
        <time>2014-10-20T12:06:20Z</time>
      </trkpt>
      <trkpt lat="45.6964" lon="6.65599">
        <ele>1486</ele>
        <time>2014-10-20T12:06:23Z</time>
      </trkpt>
      <trkpt lat="45.6963" lon="6.65594">
        <ele>1487</ele>
        <time>2014-10-20T12:06:26Z</time>
      </trkpt>
      <trkpt lat="45.69623" lon="6.6559">
        <ele>1487</ele>
        <time>2014-10-20T12:06:28Z</time>
      </trkpt>
      <trkpt lat="45.69613" lon="6.65587">
        <ele>1489</ele>
        <time>2014-10-20T12:06:31Z</time>
      </trkpt>
      <trkpt lat="45.69602" lon="6.65583">
        <ele>1489</ele>
        <time>2014-10-20T12:06:34Z</time>
      </trkpt>
      <trkpt lat="45.69595" lon="6.65581">
        <ele>1490</ele>
        <time>2014-10-20T12:06:36Z</time>
      </trkpt>
      <trkpt lat="45.69586" lon="6.65577">
        <ele>1491</ele>
        <time>2014-10-20T12:06:39Z</time>
      </trkpt>
      <trkpt lat="45.69576" lon="6.65573">
        <ele>1491</ele>
        <time>2014-10-20T12:06:42Z</time>
      </trkpt>
      <trkpt lat="45.69569" lon="6.6557">
        <ele>1492</ele>
        <time>2014-10-20T12:06:44Z</time>
      </trkpt>
      <trkpt lat="45.69558" lon="6.65566">
        <ele>1493</ele>
        <time>2014-10-20T12:06:47Z</time>
      </trkpt>
      <trkpt lat="45.6955" lon="6.65563">
        <ele>1493</ele>
        <time>2014-10-20T12:06:49Z</time>
      </trkpt>
      <trkpt lat="45.69543" lon="6.6556">
        <ele>1494</ele>
        <time>2014-10-20T12:06:51Z</time>
      </trkpt>
      <trkpt lat="45.69531" lon="6.65556">
        <ele>1494</ele>
        <time>2014-10-20T12:06:54Z</time>
      </trkpt>
      <trkpt lat="45.69523" lon="6.65553">
        <ele>1495</ele>
        <time>2014-10-20T12:06:56Z</time>
      </trkpt>
      <trkpt lat="45.69511" lon="6.65549">
        <ele>1496</ele>
        <time>2014-10-20T12:06:59Z</time>
      </trkpt>
      <trkpt lat="45.695" lon="6.65546">
        <ele>1496</ele>
        <time>2014-10-20T12:07:02Z</time>
      </trkpt>
      <trkpt lat="45.69492" lon="6.65545">
        <ele>1497</ele>
        <time>2014-10-20T12:07:04Z</time>
      </trkpt>
      <trkpt lat="45.69482" lon="6.65546">
        <ele>1498</ele>
        <time>2014-10-20T12:07:07Z</time>
      </trkpt>
      <trkpt lat="45.69472" lon="6.6555">
        <ele>1499</ele>
        <time>2014-10-20T12:07:10Z</time>
      </trkpt>
      <trkpt lat="45.69466" lon="6.65555">
        <ele>1499</ele>
        <time>2014-10-20T12:07:12Z</time>
      </trkpt>
      <trkpt lat="45.69461" lon="6.65561">
        <ele>1499</ele>
        <time>2014-10-20T12:07:14Z</time>
      </trkpt>
      <trkpt lat="45.69456" lon="6.65568">
        <ele>1500</ele>
        <time>2014-10-20T12:07:16Z</time>
      </trkpt>
      <trkpt lat="45.6945" lon="6.65581">
        <ele>1500</ele>
        <time>2014-10-20T12:07:19Z</time>
      </trkpt>
      <trkpt lat="45.69446" lon="6.6559">
        <ele>1500</ele>
        <time>2014-10-20T12:07:21Z</time>
      </trkpt>
      <trkpt lat="45.69444" lon="6.65607">
        <ele>1501</ele>
        <time>2014-10-20T12:07:24Z</time>
      </trkpt>
      <trkpt lat="45.69444" lon="6.65625">
        <ele>1502</ele>
        <time>2014-10-20T12:07:27Z</time>
      </trkpt>
      <trkpt lat="45.69447" lon="6.65635">
        <ele>1503</ele>
        <time>2014-10-20T12:07:29Z</time>
      </trkpt>
      <trkpt lat="45.69451" lon="6.65652">
        <ele>1504</ele>
        <time>2014-10-20T12:07:32Z</time>
      </trkpt>
      <trkpt lat="45.69457" lon="6.65666">
        <ele>1504</ele>
        <time>2014-10-20T12:07:35Z</time>
      </trkpt>
      <trkpt lat="45.69462" lon="6.65674">
        <ele>1505</ele>
        <time>2014-10-20T12:07:37Z</time>
      </trkpt>
      <trkpt lat="45.69471" lon="6.65681">
        <ele>1505</ele>
        <time>2014-10-20T12:07:40Z</time>
      </trkpt>
      <trkpt lat="45.69479" lon="6.65685">
        <ele>1506</ele>
        <time>2014-10-20T12:07:42Z</time>
      </trkpt>
      <trkpt lat="45.6949" lon="6.65688">
        <ele>1507</ele>
        <time>2014-10-20T12:07:45Z</time>
      </trkpt>
      <trkpt lat="45.69499" lon="6.65688">
        <ele>1507</ele>
        <time>2014-10-20T12:07:47Z</time>
      </trkpt>
      <trkpt lat="45.69507" lon="6.65688">
        <ele>1508</ele>
        <time>2014-10-20T12:07:49Z</time>
      </trkpt>
      <trkpt lat="45.69516" lon="6.65686">
        <ele>1508</ele>
        <time>2014-10-20T12:07:51Z</time>
      </trkpt>
      <trkpt lat="45.69528" lon="6.65684">
        <ele>1509</ele>
        <time>2014-10-20T12:07:54Z</time>
      </trkpt>
      <trkpt lat="45.69537" lon="6.65683">
        <ele>1509</ele>
        <time>2014-10-20T12:07:56Z</time>
      </trkpt>
      <trkpt lat="45.69549" lon="6.65681">
        <ele>1510</ele>
        <time>2014-10-20T12:07:59Z</time>
      </trkpt>
      <trkpt lat="45.69557" lon="6.65681">
        <ele>1510</ele>
        <time>2014-10-20T12:08:01Z</time>
      </trkpt>
      <trkpt lat="45.69569" lon="6.65685">
        <ele>1511</ele>
        <time>2014-10-20T12:08:04Z</time>
      </trkpt>
      <trkpt lat="45.6958" lon="6.65693">
        <ele>1511</ele>
        <time>2014-10-20T12:08:07Z</time>
      </trkpt>
      <trkpt lat="45.69586" lon="6.65699">
        <ele>1512</ele>
        <time>2014-10-20T12:08:09Z</time>
      </trkpt>
      <trkpt lat="45.69593" lon="6.65711">
        <ele>1513</ele>
        <time>2014-10-20T12:08:12Z</time>
      </trkpt>
      <trkpt lat="45.69596" lon="6.65721">
        <ele>1513</ele>
        <time>2014-10-20T12:08:14Z</time>
      </trkpt>
      <trkpt lat="45.69598" lon="6.65737">
        <ele>1515</ele>
        <time>2014-10-20T12:08:17Z</time>
      </trkpt>
      <trkpt lat="45.69598" lon="6.65748">
        <ele>1516</ele>
        <time>2014-10-20T12:08:19Z</time>
      </trkpt>
      <trkpt lat="45.69594" lon="6.65764">
        <ele>1517</ele>
        <time>2014-10-20T12:08:22Z</time>
      </trkpt>
      <trkpt lat="45.6959" lon="6.65772">
        <ele>1517</ele>
        <time>2014-10-20T12:08:24Z</time>
      </trkpt>
      <trkpt lat="45.69586" lon="6.65781">
        <ele>1518</ele>
        <time>2014-10-20T12:08:26Z</time>
      </trkpt>
      <trkpt lat="45.69581" lon="6.65789">
        <ele>1518</ele>
        <time>2014-10-20T12:08:28Z</time>
      </trkpt>
      <trkpt lat="45.69571" lon="6.65797">
        <ele>1519</ele>
        <time>2014-10-20T12:08:31Z</time>
      </trkpt>
      <trkpt lat="45.6956" lon="6.658">
        <ele>1520</ele>
        <time>2014-10-20T12:08:34Z</time>
      </trkpt>
      <trkpt lat="45.69553" lon="6.65799">
        <ele>1521</ele>
        <time>2014-10-20T12:08:36Z</time>
      </trkpt>
      <trkpt lat="45.69545" lon="6.65797">
        <ele>1522</ele>
        <time>2014-10-20T12:08:39Z</time>
      </trkpt>
      <trkpt lat="45.69539" lon="6.65796">
        <ele>1523</ele>
        <time>2014-10-20T12:08:41Z</time>
      </trkpt>
      <trkpt lat="45.69529" lon="6.65794">
        <ele>1524</ele>
        <time>2014-10-20T12:08:44Z</time>
      </trkpt>
      <trkpt lat="45.69521" lon="6.65792">
        <ele>1524</ele>
        <time>2014-10-20T12:08:47Z</time>
      </trkpt>
      <trkpt lat="45.69514" lon="6.65791">
        <ele>1525</ele>
        <time>2014-10-20T12:08:49Z</time>
      </trkpt>
      <trkpt lat="45.69505" lon="6.65788">
        <ele>1526</ele>
        <time>2014-10-20T12:08:52Z</time>
      </trkpt>
      <trkpt lat="45.69499" lon="6.65787">
        <ele>1527</ele>
        <time>2014-10-20T12:08:54Z</time>
      </trkpt>
      <trkpt lat="45.6949" lon="6.65785">
        <ele>1527</ele>
        <time>2014-10-20T12:08:57Z</time>
      </trkpt>
      <trkpt lat="45.69483" lon="6.65784">
        <ele>1527</ele>
        <time>2014-10-20T12:08:59Z</time>
      </trkpt>
      <trkpt lat="45.69477" lon="6.65783">
        <ele>1528</ele>
        <time>2014-10-20T12:09:01Z</time>
      </trkpt>
      <trkpt lat="45.6947" lon="6.65782">
        <ele>1528</ele>
        <time>2014-10-20T12:09:03Z</time>
      </trkpt>
      <trkpt lat="45.69462" lon="6.65781">
        <ele>1529</ele>
        <time>2014-10-20T12:09:06Z</time>
      </trkpt>
      <trkpt lat="45.69454" lon="6.65778">
        <ele>1529</ele>
        <time>2014-10-20T12:09:09Z</time>
      </trkpt>
      <trkpt lat="45.69449" lon="6.65776">
        <ele>1530</ele>
        <time>2014-10-20T12:09:11Z</time>
      </trkpt>
      <trkpt lat="45.69441" lon="6.65773">
        <ele>1530</ele>
        <time>2014-10-20T12:09:14Z</time>
      </trkpt>
      <trkpt lat="45.69436" lon="6.65771">
        <ele>1531</ele>
        <time>2014-10-20T12:09:16Z</time>
      </trkpt>
      <trkpt lat="45.69427" lon="6.65767">
        <ele>1532</ele>
        <time>2014-10-20T12:09:19Z</time>
      </trkpt>
      <trkpt lat="45.69421" lon="6.65762">
        <ele>1533</ele>
        <time>2014-10-20T12:09:21Z</time>
      </trkpt>
      <trkpt lat="45.69414" lon="6.6575">
        <ele>1533</ele>
        <time>2014-10-20T12:09:24Z</time>
      </trkpt>
      <trkpt lat="45.69411" lon="6.6574">
        <ele>1534</ele>
        <time>2014-10-20T12:09:26Z</time>
      </trkpt>
      <trkpt lat="45.69407" lon="6.65726">
        <ele>1534</ele>
        <time>2014-10-20T12:09:29Z</time>
      </trkpt>
      <trkpt lat="45.69401" lon="6.65711">
        <ele>1536</ele>
        <time>2014-10-20T12:09:32Z</time>
      </trkpt>
      <trkpt lat="45.69396" lon="6.65702">
        <ele>1537</ele>
        <time>2014-10-20T12:09:34Z</time>
      </trkpt>
      <trkpt lat="45.69391" lon="6.65694">
        <ele>1537</ele>
        <time>2014-10-20T12:09:36Z</time>
      </trkpt>
      <trkpt lat="45.69385" lon="6.65687">
        <ele>1538</ele>
        <time>2014-10-20T12:09:38Z</time>
      </trkpt>
      <trkpt lat="45.69379" lon="6.6568">
        <ele>1538</ele>
        <time>2014-10-20T12:09:40Z</time>
      </trkpt>
      <trkpt lat="45.69373" lon="6.65674">
        <ele>1538</ele>
        <time>2014-10-20T12:09:42Z</time>
      </trkpt>
      <trkpt lat="45.69364" lon="6.65666">
        <ele>1539</ele>
        <time>2014-10-20T12:09:45Z</time>
      </trkpt>
      <trkpt lat="45.69359" lon="6.6566">
        <ele>1540</ele>
        <time>2014-10-20T12:09:47Z</time>
      </trkpt>
      <trkpt lat="45.69352" lon="6.65653">
        <ele>1541</ele>
        <time>2014-10-20T12:09:49Z</time>
      </trkpt>
      <trkpt lat="45.69343" lon="6.65639">
        <ele>1542</ele>
        <time>2014-10-20T12:09:52Z</time>
      </trkpt>
      <trkpt lat="45.69337" lon="6.6563">
        <ele>1543</ele>
        <time>2014-10-20T12:09:54Z</time>
      </trkpt>
      <trkpt lat="45.69332" lon="6.65622">
        <ele>1544</ele>
        <time>2014-10-20T12:09:56Z</time>
      </trkpt>
      <trkpt lat="45.69323" lon="6.65613">
        <ele>1545</ele>
        <time>2014-10-20T12:09:59Z</time>
      </trkpt>
      <trkpt lat="45.69317" lon="6.65607">
        <ele>1545</ele>
        <time>2014-10-20T12:10:01Z</time>
      </trkpt>
      <trkpt lat="45.6931" lon="6.65601">
        <ele>1545</ele>
        <time>2014-10-20T12:10:03Z</time>
      </trkpt>
      <trkpt lat="45.69304" lon="6.65595">
        <ele>1546</ele>
        <time>2014-10-20T12:10:05Z</time>
      </trkpt>
      <trkpt lat="45.69293" lon="6.65586">
        <ele>1547</ele>
        <time>2014-10-20T12:10:08Z</time>
      </trkpt>
      <trkpt lat="45.69286" lon="6.6558">
        <ele>1548</ele>
        <time>2014-10-20T12:10:10Z</time>
      </trkpt>
      <trkpt lat="45.69279" lon="6.65574">
        <ele>1548</ele>
        <time>2014-10-20T12:10:12Z</time>
      </trkpt>
      <trkpt lat="45.69272" lon="6.65567">
        <ele>1549</ele>
        <time>2014-10-20T12:10:14Z</time>
      </trkpt>
      <trkpt lat="45.69262" lon="6.65556">
        <ele>1550</ele>
        <time>2014-10-20T12:10:17Z</time>
      </trkpt>
      <trkpt lat="45.69257" lon="6.65548">
        <ele>1550</ele>
        <time>2014-10-20T12:10:19Z</time>
      </trkpt>
      <trkpt lat="45.69251" lon="6.65541">
        <ele>1551</ele>
        <time>2014-10-20T12:10:21Z</time>
      </trkpt>
      <trkpt lat="45.69246" lon="6.65534">
        <ele>1551</ele>
        <time>2014-10-20T12:10:23Z</time>
      </trkpt>
      <trkpt lat="45.69242" lon="6.65527">
        <ele>1552</ele>
        <time>2014-10-20T12:10:25Z</time>
      </trkpt>
      <trkpt lat="45.69235" lon="6.65516">
        <ele>1552</ele>
        <time>2014-10-20T12:10:28Z</time>
      </trkpt>
      <trkpt lat="45.6923" lon="6.65509">
        <ele>1553</ele>
        <time>2014-10-20T12:10:30Z</time>
      </trkpt>
      <trkpt lat="45.69225" lon="6.65501">
        <ele>1554</ele>
        <time>2014-10-20T12:10:32Z</time>
      </trkpt>
      <trkpt lat="45.69221" lon="6.65494">
        <ele>1554</ele>
        <time>2014-10-20T12:10:34Z</time>
      </trkpt>
      <trkpt lat="45.69217" lon="6.65487">
        <ele>1555</ele>
        <time>2014-10-20T12:10:36Z</time>
      </trkpt>
      <trkpt lat="45.6921" lon="6.65476">
        <ele>1556</ele>
        <time>2014-10-20T12:10:39Z</time>
      </trkpt>
      <trkpt lat="45.69204" lon="6.6547">
        <ele>1556</ele>
        <time>2014-10-20T12:10:41Z</time>
      </trkpt>
      <trkpt lat="45.69199" lon="6.65463">
        <ele>1557</ele>
        <time>2014-10-20T12:10:43Z</time>
      </trkpt>
      <trkpt lat="45.69192" lon="6.65454">
        <ele>1557</ele>
        <time>2014-10-20T12:10:46Z</time>
      </trkpt>
      <trkpt lat="45.69186" lon="6.65448">
        <ele>1558</ele>
        <time>2014-10-20T12:10:48Z</time>
      </trkpt>
      <trkpt lat="45.69181" lon="6.65442">
        <ele>1558</ele>
        <time>2014-10-20T12:10:50Z</time>
      </trkpt>
      <trkpt lat="45.69176" lon="6.65437">
        <ele>1559</ele>
        <time>2014-10-20T12:10:52Z</time>
      </trkpt>
      <trkpt lat="45.69168" lon="6.65428">
        <ele>1560</ele>
        <time>2014-10-20T12:10:55Z</time>
      </trkpt>
      <trkpt lat="45.69163" lon="6.65422">
        <ele>1560</ele>
        <time>2014-10-20T12:10:57Z</time>
      </trkpt>
      <trkpt lat="45.69157" lon="6.65416">
        <ele>1560</ele>
        <time>2014-10-20T12:10:59Z</time>
      </trkpt>
      <trkpt lat="45.6915" lon="6.65408">
        <ele>1561</ele>
        <time>2014-10-20T12:11:02Z</time>
      </trkpt>
      <trkpt lat="45.69144" lon="6.65402">
        <ele>1562</ele>
        <time>2014-10-20T12:11:04Z</time>
      </trkpt>
      <trkpt lat="45.69139" lon="6.65395">
        <ele>1562</ele>
        <time>2014-10-20T12:11:06Z</time>
      </trkpt>
      <trkpt lat="45.69134" lon="6.65389">
        <ele>1563</ele>
        <time>2014-10-20T12:11:08Z</time>
      </trkpt>
      <trkpt lat="45.69127" lon="6.65379">
        <ele>1563</ele>
        <time>2014-10-20T12:11:11Z</time>
      </trkpt>
      <trkpt lat="45.69122" lon="6.65373">
        <ele>1564</ele>
        <time>2014-10-20T12:11:13Z</time>
      </trkpt>
      <trkpt lat="45.69116" lon="6.65368">
        <ele>1564</ele>
        <time>2014-10-20T12:11:15Z</time>
      </trkpt>
      <trkpt lat="45.69109" lon="6.65377">
        <ele>1564</ele>
        <time>2014-10-20T12:11:18Z</time>
      </trkpt>
      <trkpt lat="45.69112" lon="6.65386">
        <ele>1564</ele>
        <time>2014-10-20T12:11:20Z</time>
      </trkpt>
      <trkpt lat="45.69117" lon="6.65392">
        <ele>1565</ele>
        <time>2014-10-20T12:11:22Z</time>
      </trkpt>
      <trkpt lat="45.69121" lon="6.65397">
        <ele>1565</ele>
        <time>2014-10-20T12:11:24Z</time>
      </trkpt>
      <trkpt lat="45.69125" lon="6.65403">
        <ele>1565</ele>
        <time>2014-10-20T12:11:26Z</time>
      </trkpt>
      <trkpt lat="45.6913" lon="6.6541">
        <ele>1566</ele>
        <time>2014-10-20T12:11:28Z</time>
      </trkpt>
      <trkpt lat="45.69136" lon="6.65419">
        <ele>1567</ele>
        <time>2014-10-20T12:11:31Z</time>
      </trkpt>
      <trkpt lat="45.6914" lon="6.65426">
        <ele>1567</ele>
        <time>2014-10-20T12:11:33Z</time>
      </trkpt>
      <trkpt lat="45.69147" lon="6.65437">
        <ele>1568</ele>
        <time>2014-10-20T12:11:36Z</time>
      </trkpt>
      <trkpt lat="45.69151" lon="6.65444">
        <ele>1569</ele>
        <time>2014-10-20T12:11:38Z</time>
      </trkpt>
      <trkpt lat="45.69154" lon="6.6545">
        <ele>1570</ele>
        <time>2014-10-20T12:11:40Z</time>
      </trkpt>
      <trkpt lat="45.69158" lon="6.65456">
        <ele>1570</ele>
        <time>2014-10-20T12:11:42Z</time>
      </trkpt>
      <trkpt lat="45.69164" lon="6.65466">
        <ele>1571</ele>
        <time>2014-10-20T12:11:45Z</time>
      </trkpt>
      <trkpt lat="45.69169" lon="6.65472">
        <ele>1572</ele>
        <time>2014-10-20T12:11:47Z</time>
      </trkpt>
      <trkpt lat="45.69173" lon="6.65479">
        <ele>1572</ele>
        <time>2014-10-20T12:11:49Z</time>
      </trkpt>
      <trkpt lat="45.69177" lon="6.6549">
        <ele>1573</ele>
        <time>2014-10-20T12:11:52Z</time>
      </trkpt>
      <trkpt lat="45.6918" lon="6.65497">
        <ele>1574</ele>
        <time>2014-10-20T12:11:54Z</time>
      </trkpt>
      <trkpt lat="45.69183" lon="6.65506">
        <ele>1575</ele>
        <time>2014-10-20T12:11:56Z</time>
      </trkpt>
      <trkpt lat="45.69189" lon="6.65518">
        <ele>1575</ele>
        <time>2014-10-20T12:11:59Z</time>
      </trkpt>
      <trkpt lat="45.69192" lon="6.65527">
        <ele>1576</ele>
        <time>2014-10-20T12:12:01Z</time>
      </trkpt>
      <trkpt lat="45.69195" lon="6.65537">
        <ele>1577</ele>
        <time>2014-10-20T12:12:03Z</time>
      </trkpt>
      <trkpt lat="45.69198" lon="6.65546">
        <ele>1578</ele>
        <time>2014-10-20T12:12:05Z</time>
      </trkpt>
      <trkpt lat="45.69202" lon="6.6556">
        <ele>1578</ele>
        <time>2014-10-20T12:12:08Z</time>
      </trkpt>
      <trkpt lat="45.69205" lon="6.65569">
        <ele>1579</ele>
        <time>2014-10-20T12:12:10Z</time>
      </trkpt>
      <trkpt lat="45.69209" lon="6.65577">
        <ele>1579</ele>
        <time>2014-10-20T12:12:12Z</time>
      </trkpt>
      <trkpt lat="45.69213" lon="6.65585">
        <ele>1580</ele>
        <time>2014-10-20T12:12:14Z</time>
      </trkpt>
      <trkpt lat="45.69218" lon="6.65596">
        <ele>1581</ele>
        <time>2014-10-20T12:12:17Z</time>
      </trkpt>
      <trkpt lat="45.69222" lon="6.65604">
        <ele>1582</ele>
        <time>2014-10-20T12:12:19Z</time>
      </trkpt>
      <trkpt lat="45.69225" lon="6.65612">
        <ele>1582</ele>
        <time>2014-10-20T12:12:21Z</time>
      </trkpt>
      <trkpt lat="45.69231" lon="6.65622">
        <ele>1583</ele>
        <time>2014-10-20T12:12:24Z</time>
      </trkpt>
      <trkpt lat="45.69234" lon="6.6563">
        <ele>1584</ele>
        <time>2014-10-20T12:12:26Z</time>
      </trkpt>
      <trkpt lat="45.69239" lon="6.65636">
        <ele>1584</ele>
        <time>2014-10-20T12:12:28Z</time>
      </trkpt>
      <trkpt lat="45.69243" lon="6.65643">
        <ele>1585</ele>
        <time>2014-10-20T12:12:30Z</time>
      </trkpt>
      <trkpt lat="45.69247" lon="6.6565">
        <ele>1585</ele>
        <time>2014-10-20T12:12:32Z</time>
      </trkpt>
      <trkpt lat="45.69252" lon="6.6566">
        <ele>1586</ele>
        <time>2014-10-20T12:12:35Z</time>
      </trkpt>
      <trkpt lat="45.69257" lon="6.65667">
        <ele>1586</ele>
        <time>2014-10-20T12:12:37Z</time>
      </trkpt>
      <trkpt lat="45.69261" lon="6.65674">
        <ele>1587</ele>
        <time>2014-10-20T12:12:39Z</time>
      </trkpt>
      <trkpt lat="45.69267" lon="6.65685">
        <ele>1588</ele>
        <time>2014-10-20T12:12:42Z</time>
      </trkpt>
      <trkpt lat="45.6927" lon="6.65693">
        <ele>1588</ele>
        <time>2014-10-20T12:12:44Z</time>
      </trkpt>
      <trkpt lat="45.69274" lon="6.65699">
        <ele>1589</ele>
        <time>2014-10-20T12:12:46Z</time>
      </trkpt>
      <trkpt lat="45.69278" lon="6.65706">
        <ele>1589</ele>
        <time>2014-10-20T12:12:48Z</time>
      </trkpt>
      <trkpt lat="45.69284" lon="6.65717">
        <ele>1590</ele>
        <time>2014-10-20T12:12:51Z</time>
      </trkpt>
      <trkpt lat="45.69289" lon="6.65724">
        <ele>1590</ele>
        <time>2014-10-20T12:12:53Z</time>
      </trkpt>
      <trkpt lat="45.69294" lon="6.6573">
        <ele>1591</ele>
        <time>2014-10-20T12:12:55Z</time>
      </trkpt>
      <trkpt lat="45.693" lon="6.65742">
        <ele>1592</ele>
        <time>2014-10-20T12:12:58Z</time>
      </trkpt>
      <trkpt lat="45.69304" lon="6.65751">
        <ele>1592</ele>
        <time>2014-10-20T12:13:00Z</time>
      </trkpt>
      <trkpt lat="45.69308" lon="6.65759">
        <ele>1593</ele>
        <time>2014-10-20T12:13:02Z</time>
      </trkpt>
      <trkpt lat="45.69313" lon="6.65769">
        <ele>1594</ele>
        <time>2014-10-20T12:13:05Z</time>
      </trkpt>
      <trkpt lat="45.69315" lon="6.65776">
        <ele>1594</ele>
        <time>2014-10-20T12:13:07Z</time>
      </trkpt>
      <trkpt lat="45.69318" lon="6.65783">
        <ele>1595</ele>
        <time>2014-10-20T12:13:09Z</time>
      </trkpt>
      <trkpt lat="45.69325" lon="6.65792">
        <ele>1595</ele>
        <time>2014-10-20T12:13:12Z</time>
      </trkpt>
      <trkpt lat="45.69329" lon="6.65797">
        <ele>1596</ele>
        <time>2014-10-20T12:13:14Z</time>
      </trkpt>
      <trkpt lat="45.69334" lon="6.65802">
        <ele>1597</ele>
        <time>2014-10-20T12:13:16Z</time>
      </trkpt>
      <trkpt lat="45.69339" lon="6.65807">
        <ele>1597</ele>
        <time>2014-10-20T12:13:18Z</time>
      </trkpt>
      <trkpt lat="45.69347" lon="6.65816">
        <ele>1598</ele>
        <time>2014-10-20T12:13:21Z</time>
      </trkpt>
      <trkpt lat="45.69351" lon="6.65823">
        <ele>1599</ele>
        <time>2014-10-20T12:13:23Z</time>
      </trkpt>
      <trkpt lat="45.69356" lon="6.65831">
        <ele>1599</ele>
        <time>2014-10-20T12:13:25Z</time>
      </trkpt>
      <trkpt lat="45.69363" lon="6.65842">
        <ele>1600</ele>
        <time>2014-10-20T12:13:28Z</time>
      </trkpt>
      <trkpt lat="45.69368" lon="6.65851">
        <ele>1601</ele>
        <time>2014-10-20T12:13:30Z</time>
      </trkpt>
      <trkpt lat="45.69372" lon="6.65858">
        <ele>1601</ele>
        <time>2014-10-20T12:13:32Z</time>
      </trkpt>
      <trkpt lat="45.69375" lon="6.65865">
        <ele>1602</ele>
        <time>2014-10-20T12:13:34Z</time>
      </trkpt>
      <trkpt lat="45.69381" lon="6.65874">
        <ele>1603</ele>
        <time>2014-10-20T12:13:37Z</time>
      </trkpt>
      <trkpt lat="45.69385" lon="6.6588">
        <ele>1603</ele>
        <time>2014-10-20T12:13:39Z</time>
      </trkpt>
      <trkpt lat="45.6939" lon="6.65886">
        <ele>1603</ele>
        <time>2014-10-20T12:13:41Z</time>
      </trkpt>
      <trkpt lat="45.69396" lon="6.65895">
        <ele>1604</ele>
        <time>2014-10-20T12:13:44Z</time>
      </trkpt>
      <trkpt lat="45.69402" lon="6.65902">
        <ele>1605</ele>
        <time>2014-10-20T12:13:47Z</time>
      </trkpt>
      <trkpt lat="45.69405" lon="6.65908">
        <ele>1606</ele>
        <time>2014-10-20T12:13:49Z</time>
      </trkpt>
      <trkpt lat="45.69411" lon="6.65918">
        <ele>1607</ele>
        <time>2014-10-20T12:13:52Z</time>
      </trkpt>
      <trkpt lat="45.69415" lon="6.65926">
        <ele>1608</ele>
        <time>2014-10-20T12:13:54Z</time>
      </trkpt>
      <trkpt lat="45.69419" lon="6.65933">
        <ele>1608</ele>
        <time>2014-10-20T12:13:56Z</time>
      </trkpt>
      <trkpt lat="45.69424" lon="6.6594">
        <ele>1609</ele>
        <time>2014-10-20T12:13:58Z</time>
      </trkpt>
      <trkpt lat="45.69432" lon="6.65949">
        <ele>1610</ele>
        <time>2014-10-20T12:14:01Z</time>
      </trkpt>
      <trkpt lat="45.69437" lon="6.65955">
        <ele>1610</ele>
        <time>2014-10-20T12:14:03Z</time>
      </trkpt>
      <trkpt lat="45.69445" lon="6.65965">
        <ele>1612</ele>
        <time>2014-10-20T12:14:06Z</time>
      </trkpt>
      <trkpt lat="45.69453" lon="6.65973">
        <ele>1612</ele>
        <time>2014-10-20T12:14:09Z</time>
      </trkpt>
      <trkpt lat="45.69459" lon="6.65979">
        <ele>1613</ele>
        <time>2014-10-20T12:14:11Z</time>
      </trkpt>
      <trkpt lat="45.69467" lon="6.65986">
        <ele>1614</ele>
        <time>2014-10-20T12:14:14Z</time>
      </trkpt>
      <trkpt lat="45.69474" lon="6.65992">
        <ele>1614</ele>
        <time>2014-10-20T12:14:17Z</time>
      </trkpt>
      <trkpt lat="45.69481" lon="6.65998">
        <ele>1615</ele>
        <time>2014-10-20T12:14:20Z</time>
      </trkpt>
      <trkpt lat="45.69485" lon="6.66001">
        <ele>1615</ele>
        <time>2014-10-20T12:14:22Z</time>
      </trkpt>
      <trkpt lat="45.69489" lon="6.66005">
        <ele>1616</ele>
        <time>2014-10-20T12:14:24Z</time>
      </trkpt>
      <trkpt lat="45.69494" lon="6.66009">
        <ele>1616</ele>
        <time>2014-10-20T12:14:26Z</time>
      </trkpt>
      <trkpt lat="45.69503" lon="6.66015">
        <ele>1617</ele>
        <time>2014-10-20T12:14:29Z</time>
      </trkpt>
      <trkpt lat="45.69509" lon="6.66019">
        <ele>1617</ele>
        <time>2014-10-20T12:14:31Z</time>
      </trkpt>
      <trkpt lat="45.69518" lon="6.66027">
        <ele>1618</ele>
        <time>2014-10-20T12:14:34Z</time>
      </trkpt>
      <trkpt lat="45.69526" lon="6.66037">
        <ele>1619</ele>
        <time>2014-10-20T12:14:37Z</time>
      </trkpt>
      <trkpt lat="45.69531" lon="6.66044">
        <ele>1620</ele>
        <time>2014-10-20T12:14:39Z</time>
      </trkpt>
      <trkpt lat="45.69538" lon="6.66053">
        <ele>1621</ele>
        <time>2014-10-20T12:14:42Z</time>
      </trkpt>
      <trkpt lat="45.69543" lon="6.66064">
        <ele>1622</ele>
        <time>2014-10-20T12:14:45Z</time>
      </trkpt>
      <trkpt lat="45.69547" lon="6.66071">
        <ele>1622</ele>
        <time>2014-10-20T12:14:47Z</time>
      </trkpt>
      <trkpt lat="45.69553" lon="6.66083">
        <ele>1623</ele>
        <time>2014-10-20T12:14:50Z</time>
      </trkpt>
      <trkpt lat="45.69559" lon="6.66096">
        <ele>1624</ele>
        <time>2014-10-20T12:14:53Z</time>
      </trkpt>
      <trkpt lat="45.69563" lon="6.66104">
        <ele>1625</ele>
        <time>2014-10-20T12:14:55Z</time>
      </trkpt>
      <trkpt lat="45.69566" lon="6.6611">
        <ele>1625</ele>
        <time>2014-10-20T12:14:57Z</time>
      </trkpt>
      <trkpt lat="45.69569" lon="6.66116">
        <ele>1625</ele>
        <time>2014-10-20T12:14:59Z</time>
      </trkpt>
      <trkpt lat="45.69572" lon="6.66124">
        <ele>1626</ele>
        <time>2014-10-20T12:15:02Z</time>
      </trkpt>
      <trkpt lat="45.69575" lon="6.66129">
        <ele>1627</ele>
        <time>2014-10-20T12:15:04Z</time>
      </trkpt>
      <trkpt lat="45.69579" lon="6.66136">
        <ele>1627</ele>
        <time>2014-10-20T12:15:07Z</time>
      </trkpt>
      <trkpt lat="45.69584" lon="6.66146">
        <ele>1627</ele>
        <time>2014-10-20T12:15:10Z</time>
      </trkpt>
      <trkpt lat="45.69587" lon="6.66153">
        <ele>1628</ele>
        <time>2014-10-20T12:15:12Z</time>
      </trkpt>
      <trkpt lat="45.69592" lon="6.66166">
        <ele>1629</ele>
        <time>2014-10-20T12:15:15Z</time>
      </trkpt>
      <trkpt lat="45.69598" lon="6.6618">
        <ele>1630</ele>
        <time>2014-10-20T12:15:18Z</time>
      </trkpt>
      <trkpt lat="45.69601" lon="6.66188">
        <ele>1631</ele>
        <time>2014-10-20T12:15:20Z</time>
      </trkpt>
      <trkpt lat="45.69604" lon="6.662">
        <ele>1632</ele>
        <time>2014-10-20T12:15:23Z</time>
      </trkpt>
      <trkpt lat="45.69608" lon="6.66212">
        <ele>1633</ele>
        <time>2014-10-20T12:15:26Z</time>
      </trkpt>
      <trkpt lat="45.6961" lon="6.6622">
        <ele>1633</ele>
        <time>2014-10-20T12:15:28Z</time>
      </trkpt>
      <trkpt lat="45.69612" lon="6.66228">
        <ele>1634</ele>
        <time>2014-10-20T12:15:30Z</time>
      </trkpt>
      <trkpt lat="45.69614" lon="6.66237">
        <ele>1634</ele>
        <time>2014-10-20T12:15:32Z</time>
      </trkpt>
      <trkpt lat="45.69616" lon="6.66251">
        <ele>1635</ele>
        <time>2014-10-20T12:15:35Z</time>
      </trkpt>
      <trkpt lat="45.69619" lon="6.66264">
        <ele>1635</ele>
        <time>2014-10-20T12:15:38Z</time>
      </trkpt>
      <trkpt lat="45.69621" lon="6.66273">
        <ele>1636</ele>
        <time>2014-10-20T12:15:40Z</time>
      </trkpt>
      <trkpt lat="45.69624" lon="6.66289">
        <ele>1637</ele>
        <time>2014-10-20T12:15:43Z</time>
      </trkpt>
      <trkpt lat="45.69625" lon="6.663">
        <ele>1637</ele>
        <time>2014-10-20T12:15:45Z</time>
      </trkpt>
      <trkpt lat="45.69625" lon="6.66317">
        <ele>1638</ele>
        <time>2014-10-20T12:15:48Z</time>
      </trkpt>
      <trkpt lat="45.69626" lon="6.66328">
        <ele>1639</ele>
        <time>2014-10-20T12:15:50Z</time>
      </trkpt>
      <trkpt lat="45.69627" lon="6.66345">
        <ele>1640</ele>
        <time>2014-10-20T12:15:53Z</time>
      </trkpt>
      <trkpt lat="45.69629" lon="6.66356">
        <ele>1640</ele>
        <time>2014-10-20T12:15:55Z</time>
      </trkpt>
      <trkpt lat="45.69627" lon="6.66373">
        <ele>1641</ele>
        <time>2014-10-20T12:15:58Z</time>
      </trkpt>
      <trkpt lat="45.69625" lon="6.66384">
        <ele>1642</ele>
        <time>2014-10-20T12:16:00Z</time>
      </trkpt>
      <trkpt lat="45.6962" lon="6.66394">
        <ele>1643</ele>
        <time>2014-10-20T12:16:02Z</time>
      </trkpt>
      <trkpt lat="45.69615" lon="6.66402">
        <ele>1643</ele>
        <time>2014-10-20T12:16:04Z</time>
      </trkpt>
      <trkpt lat="45.69608" lon="6.66412">
        <ele>1643</ele>
        <time>2014-10-20T12:16:07Z</time>
      </trkpt>
      <trkpt lat="45.69604" lon="6.66418">
        <ele>1644</ele>
        <time>2014-10-20T12:16:09Z</time>
      </trkpt>
      <trkpt lat="45.69598" lon="6.66427">
        <ele>1645</ele>
        <time>2014-10-20T12:16:12Z</time>
      </trkpt>
      <trkpt lat="45.69593" lon="6.66436">
        <ele>1646</ele>
        <time>2014-10-20T12:16:15Z</time>
      </trkpt>
      <trkpt lat="45.6959" lon="6.66443">
        <ele>1646</ele>
        <time>2014-10-20T12:16:17Z</time>
      </trkpt>
      <trkpt lat="45.69587" lon="6.6645">
        <ele>1647</ele>
        <time>2014-10-20T12:16:19Z</time>
      </trkpt>
      <trkpt lat="45.69583" lon="6.66463">
        <ele>1648</ele>
        <time>2014-10-20T12:16:22Z</time>
      </trkpt>
      <trkpt lat="45.6958" lon="6.66471">
        <ele>1648</ele>
        <time>2014-10-20T12:16:24Z</time>
      </trkpt>
      <trkpt lat="45.69576" lon="6.66483">
        <ele>1649</ele>
        <time>2014-10-20T12:16:27Z</time>
      </trkpt>
      <trkpt lat="45.69571" lon="6.66496">
        <ele>1650</ele>
        <time>2014-10-20T12:16:30Z</time>
      </trkpt>
      <trkpt lat="45.69564" lon="6.66507">
        <ele>1650</ele>
        <time>2014-10-20T12:16:33Z</time>
      </trkpt>
      <trkpt lat="45.69557" lon="6.66514">
        <ele>1651</ele>
        <time>2014-10-20T12:16:36Z</time>
      </trkpt>
      <trkpt lat="45.6955" lon="6.6652">
        <ele>1652</ele>
        <time>2014-10-20T12:16:39Z</time>
      </trkpt>
      <trkpt lat="45.69545" lon="6.66521">
        <ele>1652</ele>
        <time>2014-10-20T12:16:41Z</time>
      </trkpt>
      <trkpt lat="45.6954" lon="6.6652">
        <ele>1653</ele>
        <time>2014-10-20T12:16:43Z</time>
      </trkpt>
      <trkpt lat="45.69532" lon="6.66517">
        <ele>1654</ele>
        <time>2014-10-20T12:16:46Z</time>
      </trkpt>
      <trkpt lat="45.69527" lon="6.66514">
        <ele>1654</ele>
        <time>2014-10-20T12:16:48Z</time>
      </trkpt>
      <trkpt lat="45.69521" lon="6.66511">
        <ele>1655</ele>
        <time>2014-10-20T12:16:50Z</time>
      </trkpt>
      <trkpt lat="45.69511" lon="6.66506">
        <ele>1656</ele>
        <time>2014-10-20T12:16:53Z</time>
      </trkpt>
      <trkpt lat="45.69504" lon="6.66504">
        <ele>1657</ele>
        <time>2014-10-20T12:16:55Z</time>
      </trkpt>
      <trkpt lat="45.69492" lon="6.66503">
        <ele>1658</ele>
        <time>2014-10-20T12:16:58Z</time>
      </trkpt>
      <trkpt lat="45.69481" lon="6.66505">
        <ele>1659</ele>
        <time>2014-10-20T12:17:01Z</time>
      </trkpt>
      <trkpt lat="45.69473" lon="6.66507">
        <ele>1659</ele>
        <time>2014-10-20T12:17:03Z</time>
      </trkpt>
      <trkpt lat="45.69462" lon="6.66509">
        <ele>1660</ele>
        <time>2014-10-20T12:17:06Z</time>
      </trkpt>
      <trkpt lat="45.6945" lon="6.66513">
        <ele>1661</ele>
        <time>2014-10-20T12:17:09Z</time>
      </trkpt>
      <trkpt lat="45.69442" lon="6.66515">
        <ele>1662</ele>
        <time>2014-10-20T12:17:11Z</time>
      </trkpt>
      <trkpt lat="45.69431" lon="6.66522">
        <ele>1663</ele>
        <time>2014-10-20T12:17:14Z</time>
      </trkpt>
      <trkpt lat="45.69421" lon="6.66529">
        <ele>1663</ele>
        <time>2014-10-20T12:17:17Z</time>
      </trkpt>
      <trkpt lat="45.69415" lon="6.66534">
        <ele>1664</ele>
        <time>2014-10-20T12:17:19Z</time>
      </trkpt>
      <trkpt lat="45.69408" lon="6.6654">
        <ele>1664</ele>
        <time>2014-10-20T12:17:21Z</time>
      </trkpt>
      <trkpt lat="45.69402" lon="6.66546">
        <ele>1665</ele>
        <time>2014-10-20T12:17:23Z</time>
      </trkpt>
      <trkpt lat="45.69395" lon="6.66552">
        <ele>1666</ele>
        <time>2014-10-20T12:17:26Z</time>
      </trkpt>
      <trkpt lat="45.69388" lon="6.66559">
        <ele>1667</ele>
        <time>2014-10-20T12:17:29Z</time>
      </trkpt>
      <trkpt lat="45.69384" lon="6.66565">
        <ele>1668</ele>
        <time>2014-10-20T12:17:31Z</time>
      </trkpt>
      <trkpt lat="45.69381" lon="6.66572">
        <ele>1668</ele>
        <time>2014-10-20T12:17:33Z</time>
      </trkpt>
      <trkpt lat="45.69377" lon="6.66584">
        <ele>1669</ele>
        <time>2014-10-20T12:17:36Z</time>
      </trkpt>
      <trkpt lat="45.69374" lon="6.66593">
        <ele>1669</ele>
        <time>2014-10-20T12:17:38Z</time>
      </trkpt>
      <trkpt lat="45.69371" lon="6.66607">
        <ele>1670</ele>
        <time>2014-10-20T12:17:41Z</time>
      </trkpt>
      <trkpt lat="45.69368" lon="6.66615">
        <ele>1670</ele>
        <time>2014-10-20T12:17:43Z</time>
      </trkpt>
      <trkpt lat="45.69364" lon="6.66624">
        <ele>1671</ele>
        <time>2014-10-20T12:17:45Z</time>
      </trkpt>
      <trkpt lat="45.6936" lon="6.66638">
        <ele>1672</ele>
        <time>2014-10-20T12:17:48Z</time>
      </trkpt>
      <trkpt lat="45.69357" lon="6.66652">
        <ele>1673</ele>
        <time>2014-10-20T12:17:51Z</time>
      </trkpt>
      <trkpt lat="45.69356" lon="6.66661">
        <ele>1673</ele>
        <time>2014-10-20T12:17:53Z</time>
      </trkpt>
      <trkpt lat="45.69355" lon="6.66675">
        <ele>1674</ele>
        <time>2014-10-20T12:17:56Z</time>
      </trkpt>
      <trkpt lat="45.69354" lon="6.6669">
        <ele>1674</ele>
        <time>2014-10-20T12:17:59Z</time>
      </trkpt>
      <trkpt lat="45.69354" lon="6.66701">
        <ele>1675</ele>
        <time>2014-10-20T12:18:01Z</time>
      </trkpt>
      <trkpt lat="45.69355" lon="6.66717">
        <ele>1676</ele>
        <time>2014-10-20T12:18:04Z</time>
      </trkpt>
      <trkpt lat="45.69356" lon="6.66731">
        <ele>1676</ele>
        <time>2014-10-20T12:18:07Z</time>
      </trkpt>
      <trkpt lat="45.69355" lon="6.66742">
        <ele>1677</ele>
        <time>2014-10-20T12:18:09Z</time>
      </trkpt>
      <trkpt lat="45.69354" lon="6.66757">
        <ele>1678</ele>
        <time>2014-10-20T12:18:12Z</time>
      </trkpt>
      <trkpt lat="45.69353" lon="6.66768">
        <ele>1679</ele>
        <time>2014-10-20T12:18:14Z</time>
      </trkpt>
      <trkpt lat="45.69351" lon="6.66778">
        <ele>1679</ele>
        <time>2014-10-20T12:18:16Z</time>
      </trkpt>
      <trkpt lat="45.69349" lon="6.66788">
        <ele>1680</ele>
        <time>2014-10-20T12:18:18Z</time>
      </trkpt>
      <trkpt lat="45.69347" lon="6.66798">
        <ele>1681</ele>
        <time>2014-10-20T12:18:20Z</time>
      </trkpt>
      <trkpt lat="45.69343" lon="6.66814">
        <ele>1681</ele>
        <time>2014-10-20T12:18:23Z</time>
      </trkpt>
      <trkpt lat="45.6934" lon="6.66823">
        <ele>1681</ele>
        <time>2014-10-20T12:18:25Z</time>
      </trkpt>
      <trkpt lat="45.69337" lon="6.66837">
        <ele>1682</ele>
        <time>2014-10-20T12:18:28Z</time>
      </trkpt>
      <trkpt lat="45.69335" lon="6.66847">
        <ele>1682</ele>
        <time>2014-10-20T12:18:30Z</time>
      </trkpt>
      <trkpt lat="45.69331" lon="6.66862">
        <ele>1683</ele>
        <time>2014-10-20T12:18:33Z</time>
      </trkpt>
      <trkpt lat="45.69329" lon="6.66872">
        <ele>1683</ele>
        <time>2014-10-20T12:18:35Z</time>
      </trkpt>
      <trkpt lat="45.69325" lon="6.66887">
        <ele>1684</ele>
        <time>2014-10-20T12:18:38Z</time>
      </trkpt>
      <trkpt lat="45.69324" lon="6.66896">
        <ele>1684</ele>
        <time>2014-10-20T12:18:40Z</time>
      </trkpt>
      <trkpt lat="45.6932" lon="6.66909">
        <ele>1685</ele>
        <time>2014-10-20T12:18:43Z</time>
      </trkpt>
      <trkpt lat="45.69318" lon="6.66919">
        <ele>1685</ele>
        <time>2014-10-20T12:18:45Z</time>
      </trkpt>
      <trkpt lat="45.69314" lon="6.66934">
        <ele>1685</ele>
        <time>2014-10-20T12:18:48Z</time>
      </trkpt>
      <trkpt lat="45.69312" lon="6.66946">
        <ele>1685</ele>
        <time>2014-10-20T12:18:50Z</time>
      </trkpt>
      <trkpt lat="45.69308" lon="6.66964">
        <ele>1686</ele>
        <time>2014-10-20T12:18:53Z</time>
      </trkpt>
      <trkpt lat="45.69306" lon="6.66977">
        <ele>1686</ele>
        <time>2014-10-20T12:18:55Z</time>
      </trkpt>
      <trkpt lat="45.69304" lon="6.6699">
        <ele>1686</ele>
        <time>2014-10-20T12:18:57Z</time>
      </trkpt>
      <trkpt lat="45.69301" lon="6.67003">
        <ele>1686</ele>
        <time>2014-10-20T12:18:59Z</time>
      </trkpt>
      <trkpt lat="45.69296" lon="6.6702">
        <ele>1687</ele>
        <time>2014-10-20T12:19:02Z</time>
      </trkpt>
      <trkpt lat="45.69289" lon="6.67035">
        <ele>1687</ele>
        <time>2014-10-20T12:19:05Z</time>
      </trkpt>
      <trkpt lat="45.69282" lon="6.67048">
        <ele>1688</ele>
        <time>2014-10-20T12:19:08Z</time>
      </trkpt>
      <trkpt lat="45.69275" lon="6.67061">
        <ele>1689</ele>
        <time>2014-10-20T12:19:11Z</time>
      </trkpt>
      <trkpt lat="45.69268" lon="6.67075">
        <ele>1690</ele>
        <time>2014-10-20T12:19:14Z</time>
      </trkpt>
      <trkpt lat="45.69263" lon="6.67086">
        <ele>1691</ele>
        <time>2014-10-20T12:19:16Z</time>
      </trkpt>
      <trkpt lat="45.69258" lon="6.67105">
        <ele>1692</ele>
        <time>2014-10-20T12:19:19Z</time>
      </trkpt>
      <trkpt lat="45.69255" lon="6.67118">
        <ele>1693</ele>
        <time>2014-10-20T12:19:21Z</time>
      </trkpt>
      <trkpt lat="45.69251" lon="6.67136">
        <ele>1694</ele>
        <time>2014-10-20T12:19:24Z</time>
      </trkpt>
      <trkpt lat="45.69247" lon="6.6715">
        <ele>1695</ele>
        <time>2014-10-20T12:19:27Z</time>
      </trkpt>
      <trkpt lat="45.69242" lon="6.67159">
        <ele>1695</ele>
        <time>2014-10-20T12:19:29Z</time>
      </trkpt>
      <trkpt lat="45.69234" lon="6.6717">
        <ele>1696</ele>
        <time>2014-10-20T12:19:32Z</time>
      </trkpt>
      <trkpt lat="45.69226" lon="6.67181">
        <ele>1697</ele>
        <time>2014-10-20T12:19:35Z</time>
      </trkpt>
      <trkpt lat="45.69222" lon="6.67189">
        <ele>1698</ele>
        <time>2014-10-20T12:19:37Z</time>
      </trkpt>
      <trkpt lat="45.69215" lon="6.672">
        <ele>1698</ele>
        <time>2014-10-20T12:19:40Z</time>
      </trkpt>
      <trkpt lat="45.6921" lon="6.6721">
        <ele>1699</ele>
        <time>2014-10-20T12:19:43Z</time>
      </trkpt>
      <trkpt lat="45.69205" lon="6.67221">
        <ele>1700</ele>
        <time>2014-10-20T12:19:46Z</time>
      </trkpt>
      <trkpt lat="45.69201" lon="6.67229">
        <ele>1700</ele>
        <time>2014-10-20T12:19:48Z</time>
      </trkpt>
      <trkpt lat="45.69197" lon="6.67237">
        <ele>1700</ele>
        <time>2014-10-20T12:19:50Z</time>
      </trkpt>
      <trkpt lat="45.69192" lon="6.6725">
        <ele>1702</ele>
        <time>2014-10-20T12:19:53Z</time>
      </trkpt>
      <trkpt lat="45.69186" lon="6.67263">
        <ele>1703</ele>
        <time>2014-10-20T12:19:56Z</time>
      </trkpt>
      <trkpt lat="45.69177" lon="6.67274">
        <ele>1703</ele>
        <time>2014-10-20T12:19:59Z</time>
      </trkpt>
      <trkpt lat="45.69172" lon="6.67279">
        <ele>1704</ele>
        <time>2014-10-20T12:20:01Z</time>
      </trkpt>
      <trkpt lat="45.69164" lon="6.67285">
        <ele>1705</ele>
        <time>2014-10-20T12:20:04Z</time>
      </trkpt>
      <trkpt lat="45.69158" lon="6.67289">
        <ele>1706</ele>
        <time>2014-10-20T12:20:06Z</time>
      </trkpt>
      <trkpt lat="45.69149" lon="6.67296">
        <ele>1706</ele>
        <time>2014-10-20T12:20:09Z</time>
      </trkpt>
      <trkpt lat="45.69139" lon="6.67304">
        <ele>1707</ele>
        <time>2014-10-20T12:20:12Z</time>
      </trkpt>
      <trkpt lat="45.69133" lon="6.67312">
        <ele>1708</ele>
        <time>2014-10-20T12:20:14Z</time>
      </trkpt>
      <trkpt lat="45.69125" lon="6.67324">
        <ele>1709</ele>
        <time>2014-10-20T12:20:17Z</time>
      </trkpt>
      <trkpt lat="45.69122" lon="6.67333">
        <ele>1710</ele>
        <time>2014-10-20T12:20:19Z</time>
      </trkpt>
      <trkpt lat="45.6912" lon="6.67343">
        <ele>1711</ele>
        <time>2014-10-20T12:20:21Z</time>
      </trkpt>
      <trkpt lat="45.69117" lon="6.67357">
        <ele>1711</ele>
        <time>2014-10-20T12:20:24Z</time>
      </trkpt>
      <trkpt lat="45.69116" lon="6.67366">
        <ele>1712</ele>
        <time>2014-10-20T12:20:26Z</time>
      </trkpt>
      <trkpt lat="45.69115" lon="6.67377">
        <ele>1712</ele>
        <time>2014-10-20T12:20:29Z</time>
      </trkpt>
      <trkpt lat="45.69115" lon="6.67388">
        <ele>1713</ele>
        <time>2014-10-20T12:20:32Z</time>
      </trkpt>
      <trkpt lat="45.69114" lon="6.67397">
        <ele>1713</ele>
        <time>2014-10-20T12:20:34Z</time>
      </trkpt>
      <trkpt lat="45.6911" lon="6.67409">
        <ele>1714</ele>
        <time>2014-10-20T12:20:37Z</time>
      </trkpt>
      <trkpt lat="45.69107" lon="6.67416">
        <ele>1715</ele>
        <time>2014-10-20T12:20:39Z</time>
      </trkpt>
      <trkpt lat="45.69102" lon="6.67429">
        <ele>1716</ele>
        <time>2014-10-20T12:20:42Z</time>
      </trkpt>
      <trkpt lat="45.691" lon="6.67437">
        <ele>1716</ele>
        <time>2014-10-20T12:20:44Z</time>
      </trkpt>
      <trkpt lat="45.69097" lon="6.6745">
        <ele>1717</ele>
        <time>2014-10-20T12:20:47Z</time>
      </trkpt>
      <trkpt lat="45.69095" lon="6.67459">
        <ele>1717</ele>
        <time>2014-10-20T12:20:49Z</time>
      </trkpt>
      <trkpt lat="45.69093" lon="6.67473">
        <ele>1718</ele>
        <time>2014-10-20T12:20:52Z</time>
      </trkpt>
      <trkpt lat="45.69091" lon="6.67488">
        <ele>1719</ele>
        <time>2014-10-20T12:20:55Z</time>
      </trkpt>
      <trkpt lat="45.6909" lon="6.67497">
        <ele>1719</ele>
        <time>2014-10-20T12:20:57Z</time>
      </trkpt>
      <trkpt lat="45.6909" lon="6.67512">
        <ele>1720</ele>
        <time>2014-10-20T12:21:00Z</time>
      </trkpt>
      <trkpt lat="45.6909" lon="6.67528">
        <ele>1721</ele>
        <time>2014-10-20T12:21:03Z</time>
      </trkpt>
      <trkpt lat="45.69091" lon="6.6754">
        <ele>1722</ele>
        <time>2014-10-20T12:21:05Z</time>
      </trkpt>
      <trkpt lat="45.69092" lon="6.67557">
        <ele>1723</ele>
        <time>2014-10-20T12:21:08Z</time>
      </trkpt>
      <trkpt lat="45.69094" lon="6.67574">
        <ele>1724</ele>
        <time>2014-10-20T12:21:11Z</time>
      </trkpt>
      <trkpt lat="45.69095" lon="6.67585">
        <ele>1724</ele>
        <time>2014-10-20T12:21:13Z</time>
      </trkpt>
      <trkpt lat="45.69096" lon="6.67595">
        <ele>1725</ele>
        <time>2014-10-20T12:21:15Z</time>
      </trkpt>
      <trkpt lat="45.69098" lon="6.67604">
        <ele>1726</ele>
        <time>2014-10-20T12:21:17Z</time>
      </trkpt>
      <trkpt lat="45.69101" lon="6.67616">
        <ele>1726</ele>
        <time>2014-10-20T12:21:20Z</time>
      </trkpt>
      <trkpt lat="45.69103" lon="6.67629">
        <ele>1727</ele>
        <time>2014-10-20T12:21:23Z</time>
      </trkpt>
      <trkpt lat="45.69105" lon="6.67639">
        <ele>1727</ele>
        <time>2014-10-20T12:21:25Z</time>
      </trkpt>
      <trkpt lat="45.69107" lon="6.67653">
        <ele>1728</ele>
        <time>2014-10-20T12:21:28Z</time>
      </trkpt>
      <trkpt lat="45.6911" lon="6.67667">
        <ele>1729</ele>
        <time>2014-10-20T12:21:31Z</time>
      </trkpt>
      <trkpt lat="45.69112" lon="6.67676">
        <ele>1730</ele>
        <time>2014-10-20T12:21:33Z</time>
      </trkpt>
      <trkpt lat="45.69113" lon="6.6769">
        <ele>1731</ele>
        <time>2014-10-20T12:21:36Z</time>
      </trkpt>
      <trkpt lat="45.69115" lon="6.67705">
        <ele>1731</ele>
        <time>2014-10-20T12:21:39Z</time>
      </trkpt>
      <trkpt lat="45.69118" lon="6.67715">
        <ele>1732</ele>
        <time>2014-10-20T12:21:41Z</time>
      </trkpt>
      <trkpt lat="45.69123" lon="6.67731">
        <ele>1733</ele>
        <time>2014-10-20T12:21:44Z</time>
      </trkpt>
      <trkpt lat="45.69128" lon="6.6774">
        <ele>1733</ele>
        <time>2014-10-20T12:21:46Z</time>
      </trkpt>
      <trkpt lat="45.69133" lon="6.67749">
        <ele>1733</ele>
        <time>2014-10-20T12:21:48Z</time>
      </trkpt>
      <trkpt lat="45.6914" lon="6.67761">
        <ele>1733</ele>
        <time>2014-10-20T12:21:51Z</time>
      </trkpt>
      <trkpt lat="45.69145" lon="6.67769">
        <ele>1733</ele>
        <time>2014-10-20T12:21:53Z</time>
      </trkpt>
      <trkpt lat="45.69153" lon="6.67782">
        <ele>1734</ele>
        <time>2014-10-20T12:21:56Z</time>
      </trkpt>
      <trkpt lat="45.69162" lon="6.67796">
        <ele>1734</ele>
        <time>2014-10-20T12:21:59Z</time>
      </trkpt>
      <trkpt lat="45.69167" lon="6.67804">
        <ele>1735</ele>
        <time>2014-10-20T12:22:01Z</time>
      </trkpt>
      <trkpt lat="45.69173" lon="6.67814">
        <ele>1736</ele>
        <time>2014-10-20T12:22:04Z</time>
      </trkpt>
      <trkpt lat="45.69179" lon="6.67825">
        <ele>1737</ele>
        <time>2014-10-20T12:22:07Z</time>
      </trkpt>
      <trkpt lat="45.69183" lon="6.67833">
        <ele>1737</ele>
        <time>2014-10-20T12:22:09Z</time>
      </trkpt>
      <trkpt lat="45.69189" lon="6.67844">
        <ele>1738</ele>
        <time>2014-10-20T12:22:12Z</time>
      </trkpt>
      <trkpt lat="45.69196" lon="6.67856">
        <ele>1739</ele>
        <time>2014-10-20T12:22:15Z</time>
      </trkpt>
      <trkpt lat="45.692" lon="6.67863">
        <ele>1739</ele>
        <time>2014-10-20T12:22:17Z</time>
      </trkpt>
      <trkpt lat="45.69204" lon="6.67871">
        <ele>1740</ele>
        <time>2014-10-20T12:22:19Z</time>
      </trkpt>
      <trkpt lat="45.6921" lon="6.67884">
        <ele>1741</ele>
        <time>2014-10-20T12:22:22Z</time>
      </trkpt>
      <trkpt lat="45.69213" lon="6.67893">
        <ele>1742</ele>
        <time>2014-10-20T12:22:24Z</time>
      </trkpt>
      <trkpt lat="45.69218" lon="6.67906">
        <ele>1742</ele>
        <time>2014-10-20T12:22:27Z</time>
      </trkpt>
      <trkpt lat="45.69225" lon="6.67919">
        <ele>1743</ele>
        <time>2014-10-20T12:22:30Z</time>
      </trkpt>
      <trkpt lat="45.69232" lon="6.67926">
        <ele>1743</ele>
        <time>2014-10-20T12:22:32Z</time>
      </trkpt>
      <trkpt lat="45.69243" lon="6.67935">
        <ele>1744</ele>
        <time>2014-10-20T12:22:35Z</time>
      </trkpt>
      <trkpt lat="45.6925" lon="6.67939">
        <ele>1745</ele>
        <time>2014-10-20T12:22:37Z</time>
      </trkpt>
      <trkpt lat="45.69262" lon="6.67944">
        <ele>1746</ele>
        <time>2014-10-20T12:22:40Z</time>
      </trkpt>
      <trkpt lat="45.69269" lon="6.67948">
        <ele>1747</ele>
        <time>2014-10-20T12:22:42Z</time>
      </trkpt>
      <trkpt lat="45.69275" lon="6.67952">
        <ele>1748</ele>
        <time>2014-10-20T12:22:44Z</time>
      </trkpt>
      <trkpt lat="45.69284" lon="6.67959">
        <ele>1748</ele>
        <time>2014-10-20T12:22:47Z</time>
      </trkpt>
      <trkpt lat="45.6929" lon="6.67964">
        <ele>1749</ele>
        <time>2014-10-20T12:22:49Z</time>
      </trkpt>
      <trkpt lat="45.69296" lon="6.67973">
        <ele>1749</ele>
        <time>2014-10-20T12:22:52Z</time>
      </trkpt>
      <trkpt lat="45.693" lon="6.6798">
        <ele>1750</ele>
        <time>2014-10-20T12:22:54Z</time>
      </trkpt>
      <trkpt lat="45.69303" lon="6.67988">
        <ele>1750</ele>
        <time>2014-10-20T12:22:56Z</time>
      </trkpt>
      <trkpt lat="45.69307" lon="6.67997">
        <ele>1751</ele>
        <time>2014-10-20T12:22:58Z</time>
      </trkpt>
      <trkpt lat="45.69309" lon="6.68005">
        <ele>1752</ele>
        <time>2014-10-20T12:23:00Z</time>
      </trkpt>
      <trkpt lat="45.69311" lon="6.68012">
        <ele>1752</ele>
        <time>2014-10-20T12:23:02Z</time>
      </trkpt>
      <trkpt lat="45.69312" lon="6.68019">
        <ele>1753</ele>
        <time>2014-10-20T12:23:04Z</time>
      </trkpt>
      <trkpt lat="45.69314" lon="6.68027">
        <ele>1753</ele>
        <time>2014-10-20T12:23:06Z</time>
      </trkpt>
      <trkpt lat="45.69317" lon="6.6804">
        <ele>1754</ele>
        <time>2014-10-20T12:23:09Z</time>
      </trkpt>
      <trkpt lat="45.69319" lon="6.68049">
        <ele>1754</ele>
        <time>2014-10-20T12:23:11Z</time>
      </trkpt>
      <trkpt lat="45.69321" lon="6.68058">
        <ele>1755</ele>
        <time>2014-10-20T12:23:13Z</time>
      </trkpt>
      <trkpt lat="45.69324" lon="6.68072">
        <ele>1756</ele>
        <time>2014-10-20T12:23:16Z</time>
      </trkpt>
      <trkpt lat="45.69326" lon="6.68082">
        <ele>1757</ele>
        <time>2014-10-20T12:23:18Z</time>
      </trkpt>
      <trkpt lat="45.69327" lon="6.68092">
        <ele>1757</ele>
        <time>2014-10-20T12:23:20Z</time>
      </trkpt>
      <trkpt lat="45.69329" lon="6.68107">
        <ele>1758</ele>
        <time>2014-10-20T12:23:23Z</time>
      </trkpt>
      <trkpt lat="45.6933" lon="6.68117">
        <ele>1759</ele>
        <time>2014-10-20T12:23:25Z</time>
      </trkpt>
      <trkpt lat="45.69331" lon="6.68128">
        <ele>1759</ele>
        <time>2014-10-20T12:23:27Z</time>
      </trkpt>
      <trkpt lat="45.69335" lon="6.68144">
        <ele>1760</ele>
        <time>2014-10-20T12:23:30Z</time>
      </trkpt>
      <trkpt lat="45.69339" lon="6.68154">
        <ele>1761</ele>
        <time>2014-10-20T12:23:32Z</time>
      </trkpt>
      <trkpt lat="45.69344" lon="6.68162">
        <ele>1762</ele>
        <time>2014-10-20T12:23:34Z</time>
      </trkpt>
      <trkpt lat="45.6935" lon="6.68173">
        <ele>1762</ele>
        <time>2014-10-20T12:23:37Z</time>
      </trkpt>
      <trkpt lat="45.69354" lon="6.68178">
        <ele>1762</ele>
        <time>2014-10-20T12:23:39Z</time>
      </trkpt>
      <trkpt lat="45.69358" lon="6.68184">
        <ele>1763</ele>
        <time>2014-10-20T12:23:41Z</time>
      </trkpt>
      <trkpt lat="45.69366" lon="6.68192">
        <ele>1763</ele>
        <time>2014-10-20T12:23:44Z</time>
      </trkpt>
      <trkpt lat="45.69371" lon="6.68198">
        <ele>1764</ele>
        <time>2014-10-20T12:23:46Z</time>
      </trkpt>
      <trkpt lat="45.69377" lon="6.68204">
        <ele>1765</ele>
        <time>2014-10-20T12:23:48Z</time>
      </trkpt>
      <trkpt lat="45.69383" lon="6.6821">
        <ele>1765</ele>
        <time>2014-10-20T12:23:50Z</time>
      </trkpt>
      <trkpt lat="45.69392" lon="6.68217">
        <ele>1766</ele>
        <time>2014-10-20T12:23:53Z</time>
      </trkpt>
      <trkpt lat="45.69398" lon="6.68223">
        <ele>1766</ele>
        <time>2014-10-20T12:23:55Z</time>
      </trkpt>
      <trkpt lat="45.69404" lon="6.68229">
        <ele>1767</ele>
        <time>2014-10-20T12:23:57Z</time>
      </trkpt>
      <trkpt lat="45.6941" lon="6.68235">
        <ele>1767</ele>
        <time>2014-10-20T12:23:59Z</time>
      </trkpt>
      <trkpt lat="45.69416" lon="6.68241">
        <ele>1768</ele>
        <time>2014-10-20T12:24:01Z</time>
      </trkpt>
      <trkpt lat="45.69421" lon="6.68248">
        <ele>1768</ele>
        <time>2014-10-20T12:24:03Z</time>
      </trkpt>
      <trkpt lat="45.69424" lon="6.68257">
        <ele>1768</ele>
        <time>2014-10-20T12:24:05Z</time>
      </trkpt>
      <trkpt lat="45.69423" lon="6.68268">
        <ele>1769</ele>
        <time>2014-10-20T12:24:08Z</time>
      </trkpt>
      <trkpt lat="45.69419" lon="6.68274">
        <ele>1769</ele>
        <time>2014-10-20T12:24:10Z</time>
      </trkpt>
      <trkpt lat="45.69413" lon="6.68277">
        <ele>1770</ele>
        <time>2014-10-20T12:24:12Z</time>
      </trkpt>
      <trkpt lat="45.69402" lon="6.68273">
        <ele>1771</ele>
        <time>2014-10-20T12:24:15Z</time>
      </trkpt>
      <trkpt lat="45.69395" lon="6.68269">
        <ele>1772</ele>
        <time>2014-10-20T12:24:17Z</time>
      </trkpt>
      <trkpt lat="45.69388" lon="6.68263">
        <ele>1773</ele>
        <time>2014-10-20T12:24:19Z</time>
      </trkpt>
      <trkpt lat="45.69379" lon="6.68256">
        <ele>1773</ele>
        <time>2014-10-20T12:24:22Z</time>
      </trkpt>
      <trkpt lat="45.69373" lon="6.68251">
        <ele>1774</ele>
        <time>2014-10-20T12:24:24Z</time>
      </trkpt>
      <trkpt lat="45.69366" lon="6.68246">
        <ele>1774</ele>
        <time>2014-10-20T12:24:26Z</time>
      </trkpt>
      <trkpt lat="45.69359" lon="6.6824">
        <ele>1774</ele>
        <time>2014-10-20T12:24:28Z</time>
      </trkpt>
      <trkpt lat="45.69347" lon="6.68234">
        <ele>1775</ele>
        <time>2014-10-20T12:24:31Z</time>
      </trkpt>
      <trkpt lat="45.69339" lon="6.68229">
        <ele>1776</ele>
        <time>2014-10-20T12:24:33Z</time>
      </trkpt>
      <trkpt lat="45.69331" lon="6.68224">
        <ele>1776</ele>
        <time>2014-10-20T12:24:35Z</time>
      </trkpt>
      <trkpt lat="45.69318" lon="6.68217">
        <ele>1777</ele>
        <time>2014-10-20T12:24:38Z</time>
      </trkpt>
      <trkpt lat="45.69309" lon="6.68212">
        <ele>1777</ele>
        <time>2014-10-20T12:24:40Z</time>
      </trkpt>
      <trkpt lat="45.693" lon="6.68207">
        <ele>1777</ele>
        <time>2014-10-20T12:24:42Z</time>
      </trkpt>
      <trkpt lat="45.69291" lon="6.68201">
        <ele>1778</ele>
        <time>2014-10-20T12:24:44Z</time>
      </trkpt>
      <trkpt lat="45.69277" lon="6.68193">
        <ele>1778</ele>
        <time>2014-10-20T12:24:47Z</time>
      </trkpt>
      <trkpt lat="45.69268" lon="6.68188">
        <ele>1778</ele>
        <time>2014-10-20T12:24:49Z</time>
      </trkpt>
      <trkpt lat="45.6926" lon="6.68181">
        <ele>1778</ele>
        <time>2014-10-20T12:24:51Z</time>
      </trkpt>
      <trkpt lat="45.69248" lon="6.68168">
        <ele>1779</ele>
        <time>2014-10-20T12:24:54Z</time>
      </trkpt>
      <trkpt lat="45.69241" lon="6.68158">
        <ele>1779</ele>
        <time>2014-10-20T12:24:56Z</time>
      </trkpt>
      <trkpt lat="45.69235" lon="6.68149">
        <ele>1780</ele>
        <time>2014-10-20T12:24:58Z</time>
      </trkpt>
      <trkpt lat="45.69228" lon="6.68139">
        <ele>1780</ele>
        <time>2014-10-20T12:25:00Z</time>
      </trkpt>
      <trkpt lat="45.69221" lon="6.6813">
        <ele>1780</ele>
        <time>2014-10-20T12:25:02Z</time>
      </trkpt>
      <trkpt lat="45.69214" lon="6.6812">
        <ele>1780</ele>
        <time>2014-10-20T12:25:04Z</time>
      </trkpt>
      <trkpt lat="45.69203" lon="6.68106">
        <ele>1780</ele>
        <time>2014-10-20T12:25:07Z</time>
      </trkpt>
      <trkpt lat="45.69196" lon="6.68097">
        <ele>1781</ele>
        <time>2014-10-20T12:25:09Z</time>
      </trkpt>
      <trkpt lat="45.69186" lon="6.68085">
        <ele>1782</ele>
        <time>2014-10-20T12:25:12Z</time>
      </trkpt>
      <trkpt lat="45.69177" lon="6.68074">
        <ele>1782</ele>
        <time>2014-10-20T12:25:15Z</time>
      </trkpt>
      <trkpt lat="45.69171" lon="6.68066">
        <ele>1783</ele>
        <time>2014-10-20T12:25:17Z</time>
      </trkpt>
      <trkpt lat="45.69162" lon="6.68057">
        <ele>1784</ele>
        <time>2014-10-20T12:25:20Z</time>
      </trkpt>
      <trkpt lat="45.69154" lon="6.68049">
        <ele>1785</ele>
        <time>2014-10-20T12:25:23Z</time>
      </trkpt>
      <trkpt lat="45.69148" lon="6.68043">
        <ele>1785</ele>
        <time>2014-10-20T12:25:25Z</time>
      </trkpt>
      <trkpt lat="45.69139" lon="6.68035">
        <ele>1786</ele>
        <time>2014-10-20T12:25:28Z</time>
      </trkpt>
      <trkpt lat="45.6913" lon="6.68027">
        <ele>1786</ele>
        <time>2014-10-20T12:25:31Z</time>
      </trkpt>
      <trkpt lat="45.69124" lon="6.68021">
        <ele>1787</ele>
        <time>2014-10-20T12:25:33Z</time>
      </trkpt>
      <trkpt lat="45.69118" lon="6.68016">
        <ele>1788</ele>
        <time>2014-10-20T12:25:35Z</time>
      </trkpt>
      <trkpt lat="45.69112" lon="6.68011">
        <ele>1788</ele>
        <time>2014-10-20T12:25:37Z</time>
      </trkpt>
      <trkpt lat="45.69103" lon="6.68005">
        <ele>1789</ele>
        <time>2014-10-20T12:25:40Z</time>
      </trkpt>
      <trkpt lat="45.69092" lon="6.68001">
        <ele>1790</ele>
        <time>2014-10-20T12:25:43Z</time>
      </trkpt>
      <trkpt lat="45.69081" lon="6.68">
        <ele>1791</ele>
        <time>2014-10-20T12:25:46Z</time>
      </trkpt>
      <trkpt lat="45.69073" lon="6.68001">
        <ele>1792</ele>
        <time>2014-10-20T12:25:48Z</time>
      </trkpt>
      <trkpt lat="45.69062" lon="6.68004">
        <ele>1792</ele>
        <time>2014-10-20T12:25:51Z</time>
      </trkpt>
      <trkpt lat="45.69049" lon="6.68011">
        <ele>1793</ele>
        <time>2014-10-20T12:25:54Z</time>
      </trkpt>
      <trkpt lat="45.69043" lon="6.68016">
        <ele>1793</ele>
        <time>2014-10-20T12:25:56Z</time>
      </trkpt>
      <trkpt lat="45.69034" lon="6.68024">
        <ele>1794</ele>
        <time>2014-10-20T12:25:59Z</time>
      </trkpt>
      <trkpt lat="45.69026" lon="6.68035">
        <ele>1795</ele>
        <time>2014-10-20T12:26:02Z</time>
      </trkpt>
      <trkpt lat="45.69021" lon="6.68043">
        <ele>1795</ele>
        <time>2014-10-20T12:26:04Z</time>
      </trkpt>
      <trkpt lat="45.69017" lon="6.68051">
        <ele>1796</ele>
        <time>2014-10-20T12:26:06Z</time>
      </trkpt>
      <trkpt lat="45.69012" lon="6.68065">
        <ele>1796</ele>
        <time>2014-10-20T12:26:09Z</time>
      </trkpt>
      <trkpt lat="45.6901" lon="6.68075">
        <ele>1797</ele>
        <time>2014-10-20T12:26:11Z</time>
      </trkpt>
      <trkpt lat="45.69006" lon="6.6809">
        <ele>1797</ele>
        <time>2014-10-20T12:26:14Z</time>
      </trkpt>
      <trkpt lat="45.69004" lon="6.68108">
        <ele>1798</ele>
        <time>2014-10-20T12:26:17Z</time>
      </trkpt>
      <trkpt lat="45.69003" lon="6.6812">
        <ele>1799</ele>
        <time>2014-10-20T12:26:19Z</time>
      </trkpt>
      <trkpt lat="45.69004" lon="6.6814">
        <ele>1800</ele>
        <time>2014-10-20T12:26:22Z</time>
      </trkpt>
      <trkpt lat="45.69006" lon="6.68159">
        <ele>1800</ele>
        <time>2014-10-20T12:26:25Z</time>
      </trkpt>
      <trkpt lat="45.69011" lon="6.68177">
        <ele>1801</ele>
        <time>2014-10-20T12:26:28Z</time>
      </trkpt>
      <trkpt lat="45.69016" lon="6.68187">
        <ele>1801</ele>
        <time>2014-10-20T12:26:30Z</time>
      </trkpt>
      <trkpt lat="45.69022" lon="6.68196">
        <ele>1802</ele>
        <time>2014-10-20T12:26:32Z</time>
      </trkpt>
      <trkpt lat="45.69029" lon="6.68203">
        <ele>1802</ele>
        <time>2014-10-20T12:26:34Z</time>
      </trkpt>
      <trkpt lat="45.69041" lon="6.68214">
        <ele>1802</ele>
        <time>2014-10-20T12:26:37Z</time>
      </trkpt>
      <trkpt lat="45.69053" lon="6.68223">
        <ele>1803</ele>
        <time>2014-10-20T12:26:40Z</time>
      </trkpt>
      <trkpt lat="45.69061" lon="6.6823">
        <ele>1803</ele>
        <time>2014-10-20T12:26:42Z</time>
      </trkpt>
      <trkpt lat="45.69073" lon="6.6824">
        <ele>1804</ele>
        <time>2014-10-20T12:26:45Z</time>
      </trkpt>
      <trkpt lat="45.69084" lon="6.68251">
        <ele>1805</ele>
        <time>2014-10-20T12:26:48Z</time>
      </trkpt>
      <trkpt lat="45.6909" lon="6.6826">
        <ele>1805</ele>
        <time>2014-10-20T12:26:50Z</time>
      </trkpt>
      <trkpt lat="45.69097" lon="6.68275">
        <ele>1806</ele>
        <time>2014-10-20T12:26:53Z</time>
      </trkpt>
      <trkpt lat="45.69102" lon="6.6829">
        <ele>1806</ele>
        <time>2014-10-20T12:26:56Z</time>
      </trkpt>
      <trkpt lat="45.69106" lon="6.68299">
        <ele>1806</ele>
        <time>2014-10-20T12:26:58Z</time>
      </trkpt>
      <trkpt lat="45.6911" lon="6.68314">
        <ele>1807</ele>
        <time>2014-10-20T12:27:01Z</time>
      </trkpt>
      <trkpt lat="45.69114" lon="6.68324">
        <ele>1807</ele>
        <time>2014-10-20T12:27:03Z</time>
      </trkpt>
      <trkpt lat="45.69117" lon="6.68334">
        <ele>1808</ele>
        <time>2014-10-20T12:27:05Z</time>
      </trkpt>
      <trkpt lat="45.69125" lon="6.68348">
        <ele>1808</ele>
        <time>2014-10-20T12:27:08Z</time>
      </trkpt>
      <trkpt lat="45.69131" lon="6.68358">
        <ele>1809</ele>
        <time>2014-10-20T12:27:10Z</time>
      </trkpt>
      <trkpt lat="45.69143" lon="6.68372">
        <ele>1810</ele>
        <time>2014-10-20T12:27:13Z</time>
      </trkpt>
      <trkpt lat="45.69152" lon="6.68387">
        <ele>1811</ele>
        <time>2014-10-20T12:27:16Z</time>
      </trkpt>
      <trkpt lat="45.69156" lon="6.68398">
        <ele>1812</ele>
        <time>2014-10-20T12:27:18Z</time>
      </trkpt>
      <trkpt lat="45.6916" lon="6.68415">
        <ele>1812</ele>
        <time>2014-10-20T12:27:21Z</time>
      </trkpt>
      <trkpt lat="45.69158" lon="6.68434">
        <ele>1813</ele>
        <time>2014-10-20T12:27:24Z</time>
      </trkpt>
      <trkpt lat="45.69154" lon="6.68445">
        <ele>1814</ele>
        <time>2014-10-20T12:27:26Z</time>
      </trkpt>
      <trkpt lat="45.69149" lon="6.68455">
        <ele>1814</ele>
        <time>2014-10-20T12:27:28Z</time>
      </trkpt>
      <trkpt lat="45.69141" lon="6.68467">
        <ele>1815</ele>
        <time>2014-10-20T12:27:31Z</time>
      </trkpt>
      <trkpt lat="45.69136" lon="6.68475">
        <ele>1815</ele>
        <time>2014-10-20T12:27:33Z</time>
      </trkpt>
      <trkpt lat="45.69132" lon="6.68485">
        <ele>1816</ele>
        <time>2014-10-20T12:27:35Z</time>
      </trkpt>
      <trkpt lat="45.69127" lon="6.68503">
        <ele>1816</ele>
        <time>2014-10-20T12:27:38Z</time>
      </trkpt>
      <trkpt lat="45.69124" lon="6.68516">
        <ele>1817</ele>
        <time>2014-10-20T12:27:40Z</time>
      </trkpt>
      <trkpt lat="45.69122" lon="6.68531">
        <ele>1817</ele>
        <time>2014-10-20T12:27:42Z</time>
      </trkpt>
      <trkpt lat="45.69119" lon="6.68555">
        <ele>1818</ele>
        <time>2014-10-20T12:27:45Z</time>
      </trkpt>
      <trkpt lat="45.69118" lon="6.68571">
        <ele>1818</ele>
        <time>2014-10-20T12:27:47Z</time>
      </trkpt>
      <trkpt lat="45.69117" lon="6.68594">
        <ele>1820</ele>
        <time>2014-10-20T12:27:50Z</time>
      </trkpt>
      <trkpt lat="45.69115" lon="6.68613">
        <ele>1820</ele>
        <time>2014-10-20T12:27:53Z</time>
      </trkpt>
      <trkpt lat="45.69114" lon="6.68628">
        <ele>1820</ele>
        <time>2014-10-20T12:27:55Z</time>
      </trkpt>
      <trkpt lat="45.69112" lon="6.6865">
        <ele>1821</ele>
        <time>2014-10-20T12:27:58Z</time>
      </trkpt>
      <trkpt lat="45.6911" lon="6.68671">
        <ele>1822</ele>
        <time>2014-10-20T12:28:01Z</time>
      </trkpt>
      <trkpt lat="45.69109" lon="6.68683">
        <ele>1823</ele>
        <time>2014-10-20T12:28:03Z</time>
      </trkpt>
      <trkpt lat="45.6911" lon="6.68696">
        <ele>1824</ele>
        <time>2014-10-20T12:28:05Z</time>
      </trkpt>
      <trkpt lat="45.69114" lon="6.68708">
        <ele>1824</ele>
        <time>2014-10-20T12:28:07Z</time>
      </trkpt>
      <trkpt lat="45.69122" lon="6.68721">
        <ele>1825</ele>
        <time>2014-10-20T12:28:10Z</time>
      </trkpt>
      <trkpt lat="45.69131" lon="6.68732">
        <ele>1825</ele>
        <time>2014-10-20T12:28:13Z</time>
      </trkpt>
      <trkpt lat="45.69137" lon="6.6874">
        <ele>1825</ele>
        <time>2014-10-20T12:28:15Z</time>
      </trkpt>
      <trkpt lat="45.69144" lon="6.68756">
        <ele>1826</ele>
        <time>2014-10-20T12:28:18Z</time>
      </trkpt>
      <trkpt lat="45.69148" lon="6.68775">
        <ele>1826</ele>
        <time>2014-10-20T12:28:21Z</time>
      </trkpt>
      <trkpt lat="45.69147" lon="6.68789">
        <ele>1827</ele>
        <time>2014-10-20T12:28:23Z</time>
      </trkpt>
      <trkpt lat="45.69143" lon="6.68803">
        <ele>1827</ele>
        <time>2014-10-20T12:28:25Z</time>
      </trkpt>
      <trkpt lat="45.69137" lon="6.68823">
        <ele>1827</ele>
        <time>2014-10-20T12:28:28Z</time>
      </trkpt>
      <trkpt lat="45.69135" lon="6.68837">
        <ele>1828</ele>
        <time>2014-10-20T12:28:30Z</time>
      </trkpt>
      <trkpt lat="45.69135" lon="6.68851">
        <ele>1827</ele>
        <time>2014-10-20T12:28:32Z</time>
      </trkpt>
      <trkpt lat="45.69137" lon="6.68873">
        <ele>1828</ele>
        <time>2014-10-20T12:28:35Z</time>
      </trkpt>
      <trkpt lat="45.69137" lon="6.68895">
        <ele>1828</ele>
        <time>2014-10-20T12:28:38Z</time>
      </trkpt>
      <trkpt lat="45.69136" lon="6.68908">
        <ele>1829</ele>
        <time>2014-10-20T12:28:40Z</time>
      </trkpt>
      <trkpt lat="45.69131" lon="6.68926">
        <ele>1828</ele>
        <time>2014-10-20T12:28:43Z</time>
      </trkpt>
      <trkpt lat="45.69127" lon="6.68944">
        <ele>1829</ele>
        <time>2014-10-20T12:28:46Z</time>
      </trkpt>
      <trkpt lat="45.69124" lon="6.68956">
        <ele>1829</ele>
        <time>2014-10-20T12:28:48Z</time>
      </trkpt>
      <trkpt lat="45.69122" lon="6.68975">
        <ele>1829</ele>
        <time>2014-10-20T12:28:51Z</time>
      </trkpt>
      <trkpt lat="45.69123" lon="6.68993">
        <ele>1829</ele>
        <time>2014-10-20T12:28:54Z</time>
      </trkpt>
      <trkpt lat="45.69126" lon="6.69012">
        <ele>1829</ele>
        <time>2014-10-20T12:28:57Z</time>
      </trkpt>
      <trkpt lat="45.69129" lon="6.69024">
        <ele>1829</ele>
        <time>2014-10-20T12:28:59Z</time>
      </trkpt>
      <trkpt lat="45.69131" lon="6.6904">
        <ele>1830</ele>
        <time>2014-10-20T12:29:02Z</time>
      </trkpt>
      <trkpt lat="45.69134" lon="6.69057">
        <ele>1830</ele>
        <time>2014-10-20T12:29:05Z</time>
      </trkpt>
      <trkpt lat="45.69135" lon="6.69066">
        <ele>1830</ele>
        <time>2014-10-20T12:29:07Z</time>
      </trkpt>
      <trkpt lat="45.69136" lon="6.69075">
        <ele>1830</ele>
        <time>2014-10-20T12:29:10Z</time>
      </trkpt>
      <trkpt lat="45.69138" lon="6.69085">
        <ele>1829</ele>
        <time>2014-10-20T12:29:13Z</time>
      </trkpt>
      <trkpt lat="45.69138" lon="6.69094">
        <ele>1829</ele>
        <time>2014-10-20T12:29:15Z</time>
      </trkpt>
      <trkpt lat="45.69143" lon="6.691">
        <ele>1829</ele>
        <time>2014-10-20T12:29:17Z</time>
      </trkpt>
      <trkpt lat="45.69146" lon="6.69092">
        <ele>1829</ele>
        <time>2014-10-20T12:29:19Z</time>
      </trkpt>
      <trkpt lat="45.69144" lon="6.69083">
        <ele>1829</ele>
        <time>2014-10-20T12:29:22Z</time>
      </trkpt>
      <trkpt lat="45.69141" lon="6.69078">
        <ele>1830</ele>
        <time>2014-10-20T12:29:25Z</time>
      </trkpt>
      <trkpt lat="45.69139" lon="6.69075">
        <ele>1830</ele>
        <time>2014-10-20T12:29:28Z</time>
      </trkpt>
      <trkpt lat="45.69138" lon="6.6907">
        <ele>1830</ele>
        <time>2014-10-20T12:29:30Z</time>
      </trkpt>
      <trkpt lat="45.69136" lon="6.69064">
        <ele>1830</ele>
        <time>2014-10-20T12:29:33Z</time>
      </trkpt>
      <trkpt lat="45.69125" lon="6.69022">
        <ele>1830</ele>
        <time>2014-10-20T12:29:36Z</time>
      </trkpt>
      <trkpt lat="45.69125" lon="6.69015">
        <ele>1831</ele>
        <time>2014-10-20T12:29:38Z</time>
      </trkpt>
      <trkpt lat="45.69125" lon="6.69002">
        <ele>1831</ele>
        <time>2014-10-20T12:29:41Z</time>
      </trkpt>
      <trkpt lat="45.69124" lon="6.68992">
        <ele>1831</ele>
        <time>2014-10-20T12:29:43Z</time>
      </trkpt>
      <trkpt lat="45.69123" lon="6.68981">
        <ele>1831</ele>
        <time>2014-10-20T12:29:45Z</time>
      </trkpt>
      <trkpt lat="45.69122" lon="6.68971">
        <ele>1831</ele>
        <time>2014-10-20T12:29:47Z</time>
      </trkpt>
      <trkpt lat="45.69122" lon="6.68955">
        <ele>1831</ele>
        <time>2014-10-20T12:29:50Z</time>
      </trkpt>
      <trkpt lat="45.69125" lon="6.68944">
        <ele>1832</ele>
        <time>2014-10-20T12:29:52Z</time>
      </trkpt>
      <trkpt lat="45.69129" lon="6.68932">
        <ele>1831</ele>
        <time>2014-10-20T12:29:54Z</time>
      </trkpt>
      <trkpt lat="45.69135" lon="6.68907">
        <ele>1831</ele>
        <time>2014-10-20T12:29:57Z</time>
      </trkpt>
      <trkpt lat="45.69136" lon="6.68877">
        <ele>1832</ele>
        <time>2014-10-20T12:30:00Z</time>
      </trkpt>
      <trkpt lat="45.69133" lon="6.68846">
        <ele>1832</ele>
        <time>2014-10-20T12:30:03Z</time>
      </trkpt>
      <trkpt lat="45.6914" lon="6.68815">
        <ele>1833</ele>
        <time>2014-10-20T12:30:06Z</time>
      </trkpt>
      <trkpt lat="45.69147" lon="6.68783">
        <ele>1833</ele>
        <time>2014-10-20T12:30:09Z</time>
      </trkpt>
      <trkpt lat="45.69144" lon="6.68751">
        <ele>1833</ele>
        <time>2014-10-20T12:30:12Z</time>
      </trkpt>
      <trkpt lat="45.69129" lon="6.68728">
        <ele>1833</ele>
        <time>2014-10-20T12:30:15Z</time>
      </trkpt>
      <trkpt lat="45.69117" lon="6.68712">
        <ele>1833</ele>
        <time>2014-10-20T12:30:17Z</time>
      </trkpt>
      <trkpt lat="45.6911" lon="6.68689">
        <ele>1833</ele>
        <time>2014-10-20T12:30:19Z</time>
      </trkpt>
      <trkpt lat="45.69112" lon="6.68648">
        <ele>1833</ele>
        <time>2014-10-20T12:30:22Z</time>
      </trkpt>
      <trkpt lat="45.69115" lon="6.68607">
        <ele>1833</ele>
        <time>2014-10-20T12:30:25Z</time>
      </trkpt>
      <trkpt lat="45.69116" lon="6.68578">
        <ele>1832</ele>
        <time>2014-10-20T12:30:27Z</time>
      </trkpt>
      <trkpt lat="45.69119" lon="6.68535">
        <ele>1831</ele>
        <time>2014-10-20T12:30:30Z</time>
      </trkpt>
      <trkpt lat="45.69126" lon="6.68492">
        <ele>1830</ele>
        <time>2014-10-20T12:30:33Z</time>
      </trkpt>
      <trkpt lat="45.69138" lon="6.68467">
        <ele>1828</ele>
        <time>2014-10-20T12:30:35Z</time>
      </trkpt>
      <trkpt lat="45.69151" lon="6.68442">
        <ele>1827</ele>
        <time>2014-10-20T12:30:37Z</time>
      </trkpt>
      <trkpt lat="45.69154" lon="6.68397">
        <ele>1826</ele>
        <time>2014-10-20T12:30:40Z</time>
      </trkpt>
      <trkpt lat="45.69134" lon="6.68362">
        <ele>1824</ele>
        <time>2014-10-20T12:30:43Z</time>
      </trkpt>
      <trkpt lat="45.69121" lon="6.68337">
        <ele>1824</ele>
        <time>2014-10-20T12:30:45Z</time>
      </trkpt>
      <trkpt lat="45.69107" lon="6.68295">
        <ele>1823</ele>
        <time>2014-10-20T12:30:48Z</time>
      </trkpt>
      <trkpt lat="45.69091" lon="6.68254">
        <ele>1820</ele>
        <time>2014-10-20T12:30:51Z</time>
      </trkpt>
      <trkpt lat="45.69065" lon="6.68227">
        <ele>1817</ele>
        <time>2014-10-20T12:30:54Z</time>
      </trkpt>
      <trkpt lat="45.69038" lon="6.68203">
        <ele>1815</ele>
        <time>2014-10-20T12:30:57Z</time>
      </trkpt>
      <trkpt lat="45.69021" lon="6.68185">
        <ele>1815</ele>
        <time>2014-10-20T12:30:59Z</time>
      </trkpt>
      <trkpt lat="45.69009" lon="6.68144">
        <ele>1814</ele>
        <time>2014-10-20T12:31:02Z</time>
      </trkpt>
      <trkpt lat="45.69007" lon="6.68115">
        <ele>1813</ele>
        <time>2014-10-20T12:31:04Z</time>
      </trkpt>
      <trkpt lat="45.69013" lon="6.68073">
        <ele>1812</ele>
        <time>2014-10-20T12:31:07Z</time>
      </trkpt>
      <trkpt lat="45.69022" lon="6.68048">
        <ele>1811</ele>
        <time>2014-10-20T12:31:09Z</time>
      </trkpt>
      <trkpt lat="45.69035" lon="6.68026">
        <ele>1809</ele>
        <time>2014-10-20T12:31:11Z</time>
      </trkpt>
      <trkpt lat="45.69053" lon="6.68009">
        <ele>1808</ele>
        <time>2014-10-20T12:31:13Z</time>
      </trkpt>
      <trkpt lat="45.69085" lon="6.67999">
        <ele>1806</ele>
        <time>2014-10-20T12:31:16Z</time>
      </trkpt>
      <trkpt lat="45.69107" lon="6.68008">
        <ele>1803</ele>
        <time>2014-10-20T12:31:18Z</time>
      </trkpt>
      <trkpt lat="45.69139" lon="6.68036">
        <ele>1801</ele>
        <time>2014-10-20T12:31:21Z</time>
      </trkpt>
      <trkpt lat="45.69162" lon="6.68056">
        <ele>1799</ele>
        <time>2014-10-20T12:31:23Z</time>
      </trkpt>
      <trkpt lat="45.69193" lon="6.68092">
        <ele>1798</ele>
        <time>2014-10-20T12:31:26Z</time>
      </trkpt>
      <trkpt lat="45.69223" lon="6.68133">
        <ele>1796</ele>
        <time>2014-10-20T12:31:29Z</time>
      </trkpt>
      <trkpt lat="45.69242" lon="6.6816">
        <ele>1793</ele>
        <time>2014-10-20T12:31:31Z</time>
      </trkpt>
      <trkpt lat="45.69264" lon="6.68181">
        <ele>1791</ele>
        <time>2014-10-20T12:31:33Z</time>
      </trkpt>
      <trkpt lat="45.69297" lon="6.68203">
        <ele>1789</ele>
        <time>2014-10-20T12:31:36Z</time>
      </trkpt>
      <trkpt lat="45.6932" lon="6.68216">
        <ele>1788</ele>
        <time>2014-10-20T12:31:38Z</time>
      </trkpt>
      <trkpt lat="45.69351" lon="6.68234">
        <ele>1786</ele>
        <time>2014-10-20T12:31:41Z</time>
      </trkpt>
      <trkpt lat="45.69371" lon="6.68249">
        <ele>1784</ele>
        <time>2014-10-20T12:31:43Z</time>
      </trkpt>
      <trkpt lat="45.69398" lon="6.68272">
        <ele>1782</ele>
        <time>2014-10-20T12:31:46Z</time>
      </trkpt>
      <trkpt lat="45.69417" lon="6.68275">
        <ele>1781</ele>
        <time>2014-10-20T12:31:48Z</time>
      </trkpt>
      <trkpt lat="45.69424" lon="6.68245">
        <ele>1780</ele>
        <time>2014-10-20T12:31:51Z</time>
      </trkpt>
      <trkpt lat="45.6941" lon="6.68228">
        <ele>1778</ele>
        <time>2014-10-20T12:31:53Z</time>
      </trkpt>
      <trkpt lat="45.69391" lon="6.68212">
        <ele>1776</ele>
        <time>2014-10-20T12:31:55Z</time>
      </trkpt>
      <trkpt lat="45.69372" lon="6.68191">
        <ele>1776</ele>
        <time>2014-10-20T12:31:57Z</time>
      </trkpt>
      <trkpt lat="45.69353" lon="6.6817">
        <ele>1775</ele>
        <time>2014-10-20T12:31:59Z</time>
      </trkpt>
      <trkpt lat="45.69335" lon="6.68125">
        <ele>1775</ele>
        <time>2014-10-20T12:32:02Z</time>
      </trkpt>
      <trkpt lat="45.69332" lon="6.6809">
        <ele>1774</ele>
        <time>2014-10-20T12:32:04Z</time>
      </trkpt>
      <trkpt lat="45.69325" lon="6.68056">
        <ele>1772</ele>
        <time>2014-10-20T12:32:06Z</time>
      </trkpt>
      <trkpt lat="45.69317" lon="6.68022">
        <ele>1771</ele>
        <time>2014-10-20T12:32:08Z</time>
      </trkpt>
      <trkpt lat="45.69307" lon="6.67988">
        <ele>1770</ele>
        <time>2014-10-20T12:32:10Z</time>
      </trkpt>
      <trkpt lat="45.69291" lon="6.6796">
        <ele>1767</ele>
        <time>2014-10-20T12:32:12Z</time>
      </trkpt>
      <trkpt lat="45.69254" lon="6.67937">
        <ele>1765</ele>
        <time>2014-10-20T12:32:15Z</time>
      </trkpt>
      <trkpt lat="45.6922" lon="6.679">
        <ele>1762</ele>
        <time>2014-10-20T12:32:18Z</time>
      </trkpt>
      <trkpt lat="45.69205" lon="6.67865">
        <ele>1761</ele>
        <time>2014-10-20T12:32:20Z</time>
      </trkpt>
      <trkpt lat="45.69177" lon="6.67816">
        <ele>1760</ele>
        <time>2014-10-20T12:32:23Z</time>
      </trkpt>
      <trkpt lat="45.69157" lon="6.67784">
        <ele>1758</ele>
        <time>2014-10-20T12:32:25Z</time>
      </trkpt>
      <trkpt lat="45.69128" lon="6.67738">
        <ele>1753</ele>
        <time>2014-10-20T12:32:28Z</time>
      </trkpt>
      <trkpt lat="45.69115" lon="6.67686">
        <ele>1749</ele>
        <time>2014-10-20T12:32:31Z</time>
      </trkpt>
      <trkpt lat="45.69109" lon="6.67651">
        <ele>1747</ele>
        <time>2014-10-20T12:32:33Z</time>
      </trkpt>
      <trkpt lat="45.69102" lon="6.67616">
        <ele>1745</ele>
        <time>2014-10-20T12:32:35Z</time>
      </trkpt>
      <trkpt lat="45.69093" lon="6.67562">
        <ele>1743</ele>
        <time>2014-10-20T12:32:38Z</time>
      </trkpt>
      <trkpt lat="45.6909" lon="6.67526">
        <ele>1741</ele>
        <time>2014-10-20T12:32:40Z</time>
      </trkpt>
      <trkpt lat="45.69092" lon="6.67472">
        <ele>1738</ele>
        <time>2014-10-20T12:32:43Z</time>
      </trkpt>
      <trkpt lat="45.69098" lon="6.67437">
        <ele>1736</ele>
        <time>2014-10-20T12:32:45Z</time>
      </trkpt>
      <trkpt lat="45.69112" lon="6.67388">
        <ele>1732</ele>
        <time>2014-10-20T12:32:48Z</time>
      </trkpt>
      <trkpt lat="45.69119" lon="6.67335">
        <ele>1730</ele>
        <time>2014-10-20T12:32:51Z</time>
      </trkpt>
      <trkpt lat="45.69145" lon="6.67297">
        <ele>1727</ele>
        <time>2014-10-20T12:32:54Z</time>
      </trkpt>
      <trkpt lat="45.69167" lon="6.6728">
        <ele>1725</ele>
        <time>2014-10-20T12:32:56Z</time>
      </trkpt>
      <trkpt lat="45.69191" lon="6.6724">
        <ele>1721</ele>
        <time>2014-10-20T12:32:59Z</time>
      </trkpt>
      <trkpt lat="45.69205" lon="6.6721">
        <ele>1719</ele>
        <time>2014-10-20T12:33:01Z</time>
      </trkpt>
      <trkpt lat="45.69222" lon="6.67182">
        <ele>1716</ele>
        <time>2014-10-20T12:33:03Z</time>
      </trkpt>
      <trkpt lat="45.69247" lon="6.67141">
        <ele>1714</ele>
        <time>2014-10-20T12:33:06Z</time>
      </trkpt>
      <trkpt lat="45.69253" lon="6.67106">
        <ele>1712</ele>
        <time>2014-10-20T12:33:08Z</time>
      </trkpt>
      <trkpt lat="45.69273" lon="6.6706">
        <ele>1708</ele>
        <time>2014-10-20T12:33:11Z</time>
      </trkpt>
      <trkpt lat="45.69296" lon="6.67017">
        <ele>1705</ele>
        <time>2014-10-20T12:33:14Z</time>
      </trkpt>
      <trkpt lat="45.69307" lon="6.66968">
        <ele>1703</ele>
        <time>2014-10-20T12:33:17Z</time>
      </trkpt>
      <trkpt lat="45.69313" lon="6.66939">
        <ele>1701</ele>
        <time>2014-10-20T12:33:19Z</time>
      </trkpt>
      <trkpt lat="45.69318" lon="6.66908">
        <ele>1696</ele>
        <time>2014-10-20T12:33:22Z</time>
      </trkpt>
      <trkpt lat="45.69317" lon="6.66897">
        <ele>1690</ele>
        <time>2014-10-20T12:33:25Z</time>
      </trkpt>
      <trkpt lat="45.69317" lon="6.66897">
        <ele>1690</ele>
        <time>2014-10-20T12:33:26Z</time>
      </trkpt>
    </trkseg>
  </trk>
</gpx>